GFSCGP_prec_cthk_000.txt.gz
RH
34 33 33 29 27 24 22 31 36 31 29 35 40 40 40 37 35 40 42 46 48 49 51 53 55 59 62 67 75 81 85 87 74 71 74 71 75 84 83 75 68 64 62 59
28 32 31 31 31 28 30 33 37 35 35 35 43 42 39 37 36 37 37 44 51 52 54 54 61 67 72 75 77 74 68 67 70 69 70 72 66 62 61 60 60 58 51 44
21 30 30 31 31 40 40 33 35 39 39 39 41 42 40 40 41 44 45 49 53 55 61 65 68 71 67 64 56 52 55 56 57 56 56 58 58 59 59 56 52 47 45 46
28 32 33 33 40 41 42 40 38 45 45 50 43 55 45 46 48 49 53 55 56 59 56 59 56 54 51 48 51 58 57 55 57 59 62 63 62 58 54 52 50 50 51 52
26 29 31 35 32 30 36 37 40 43 43 45 45 51 45 48 51 53 55 56 56 53 58 59 60 61 59 60 57 56 54 56 56 56 57 55 52 51 52 52 51 52 53 51
29 31 32 31 30 27 27 35 41 45 47 51 40 43 46 48 47 52 55 57 58 57 55 58 60 62 66 60 58 58 60 58 52 52 51 53 54 55 54 52 50 51 49 46
32 32 29 29 29 27 30 34 46 48 52 51 40 42 39 41 48 55 58 59 60 55 55 60 69 57 57 59 58 60 59 57 54 54 57 57 57 56 53 52 50 48 42 35
37 35 27 28 27 28 29 35 46 46 54 44 41 47 43 43 47 51 54 55 54 53 55 63 62 52 55 60 64 66 65 63 61 58 57 56 54 51 48 43 37 33 29 27
35 30 26 30 31 31 30 35 36 48 52 54 51 42 43 44 46 44 45 47 50 55 56 50 51 53 55 58 62 65 66 66 61 58 54 52 48 43 36 31 27 22 19 18
36 37 29 33 34 31 30 31 32 40 40 47 45 42 42 38 38 40 42 43 47 49 48 51 51 54 56 59 66 65 70 68 65 61 59 50 45 40 31 26 22 18 15 21
42 41 32 30 30 32 29 27 29 31 39 42 50 41 32 34 37 40 41 43 47 50 50 54 57 60 64 66 71 74 73 67 67 59 50 47 41 33 28 23 20 18 20 30
46 44 46 31 31 28 26 25 25 31 27 45 45 32 30 32 35 37 41 45 48 51 56 58 62 67 70 76 75 67 70 73 60 54 49 44 37 33 28 24 21 20 22 29
40 43 49 36 30 26 24 27 28 29 35 38 44 31 30 30 33 37 42 46 51 54 57 61 67 69 69 67 66 75 70 58 57 54 50 41 37 33 29 25 22 21 27 35
35 38 34 36 29 28 27 27 27 27 38 36 37 25 31 34 36 40 44 48 52 57 59 63 65 65 63 68 76 65 60 59 59 54 46 42 38 35 29 24 23 25 31 35
33 35 34 34 32 27 23 23 29 28 28 32 27 28 26 33 37 41 46 50 54 59 61 63 64 64 71 75 66 61 60 60 54 50 46 42 38 33 27 26 27 28 31 32
35 38 34 36 36 33 27 24 25 27 27 31 30 30 30 32 37 41 44 49 54 59 62 63 66 72 69 61 59 61 59 54 53 49 44 41 35 30 27 28 29 32 37 42
33 40 32 30 38 32 27 23 25 25 25 27 32 26 31 34 36 39 44 47 53 59 62 63 61 62 62 61 61 58 55 55 52 47 43 38 34 30 29 30 33 36 42 49
34 37 38 42 36 33 21 24 25 25 26 27 29 30 32 33 37 41 44 47 53 59 61 61 63 66 66 60 57 56 55 54 51 44 40 36 33 32 30 33 36 41 46 53
36 35 43 41 43 30 23 29 31 31 27 29 31 34 36 38 41 39 42 47 56 61 61 64 68 67 60 56 58 58 57 52 44 40 36 35 34 32 32 34 40 44 51 60
41 37 37 47 37 34 26 27 29 29 36 29 31 37 38 40 47 39 46 51 60 63 63 67 67 63 61 59 59 58 53 45 40 38 37 33 34 36 36 39 46 50 55 62
54 50 43 53 44 35 25 29 30 40 32 31 32 34 39 43 42 46 50 58 64 66 70 70 69 67 65 62 59 56 46 42 40 36 31 31 36 37 42 44 51 54 57 58
47 49 52 53 52 37 28 34 37 34 32 33 37 41 44 47 52 53 58 62 68 74 72 74 77 74 66 60 56 47 43 41 37 31 29 30 33 38 46 50 54 51 52 52
48 43 47 46 44 37 37 38 39 40 41 41 43 48 54 58 59 62 63 63 76 73 76 83 81 70 62 59 50 45 43 40 32 29 27 28 32 41 51 54 56 59 61 61
43 42 44 43 38 40 41 41 41 45 46 48 55 60 60 62 68 71 74 72 76 82 91 84 72 66 62 53 48 45 41 32 29 25 26 29 36 46 56 59 64 69 70 69
45 44 45 46 41 41 42 43 46 48 53 56 57 60 63 67 70 74 78 83 89 96 83 73 69 65 56 50 46 42 33 28 24 25 29 35 43 51 59 65 70 76 79 67
43 45 50 50 43 45 45 49 51 53 54 56 58 63 68 72 76 86 91 92 95 83 75 72 67 57 52 46 41 33 28 25 26 27 34 42 49 56 62 70 77 83 67 59

GFSCGP_prec_cthk_003.txt.gz
RH
37 30 32 30 28 26 24 22 30 30 33 36 41 39 40 37 37 42 45 47 48 49 53 56 58 60 61 65 72 81 82 76 62 58 57 57 59 58 57 53 53 52 52 49
32 31 32 33 31 30 27 31 42 42 35 32 39 42 39 35 35 38 41 45 48 51 54 57 59 65 72 80 79 67 54 51 55 58 56 57 54 50 50 52 51 49 47 47
35 33 33 33 35 37 33 40 42 42 38 36 37 39 39 38 39 40 43 46 49 53 59 63 67 67 63 57 57 54 53 55 53 50 52 51 52 51 50 49 48 48 49 47
30 26 36 38 38 37 33 40 38 45 45 45 39 39 44 44 43 45 47 52 57 59 58 59 56 58 60 60 56 56 58 55 56 56 52 51 53 54 53 54 55 54 51 50
34 30 29 39 38 35 38 43 42 39 39 40 40 38 39 45 46 48 50 54 57 57 55 52 50 52 56 57 63 61 56 60 58 59 57 58 57 57 55 57 57 54 51 46
33 27 30 31 34 38 37 33 39 41 40 42 38 37 36 42 41 47 51 56 54 52 58 56 54 54 56 64 58 52 57 61 64 67 69 66 62 58 58 57 52 47 43 37
30 30 32 31 35 33 31 32 39 42 44 39 39 39 29 32 39 48 50 51 51 54 54 55 56 58 58 53 53 56 59 63 64 65 65 63 59 58 52 43 38 35 29 26
33 33 28 30 29 28 30 32 40 45 47 38 38 38 30 35 41 48 51 51 48 49 54 55 58 56 52 52 55 57 59 63 63 62 62 58 58 54 46 41 35 29 26 23
35 32 28 27 29 28 28 30 32 42 45 45 42 39 36 39 42 46 45 44 46 48 50 54 56 50 51 53 57 59 59 64 64 60 60 61 55 48 45 40 34 28 25 23
30 31 29 29 31 34 31 31 37 41 47 46 37 38 32 34 34 35 38 40 44 46 51 52 50 51 53 57 60 62 62 67 64 65 67 56 50 46 41 36 31 27 24 22
32 36 39 31 33 33 32 31 32 31 36 32 34 26 26 27 29 30 34 38 41 45 47 50 52 55 59 63 66 68 73 75 66 64 58 51 47 44 39 34 29 27 25 25
36 44 46 34 30 30 30 27 25 28 26 35 35 22 23 26 28 31 34 37 41 45 49 53 57 61 64 68 70 72 70 63 70 60 54 50 48 42 38 33 31 28 26 28
37 47 49 38 31 29 27 27 26 26 31 33 41 21 24 25 27 30 34 37 41 45 50 56 59 63 67 69 69 69 67 72 61 55 50 50 45 42 39 34 31 29 27 28
35 43 40 38 31 28 28 28 28 25 30 29 31 22 22 24 26 28 32 37 40 45 50 55 61 65 68 66 66 76 65 58 55 53 51 50 45 44 40 33 30 29 28 31
34 37 39 38 35 30 24 27 27 22 23 27 22 23 21 22 25 29 34 37 40 44 48 53 58 64 62 70 67 53 59 58 55 53 53 49 48 45 38 33 29 29 31 36
36 38 38 40 37 33 28 25 24 27 26 24 25 23 21 25 27 30 32 35 39 44 48 54 58 60 68 55 54 62 62 58 53 56 53 51 47 43 36 30 28 31 35 40
35 40 35 33 36 32 30 24 23 24 24 25 28 20 24 25 28 29 33 36 41 44 49 54 57 59 56 57 62 66 61 54 57 59 53 49 46 39 32 30 30 32 35 40
35 33 34 38 35 33 20 23 23 24 24 25 25 24 26 28 31 31 34 37 39 43 49 54 59 58 60 64 67 63 56 59 62 56 49 47 41 35 32 31 31 32 35 40
35 35 37 39 34 27 21 24 28 30 26 26 26 28 32 34 36 35 34 37 41 48 55 61 60 61 64 68 65 59 61 62 60 51 47 42 36 32 32 32 34 34 38 45
43 39 38 42 35 34 23 23 29 29 32 25 28 32 36 40 42 35 36 41 47 55 61 64 65 65 70 67 64 64 65 65 54 48 43 36 30 29 32 33 36 38 43 48
51 49 43 47 43 34 27 30 32 35 31 30 31 34 39 41 40 41 44 47 56 63 63 65 72 80 74 73 71 68 67 58 50 44 36 29 27 28 30 32 41 44 48 47
43 46 48 48 47 41 31 36 41 38 38 38 38 40 42 43 46 51 55 59 63 63 66 76 75 71 78 76 73 69 61 52 46 36 28 25 26 27 27 34 43 50 51 55
42 40 43 41 40 34 36 37 37 38 39 41 43 45 47 52 58 63 63 62 66 69 75 79 74 86 80 78 72 63 53 47 37 29 26 26 26 24 29 39 48 55 58 63
40 40 41 40 37 39 38 38 38 40 43 46 48 50 54 57 62 65 66 68 71 77 76 82 92 82 82 74 66 54 48 37 30 28 27 26 24 26 36 46 53 59 64 71
40 41 43 43 40 39 39 40 43 46 47 49 52 55 57 61 64 67 68 70 76 80 94 93 85 83 74 68 58 49 39 32 30 29 28 25 29 34 43 51 59 66 72 76
40 41 45 46 40 45 46 50 56 60 62 62 60 61 62 64 68 71 78 83 86 96 90 86 83 74 65 58 50 42 35 32 31 30 30 32 35 41 47 54 63 72 75 70

GFSCGP_prec_cthk_006.txt.gz
RH
37 37 35 35 33 32 28 26 26 23 23 30 35 38 40 42 43 44 43 45 48 50 52 54 56 60 61 64 66 72 78 66 58 53 51 50 49 51 50 46 43 44 46 46
37 37 34 33 29 27 26 24 37 36 32 34 38 39 40 38 39 43 45 45 47 48 51 56 59 61 64 71 77 76 64 61 55 54 54 52 52 47 45 48 49 52 53 53
37 35 34 34 30 32 29 35 39 40 36 34 38 37 35 34 34 37 38 41 45 48 51 57 63 68 73 73 67 63 63 55 53 53 46 48 49 52 55 59 59 56 55 56
36 35 34 34 35 35 36 35 39 40 41 38 37 40 39 40 40 36 37 40 45 52 59 63 65 61 61 57 57 56 55 54 49 46 49 54 59 63 64 67 64 63 58 52
36 26 29 34 36 36 39 33 37 34 39 41 39 35 46 40 40 41 40 44 51 58 62 58 55 58 56 54 53 51 53 50 49 52 56 58 61 63 62 61 60 54 50 47
35 34 32 28 36 38 37 30 36 41 39 40 35 33 38 37 35 38 42 45 52 57 55 51 54 56 57 54 50 51 50 51 55 59 62 62 61 60 59 55 47 44 41 37
38 37 36 30 32 34 34 37 38 36 40 36 35 31 25 29 29 37 42 48 51 52 50 51 55 58 56 54 54 52 56 57 59 61 63 62 59 59 55 45 42 38 36 34
37 38 33 31 33 33 37 36 36 37 41 32 36 28 26 27 31 40 45 48 49 47 49 50 54 58 55 57 55 56 60 61 61 60 62 71 62 54 50 46 39 37 34 33
29 31 29 29 30 30 30 30 31 35 39 37 31 30 30 31 34 40 43 45 46 44 46 49 54 58 57 55 56 60 62 62 60 64 80 69 63 55 49 40 36 35 34 33
31 33 30 29 28 28 27 27 30 32 41 39 32 29 28 29 31 34 39 40 40 43 47 52 54 57 56 57 61 63 64 66 69 76 74 57 56 52 42 35 35 35 35 36
26 27 31 30 28 31 32 30 30 33 36 30 24 20 21 22 26 28 31 35 37 40 45 50 51 54 57 61 63 65 67 69 74 71 68 59 50 45 40 40 39 37 35 36
27 34 40 38 30 30 32 30 26 25 26 29 33 18 18 21 22 26 30 34 38 41 45 48 51 55 60 61 63 67 69 73 70 72 57 52 50 46 42 44 44 41 36 33
27 33 41 38 35 30 28 27 23 23 26 26 36 17 18 20 20 24 29 33 37 39 42 45 49 54 60 63 65 67 71 69 71 53 52 54 49 44 46 48 45 40 37 35
29 32 39 43 35 32 30 25 23 20 25 21 22 16 18 19 20 21 25 31 36 39 42 47 50 56 60 64 66 69 64 68 54 54 56 53 47 47 50 48 43 38 34 32
33 32 38 41 36 31 26 24 23 22 21 22 16 17 15 18 19 21 25 29 34 39 42 46 49 54 58 61 62 62 67 56 56 57 57 52 48 51 52 48 40 34 32 35
35 38 35 39 36 33 29 24 22 22 22 20 19 18 20 20 22 23 24 28 32 36 41 46 50 52 56 58 61 65 58 58 60 59 55 52 53 54 51 44 35 31 32 37
39 38 35 33 36 36 38 26 22 20 21 22 23 22 24 24 24 25 28 29 32 35 40 43 46 53 58 59 62 62 62 63 61 56 57 58 55 52 46 36 33 35 33 39
39 35 36 38 36 51 21 22 21 22 22 22 22 24 26 26 29 30 31 33 34 35 38 43 50 56 60 64 64 64 64 64 59 62 67 57 53 47 40 37 37 36 38 41
35 34 40 48 33 24 18 20 21 24 20 23 24 25 27 30 33 33 36 34 36 40 45 50 57 62 64 64 65 67 73 69 68 73 63 54 47 39 36 35 36 38 42 42
41 37 38 43 52 55 25 23 28 28 27 24 25 28 31 34 39 38 40 39 42 45 50 56 63 65 65 67 72 82 72 67 76 69 56 50 39 32 31 34 36 39 40 44
46 47 50 44 50 33 27 28 30 33 31 30 32 34 37 40 40 41 41 46 50 54 59 63 66 66 65 73 80 72 70 79 72 59 52 43 35 32 32 30 34 38 42 48
40 44 50 45 53 50 28 33 37 36 34 34 36 39 40 41 45 47 50 55 60 64 65 69 68 68 82 88 80 78 80 75 65 54 44 41 37 33 31 32 32 40 44 52
40 37 38 36 35 32 33 34 35 36 36 37 39 42 45 47 49 52 56 62 67 70 71 72 74 86 85 87 83 83 79 67 54 46 43 41 42 37 34 32 35 43 49 55
36 35 37 37 33 34 36 36 37 38 39 41 44 44 49 54 60 62 63 65 68 70 76 79 84 89 93 93 90 78 68 58 50 49 46 45 40 29 33 35 38 46 53 59
36 38 38 37 35 36 35 38 41 46 50 55 59 64 64 64 64 65 64 65 69 74 79 88 95 97 91 86 77 70 61 53 49 45 43 40 36 33 35 34 43 49 57 63
36 39 41 40 37 40 43 50 56 61 65 67 68 68 68 67 67 69 72 77 84 85 91 95 95 93 86 77 70 63 54 51 46 43 44 42 38 37 34 36 42 49 58 63

GFSCGP_prec_cthk_009.txt.gz
RH
44 44 43 42 40 40 33 24 23 25 22 26 35 33 30 41 48 49 57 56 51 54 56 57 60 63 67 70 72 75 79 81 77 65 58 54 50 44 42 43 42 44 46 49
43 48 44 43 38 33 29 30 31 30 19 35 37 43 38 40 44 45 48 50 53 53 55 56 61 64 73 77 78 81 82 75 64 58 58 56 49 47 44 45 47 53 56 57
44 44 38 36 34 32 30 27 41 36 29 30 39 45 36 33 36 41 44 48 51 53 56 59 62 70 74 75 76 75 66 59 54 55 50 45 45 47 52 55 56 58 57 57
46 39 35 36 37 37 36 37 42 39 41 35 29 38 46 34 29 32 35 41 46 49 53 60 65 67 72 75 72 66 59 55 51 49 47 49 53 56 58 59 58 59 59 53
42 35 35 36 43 29 55 37 31 38 40 39 43 31 51 50 35 33 36 38 40 45 53 59 67 67 66 65 64 61 55 50 47 46 48 51 55 61 63 60 59 56 47 41
51 33 31 38 31 33 30 34 31 31 38 41 31 48 58 56 47 37 34 37 44 51 57 64 61 61 58 57 58 55 51 49 49 50 52 55 60 61 66 63 61 52 43 39
38 38 34 32 33 26 35 41 39 36 42 39 38 38 30 37 48 44 35 36 44 47 52 52 53 49 53 56 53 51 51 51 52 54 56 56 59 68 68 63 50 42 40 35
40 42 32 31 35 41 32 38 40 42 41 31 41 36 27 31 29 29 37 41 46 47 47 46 46 45 48 52 52 51 51 51 53 55 56 57 65 74 72 50 46 41 36 34
40 44 44 33 32 28 40 34 37 43 42 35 25 29 34 30 25 32 41 40 44 43 42 41 44 47 49 54 53 53 53 53 54 58 63 67 68 66 59 51 43 39 36 35
42 43 39 31 28 26 28 38 33 29 37 40 33 36 32 39 23 28 38 36 39 41 40 40 42 47 51 53 55 54 53 52 57 65 64 63 66 62 56 44 42 40 38 40
33 34 43 32 27 32 32 25 26 35 45 45 34 30 34 17 22 24 32 35 35 36 37 39 41 47 47 51 53 54 54 55 62 67 64 65 65 63 48 45 44 42 43 45
25 35 45 35 33 26 33 38 38 33 35 31 34 23 20 16 18 21 25 34 33 35 37 41 43 44 46 50 52 54 56 60 65 68 69 64 60 52 48 48 47 46 49 44
28 27 40 38 32 29 25 27 28 28 30 25 37 24 23 18 17 19 23 28 31 34 37 42 42 44 46 50 52 55 60 63 67 70 67 64 62 53 52 52 50 53 47 41
28 27 34 42 49 42 35 27 26 24 27 24 23 20 21 21 20 21 20 24 33 33 38 43 43 46 49 52 56 61 65 65 68 68 68 63 59 58 55 55 58 54 45 41
33 32 33 36 39 39 32 30 27 23 21 25 21 19 18 20 20 21 24 22 27 33 35 40 45 50 54 57 61 64 62 66 65 74 66 62 61 60 61 61 58 52 44 42
38 39 35 34 33 37 34 28 23 23 21 21 20 20 20 22 23 21 25 25 27 32 36 41 45 50 53 55 58 60 63 66 71 69 68 63 68 69 65 60 58 49 44 44
47 42 40 36 36 35 40 29 25 23 23 22 23 23 28 28 25 25 27 30 30 33 36 39 43 48 53 54 56 62 69 69 70 73 65 71 76 72 63 60 53 51 50 52
45 42 42 39 41 53 23 23 23 24 23 24 25 25 26 28 28 28 29 31 33 35 39 43 46 48 52 56 59 70 70 68 78 65 79 82 79 68 62 54 52 53 56 59
39 40 43 52 35 27 23 20 21 21 21 25 26 25 28 29 28 31 38 39 40 40 41 43 47 53 60 63 66 72 73 75 70 88 80 80 72 65 56 52 54 59 54 56
40 41 39 39 52 57 32 27 26 26 27 29 28 30 30 32 36 39 44 42 42 41 46 50 55 61 65 67 71 72 74 85 89 82 82 83 69 59 52 56 52 51 56 55
45 48 49 45 51 37 29 28 26 29 35 33 32 32 36 37 37 42 41 41 46 50 55 59 65 71 73 72 74 78 86 85 84 81 86 77 63 60 61 49 48 50 48 52
38 43 50 47 56 50 27 28 32 38 33 34 35 37 41 40 40 42 46 46 51 58 65 68 74 74 73 75 80 85 88 88 88 89 80 67 63 57 52 51 46 52 54 53
41 37 42 35 39 37 30 30 34 34 33 35 37 37 40 43 46 51 59 62 60 63 65 66 67 75 79 84 90 94 92 94 90 76 68 63 59 58 56 50 47 46 53 54
36 34 34 33 33 35 35 34 35 36 38 40 42 46 50 56 60 63 64 64 61 61 61 65 70 77 84 89 95 97 90 84 78 65 63 58 58 59 46 42 42 50 50 51
38 37 36 36 33 35 37 39 43 40 45 50 55 61 64 65 65 66 66 62 64 65 71 75 84 90 92 93 91 88 83 74 67 63 60 59 53 51 49 43 42 42 44 46
38 37 41 41 40 37 40 46 47 52 59 63 64 64 63 63 68 68 67 71 76 82 85 88 91 93 94 91 87 82 74 67 63 59 56 57 56 50 44 37 36 38 40 45

GFSCGP_prec_cthk_012.txt.gz
RH
43 45 47 44 43 42 38 33 35 32 23 20 34 38 32 26 50 60 55 59 48 49 52 50 49 53 60 63 64 63 68 70 74 78 59 49 49 44 37 37 37 39 42 44
46 45 48 47 44 43 40 36 29 28 25 20 29 39 23 29 37 42 46 43 46 49 53 53 54 54 58 66 69 72 71 71 70 61 54 54 51 41 39 39 42 44 45 47
53 50 49 46 44 38 34 34 36 35 17 22 40 41 42 29 37 47 44 46 49 49 52 55 56 59 65 69 72 72 75 70 61 50 48 48 42 42 46 47 47 49 50 55
57 47 41 39 36 35 43 41 39 45 41 33 36 51 66 51 32 30 35 41 41 48 48 52 56 59 64 69 73 71 71 61 53 50 46 46 46 47 48 50 55 54 55 52
50 39 39 44 43 43 44 43 39 38 40 43 45 44 51 47 44 34 37 39 40 43 42 47 51 56 64 66 68 69 62 53 51 48 48 47 46 48 48 53 58 58 58 50
46 45 47 47 38 31 29 28 33 36 34 53 47 54 58 55 51 58 47 49 44 37 41 48 48 54 62 66 62 58 53 51 49 48 46 45 47 48 48 53 58 61 49 42
38 35 36 31 31 28 23 34 41 48 52 43 37 46 44 44 48 63 52 47 42 40 41 49 52 58 64 59 51 50 50 48 49 47 46 46 49 50 52 57 54 53 51 41
48 42 33 24 24 46 45 29 47 73 77 51 45 39 38 37 44 45 52 53 41 45 49 53 56 57 57 50 49 50 48 48 47 46 46 48 53 57 57 56 52 54 54 42
51 57 54 41 30 27 30 36 39 47 63 54 36 28 24 31 38 40 48 40 38 42 46 48 50 47 44 44 46 47 48 48 47 46 47 51 56 61 62 56 51 51 44 37
68 71 53 47 35 25 22 38 39 34 37 34 24 35 42 44 38 28 31 35 36 39 41 41 42 40 39 41 46 47 49 48 45 46 51 56 61 66 64 56 51 53 45 40
38 59 52 40 31 23 32 27 25 28 44 56 49 38 38 36 31 20 25 36 37 35 35 33 34 37 38 40 44 46 50 49 47 50 56 59 65 66 65 61 62 56 44 42
27 31 42 34 35 26 34 44 36 45 31 45 45 28 27 27 20 15 20 30 35 32 33 33 34 37 38 41 45 46 52 50 49 54 59 65 68 69 72 62 58 49 48 53
29 27 37 41 47 31 24 22 31 44 42 41 52 30 24 22 19 18 18 23 33 36 35 35 37 39 40 44 49 50 54 54 56 61 69 72 71 81 73 73 60 54 58 58
28 31 30 41 38 52 52 31 28 31 45 36 30 23 29 26 25 23 22 21 27 34 37 40 44 45 46 48 51 56 59 60 67 69 76 73 75 78 74 68 62 65 69 62
26 28 29 32 42 48 51 43 37 32 30 31 26 29 26 25 27 28 25 26 23 26 41 44 48 53 54 51 54 59 62 64 67 70 74 77 78 75 72 69 71 76 74 60
33 37 38 36 33 38 39 40 34 30 32 31 25 29 27 27 25 25 24 25 28 26 28 39 46 51 53 58 61 62 62 61 64 76 74 76 76 76 80 84 76 70 65 62
48 50 48 43 37 36 39 33 31 29 29 26 28 24 25 29 30 28 27 28 30 28 29 34 42 49 53 54 56 59 60 62 67 75 75 76 79 83 88 80 75 73 66 74
59 57 52 52 46 51 26 25 25 26 26 26 27 30 32 30 31 29 26 29 32 38 39 40 39 41 45 51 54 59 63 66 71 75 76 78 86 91 89 83 74 66 77 68
51 51 54 63 45 31 30 26 24 23 24 25 26 26 29 29 29 29 34 38 40 40 39 39 42 44 50 56 61 64 70 74 73 76 81 89 94 88 83 74 73 72 65 67
41 48 52 47 55 56 37 31 27 26 31 29 28 30 31 31 37 37 40 40 38 38 39 45 49 57 62 67 72 69 73 79 83 84 91 89 91 90 81 77 70 65 64 62
49 52 56 54 58 47 35 32 28 32 39 35 34 32 32 36 38 38 39 38 40 42 47 55 62 66 68 70 73 78 82 85 86 94 92 92 92 83 76 70 66 65 59 55
41 48 54 54 63 56 30 29 33 40 37 32 33 34 34 36 37 37 41 46 53 56 58 61 61 62 68 74 81 81 82 89 94 92 95 92 82 77 74 70 64 58 53 47
43 38 46 41 45 37 33 32 31 33 34 34 35 37 40 42 44 52 56 61 61 60 57 57 62 68 74 78 82 87 93 95 97 95 92 82 75 70 67 61 51 43 41 45
39 36 38 36 29 35 36 36 34 38 37 40 40 42 49 52 59 62 64 60 57 62 61 61 67 73 77 80 85 88 93 94 96 89 81 73 70 65 57 53 45 38 40 42
40 39 36 36 34 35 37 42 44 40 40 44 49 56 58 61 61 62 60 61 64 68 72 73 74 78 80 83 86 90 91 90 83 75 70 66 58 53 49 44 40 37 34 38
37 38 41 44 42 38 40 44 42 44 47 51 56 57 58 60 60 61 67 71 75 78 81 81 82 81 80 81 81 77 78 75 72 65 58 53 48 43 40 39 36 36 36 42

GFSCGP_prec_cthk_015.txt.gz
RH
43 44 46 41 43 41 40 40 39 35 25 26 24 33 45 46 36 52 63 62 54 35 37 44 39 43 47 51 54 53 54 55 54 56 54 46 43 39 36 34 34 36 39 42
44 45 41 43 45 41 46 45 44 37 32 20 34 35 40 36 37 42 45 41 47 45 41 41 39 40 43 45 52 57 58 58 57 60 56 47 41 42 39 37 40 42 45 47
47 44 48 48 44 43 45 45 38 33 29 24 33 47 49 41 44 50 51 46 48 43 41 42 42 40 42 46 55 63 65 61 64 64 56 51 48 45 41 40 43 46 49 49
48 47 48 48 43 43 44 42 42 39 42 25 33 54 47 47 43 51 54 49 50 49 42 40 48 45 46 50 58 60 60 62 63 61 56 54 52 45 42 43 44 46 45 45
47 48 47 48 44 42 41 38 41 40 41 47 46 50 51 52 46 47 49 46 48 44 42 40 46 52 55 57 65 69 64 61 59 55 51 51 49 46 45 46 47 46 49 47
42 44 45 43 41 38 31 34 32 42 44 61 49 48 52 50 47 43 45 43 46 45 46 47 48 52 55 57 61 62 61 60 57 49 49 47 46 46 46 48 48 52 54 49
38 40 51 47 41 31 30 30 43 47 58 57 47 53 52 50 47 43 37 36 41 44 48 45 46 54 52 53 59 59 58 59 53 51 50 49 48 48 48 50 54 58 58 49
48 51 46 44 33 43 43 34 55 60 75 54 45 56 52 38 36 34 36 42 43 41 47 45 48 50 53 53 55 53 54 48 51 49 48 51 50 49 52 56 61 61 54 51
44 53 51 49 43 42 41 43 42 61 65 71 59 38 45 45 44 41 42 38 31 40 49 51 56 52 51 51 52 51 46 46 48 48 50 53 51 54 58 63 63 59 58 68
45 53 54 56 49 39 34 30 44 54 64 48 29 34 41 51 48 49 39 33 38 39 40 44 45 45 46 50 54 54 50 48 47 48 54 57 59 61 64 66 67 75 72 64
48 49 53 56 56 41 34 31 25 34 43 50 56 51 39 37 32 36 40 40 36 34 36 36 36 39 41 43 45 44 43 44 48 52 58 59 63 69 77 74 80 74 72 65
49 52 54 54 40 33 30 32 42 55 36 48 52 42 30 34 31 29 30 30 31 31 33 34 34 34 34 35 35 37 43 48 52 56 59 64 74 80 77 74 78 77 68 60
38 39 48 48 45 39 38 29 37 43 45 46 50 36 26 24 26 25 23 24 29 33 37 37 36 36 34 34 38 43 47 51 58 64 66 71 77 76 72 78 78 71 67 69
34 31 33 39 28 37 45 48 33 32 49 46 46 32 23 27 29 28 26 23 27 31 38 41 42 42 44 47 49 55 60 64 67 67 64 66 73 71 78 79 79 75 79 78
33 30 26 26 28 39 43 47 49 36 35 40 34 30 25 33 32 31 30 29 28 29 38 43 44 52 57 59 66 70 73 71 68 65 62 65 67 72 77 78 78 87 80 73
27 31 26 27 27 36 39 49 45 43 38 36 35 32 30 33 31 31 30 29 32 32 29 27 35 48 51 59 65 68 68 64 64 64 67 68 68 72 75 83 89 86 81 76
35 38 39 40 36 33 37 28 31 34 40 38 34 31 32 35 31 29 28 28 29 28 30 32 35 40 44 46 50 51 51 58 64 73 73 70 72 75 81 91 92 89 83 85
50 52 56 59 50 44 27 24 26 28 31 30 32 33 32 32 33 33 33 33 30 32 35 36 36 38 41 44 46 51 61 67 72 72 71 74 80 83 89 96 92 88 86 82
68 64 68 62 57 41 30 28 28 27 31 29 30 32 33 34 33 36 35 34 36 37 36 35 36 36 41 53 60 65 69 68 68 71 75 76 85 89 96 95 91 88 77 74
51 52 54 57 57 50 36 31 29 28 38 32 31 32 33 31 38 38 37 36 35 35 33 36 41 50 55 60 62 65 70 74 76 75 79 83 88 96 96 93 85 78 72 68
49 52 56 61 58 47 37 33 31 37 40 34 33 33 33 34 35 35 35 36 36 35 41 53 56 56 57 60 67 75 77 81 84 86 87 92 97 96 93 86 77 74 70 60
41 50 54 59 61 54 31 30 31 36 34 33 33 31 32 33 34 35 38 42 44 50 55 54 54 61 67 71 77 82 84 88 87 90 95 95 94 93 86 83 77 69 53 44
42 38 42 41 44 32 28 30 31 31 32 31 32 35 36 37 39 44 50 54 54 52 53 57 63 68 74 78 79 80 83 86 88 88 90 90 88 83 77 70 59 51 47 42
37 36 41 38 35 34 31 32 33 34 33 34 36 35 38 44 48 52 56 58 57 57 60 64 68 72 73 75 76 76 76 79 81 81 76 71 67 63 64 57 49 43 41 38
41 40 40 36 32 38 40 41 41 42 41 38 41 43 47 52 54 56 58 59 60 64 65 67 72 74 72 71 70 69 64 61 57 56 54 54 54 50 46 37 35 35 40 43
40 39 40 43 38 38 42 42 43 42 43 45 48 50 53 57 59 59 61 66 73 77 79 76 71 69 67 64 59 51 45 45 47 46 42 37 31 28 35 34 36 44 47 49

GFSCGP_prec_cthk_021.txt.gz
RH
36 37 42 48 44 43 41 40 45 46 46 45 42 49 53 52 53 57 62 51 45 38 41 42 41 42 41 36 41 46 50 53 55 59 60 58 54 53 47 43 39 33 31 31
39 40 42 44 43 47 47 44 46 46 46 40 34 41 52 51 46 45 50 54 51 49 41 40 42 43 42 43 41 45 53 56 59 61 60 60 59 57 50 45 41 36 35 35
43 36 42 42 42 48 48 46 42 40 34 32 36 40 48 51 50 56 52 48 42 38 37 37 40 43 45 46 46 44 52 57 62 61 63 63 63 59 50 46 43 41 41 41
43 39 40 44 44 46 46 46 42 40 38 42 35 47 46 46 50 53 54 58 56 40 39 41 43 42 42 49 53 55 57 61 66 63 63 62 64 73 48 47 44 45 46 49
46 44 46 44 42 45 46 44 41 37 44 46 45 45 37 44 52 50 50 55 58 55 46 42 44 53 55 51 57 58 60 69 68 64 64 61 63 70 54 51 50 50 52 55
46 43 45 42 47 43 45 44 45 46 46 55 48 47 42 45 43 44 44 44 53 53 50 50 55 57 54 55 57 66 70 69 71 62 62 61 65 65 68 64 62 61 61 60
46 46 47 47 48 44 40 44 51 51 60 58 50 52 43 39 43 40 40 43 44 49 48 49 50 56 57 56 61 63 63 65 66 58 54 63 65 69 72 71 73 70 68 66
47 50 47 46 46 43 41 44 49 49 59 49 51 49 37 34 34 38 40 34 38 42 43 46 52 60 59 61 60 61 59 72 64 66 63 64 73 72 80 80 79 76 73 71
50 50 48 48 48 42 43 42 43 53 58 57 46 42 35 32 36 38 35 35 31 31 33 38 49 51 55 54 53 57 59 55 57 63 64 65 74 83 83 79 80 81 80 79
44 48 47 49 48 47 45 44 45 52 54 57 48 42 41 32 39 39 43 37 30 25 27 31 35 37 41 41 41 43 47 48 53 52 55 61 76 80 78 80 83 82 83 82
39 42 48 51 48 44 47 49 47 43 52 54 59 44 35 36 28 27 32 34 29 30 27 28 27 30 32 32 34 39 42 45 50 55 58 60 65 72 77 78 78 82 83 76
34 37 52 44 43 43 43 52 53 59 40 52 55 40 29 29 35 32 30 29 29 28 26 25 28 32 34 34 38 38 41 45 51 57 60 69 80 82 83 85 88 87 74 70
33 36 45 38 37 43 40 43 54 51 45 45 57 44 31 34 29 28 27 24 25 26 27 30 31 35 39 41 43 42 47 59 67 73 80 82 83 85 86 87 83 73 72 76
38 41 42 43 45 52 50 47 47 44 54 46 45 32 32 32 32 28 26 26 25 27 30 33 34 41 51 50 51 58 58 63 68 75 80 84 81 81 85 78 74 74 73 76
46 43 45 50 46 41 37 40 42 44 44 47 38 40 31 32 34 28 28 28 28 29 31 36 40 46 50 51 47 49 54 56 65 71 74 74 73 72 74 76 74 72 76 82
43 54 55 59 52 45 41 37 46 40 35 35 38 38 34 33 35 31 30 30 30 31 34 37 39 41 41 38 36 39 43 49 53 60 60 64 65 70 76 72 72 77 80 80
49 55 60 55 53 46 46 35 28 27 30 34 40 40 39 41 41 38 35 35 36 37 39 39 38 37 36 36 35 33 32 38 45 52 56 66 70 72 73 76 77 77 79 87
52 53 57 59 49 53 27 26 25 25 23 24 30 37 38 39 43 43 42 38 39 41 39 38 39 38 36 32 29 29 33 42 51 58 62 66 76 81 79 79 79 80 91 97
53 57 57 55 59 50 35 31 32 31 29 26 28 30 33 36 38 40 40 39 38 37 37 37 36 34 32 29 30 37 45 50 53 57 64 73 77 77 76 86 97 89 96 92
56 54 54 64 67 70 53 48 45 39 43 34 33 35 37 37 42 41 39 38 37 37 36 35 35 34 34 36 40 42 47 52 57 63 70 80 78 85 83 81 84 82 79 77
58 59 60 65 65 59 44 43 40 43 37 36 38 39 39 40 40 40 39 37 36 35 35 35 35 38 40 40 41 46 52 59 67 74 77 78 81 84 84 81 78 79 76 71
54 62 58 57 60 52 37 38 36 34 37 36 41 42 41 39 37 36 36 35 35 36 37 40 41 42 42 45 50 56 62 69 72 73 74 78 81 78 76 73 71 70 61 47
47 35 37 40 40 34 31 30 33 35 36 36 34 34 33 34 34 34 34 35 39 43 46 47 47 48 52 58 62 64 66 69 71 72 72 70 69 66 58 49 45 41 41 39
39 31 34 33 31 30 29 28 27 28 29 30 32 33 35 33 34 37 42 46 49 51 52 53 54 58 64 68 70 69 70 71 70 64 58 51 46 42 37 34 32 31 29 29
30 33 34 34 33 32 32 30 29 29 30 32 34 37 38 39 43 48 53 54 56 58 61 63 66 72 74 70 67 65 64 60 54 49 46 41 36 30 27 26 26 27 28 32
31 30 34 37 33 33 34 33 32 32 36 39 41 44 46 50 54 58 59 62 66 70 71 71 74 71 67 66 66 64 59 52 44 38 34 29 24 23 25 26 26 31 34 39

GFSCGP_prec_cthk_024.txt.gz
RH
35 34 40 39 46 45 45 42 42 44 46 49 47 50 48 55 55 64 54 47 42 41 40 42 42 42 38 39 43 46 51 51 54 53 54 63 62 66 59 51 50 48 43 39
41 43 43 42 47 49 46 44 45 46 44 44 46 44 48 49 49 50 59 50 51 42 42 39 40 40 38 35 38 43 48 51 56 58 58 62 63 62 59 57 49 49 43 38
43 41 44 41 47 48 48 47 48 45 40 39 40 44 48 48 48 54 54 56 50 45 43 39 41 40 40 37 37 39 48 54 57 58 59 62 62 62 64 62 50 46 41 41
42 39 38 40 38 44 49 49 46 43 38 44 41 42 42 47 49 52 54 57 53 47 42 42 41 44 47 46 41 45 51 56 62 63 61 61 59 62 65 68 58 53 53 52
42 42 43 43 40 40 47 47 45 40 43 43 45 43 39 45 49 46 49 51 54 50 49 45 45 47 50 57 47 49 55 59 64 66 66 65 64 67 67 70 67 61 64 63
40 42 46 46 41 39 45 47 46 44 44 50 41 45 44 43 39 42 46 47 49 51 52 52 56 57 62 63 56 55 66 67 64 74 78 67 62 65 69 71 75 73 74 75
40 42 46 47 45 44 46 47 53 50 56 53 48 50 41 34 35 39 43 42 40 41 42 51 53 58 62 63 62 61 68 68 62 82 80 73 64 64 71 72 79 81 83 81
43 48 46 48 48 47 46 47 56 51 58 49 52 48 37 33 34 34 35 38 39 37 42 43 44 48 54 62 62 60 61 63 65 80 85 75 73 74 72 81 82 88 85 82
40 46 49 51 51 50 46 44 43 57 63 59 48 39 31 29 32 38 36 37 37 33 33 38 36 44 58 62 62 57 53 52 54 62 63 64 66 71 76 88 91 87 84 80
36 44 52 52 53 52 48 44 48 52 51 52 48 44 38 31 32 38 43 39 36 33 26 28 31 31 36 44 47 43 42 41 46 53 61 68 68 74 78 79 78 86 84 87
36 42 49 54 51 51 50 46 46 49 56 56 56 42 31 30 32 31 30 31 35 33 31 27 27 27 26 28 30 29 32 38 49 62 74 70 74 77 82 87 89 90 89 89
37 44 55 48 49 51 46 47 46 55 49 64 66 45 26 27 32 32 34 32 35 37 32 30 25 22 25 28 33 36 41 51 63 66 69 77 81 86 89 92 95 93 91 85
41 43 54 47 46 45 45 40 43 50 56 59 64 46 26 31 35 29 31 32 30 25 25 25 24 27 29 37 43 53 67 65 61 68 70 73 81 87 92 93 94 85 81 74
43 47 40 36 34 38 41 37 47 47 60 53 51 35 32 31 31 32 30 27 26 27 27 27 28 32 36 43 52 62 64 57 51 54 57 65 74 77 80 85 85 75 72 74
45 47 43 37 37 40 43 45 50 43 43 48 39 42 34 37 41 33 30 28 29 31 31 31 33 37 41 48 50 51 48 45 44 48 54 60 68 71 76 77 70 73 77 79
46 48 48 52 51 49 50 44 39 35 32 35 37 36 30 31 37 39 36 37 33 32 33 34 35 36 38 39 38 37 34 34 35 37 42 53 64 64 67 72 76 82 86 83
47 51 56 59 63 57 55 44 41 36 32 29 33 29 31 34 42 44 43 41 39 38 39 37 37 37 36 34 32 32 32 29 28 32 41 51 57 64 74 76 82 86 85 88
56 55 57 69 63 64 38 34 30 30 27 29 29 26 26 29 36 40 42 42 44 44 42 39 38 37 36 34 32 29 28 30 35 43 48 54 59 68 77 81 84 84 83 95
50 59 68 66 63 46 35 30 38 39 28 27 25 27 28 29 31 36 39 42 43 42 41 39 37 34 33 31 30 29 32 37 42 46 50 58 65 75 79 85 85 86 85 96
54 62 66 66 64 56 35 33 38 49 45 38 35 35 36 35 40 44 44 43 42 41 38 36 35 34 34 33 34 35 37 40 44 51 59 69 76 80 83 86 90 86 80 78
65 73 71 76 66 52 38 34 38 49 37 37 38 39 40 39 38 39 40 41 39 38 36 35 35 34 36 39 41 41 43 48 54 62 70 73 76 77 79 79 77 77 76 76
55 68 68 71 62 56 35 33 38 38 33 32 36 38 39 38 38 40 38 35 34 33 33 35 38 41 43 44 46 50 54 58 62 65 66 69 72 74 73 71 69 63 55 48
51 49 53 48 50 38 28 28 33 32 33 34 35 38 38 37 35 33 33 33 33 35 38 42 45 47 50 54 55 58 62 65 67 68 71 70 67 62 56 51 46 40 34 28
50 44 48 46 39 28 26 26 27 26 28 30 30 30 31 31 32 32 33 35 39 44 46 50 53 57 61 62 63 64 66 66 66 65 61 58 56 51 43 34 31 28 25 24
49 46 49 44 33 28 26 26 28 28 28 28 29 29 30 32 34 36 39 44 49 53 56 60 64 68 69 67 64 63 63 64 62 58 53 47 41 36 32 32 31 28 29 34
57 49 57 42 24 25 23 27 28 29 29 29 30 34 36 38 40 45 50 55 60 63 67 71 74 74 69 66 65 66 64 60 54 50 45 41 38 36 35 31 27 27 26 27

GFSCGP_prec_cthk_027.txt.gz
RH
32 30 33 35 38 42 41 45 45 46 46 49 50 51 54 58 58 58 51 45 39 39 43 42 40 41 45 47 48 48 51 50 49 49 51 56 56 55 62 59 57 51 50 47
34 34 37 39 39 44 45 45 45 45 44 47 47 48 48 51 53 57 56 53 46 40 41 42 42 40 38 40 45 50 53 53 56 58 59 63 64 66 74 64 57 50 48 45
35 35 37 40 44 45 46 49 48 45 44 48 44 40 44 47 55 58 59 56 53 46 42 40 40 39 37 36 38 42 48 55 57 61 61 60 64 76 69 66 64 58 55 53
34 35 36 41 43 50 47 44 49 47 43 40 37 36 38 45 47 53 55 60 53 40 40 42 42 41 43 42 41 38 43 51 60 62 64 60 61 66 67 67 66 67 60 57
32 37 37 42 42 45 47 47 47 47 44 42 41 37 34 42 46 45 44 53 56 53 49 42 43 47 50 51 53 48 46 51 58 60 65 64 62 65 69 74 67 69 74 68
33 35 38 37 40 42 45 49 47 49 43 46 43 41 38 39 40 41 45 48 52 55 51 49 53 54 52 59 60 63 58 58 61 61 68 72 68 69 63 67 68 73 75 83
32 34 38 42 42 42 43 48 53 50 50 47 46 46 37 35 35 36 38 44 46 48 52 49 49 53 55 57 63 65 63 61 68 68 59 73 77 79 82 81 75 78 78 87
33 38 37 42 44 43 46 50 55 52 51 44 48 47 34 34 32 29 32 36 40 41 40 43 46 52 55 59 66 65 64 63 62 64 70 75 75 82 85 87 88 88 87 91
37 36 40 46 48 46 49 53 50 55 60 54 42 37 31 27 29 32 35 34 35 37 34 33 41 45 47 51 57 69 69 69 61 54 52 55 63 73 81 82 83 87 93 94
33 35 43 49 51 51 51 52 52 50 52 51 42 39 32 28 28 31 37 38 34 36 36 28 26 31 36 45 59 71 70 58 47 45 49 59 76 84 83 84 88 88 90 94
31 33 40 50 53 51 55 55 54 48 51 49 47 41 38 33 26 30 31 35 34 33 33 34 27 28 29 30 36 45 52 36 36 41 56 71 78 79 80 82 87 92 95 98
32 38 44 44 50 51 52 51 55 58 49 51 51 42 38 35 26 29 34 35 35 33 36 40 34 32 23 20 22 23 28 36 44 67 74 71 73 75 76 79 91 94 96 97
34 39 44 41 46 50 52 52 52 51 49 49 55 42 41 36 30 31 32 30 30 31 33 35 33 31 31 31 33 38 43 52 65 68 66 60 58 60 69 77 87 91 90 87
39 40 39 37 37 44 49 45 48 48 48 49 46 37 33 32 36 33 30 28 25 27 29 30 31 35 37 39 41 47 49 52 56 56 54 51 51 55 62 69 73 74 77 76
45 45 44 39 37 40 36 40 43 44 44 47 41 38 36 33 29 26 32 33 31 31 33 35 37 38 38 39 42 46 46 45 44 43 40 38 41 47 52 59 62 69 74 80
50 46 44 46 46 41 39 36 37 43 46 43 33 29 31 31 28 25 33 35 39 39 38 39 39 39 38 37 38 41 40 37 33 32 34 34 34 42 52 61 64 70 77 78
56 54 51 50 52 51 49 43 45 49 45 38 35 27 28 27 27 27 34 41 44 44 42 41 41 41 40 39 39 37 35 31 31 29 29 34 42 49 54 60 67 75 83 76
58 57 57 61 54 60 38 47 49 47 36 32 32 29 26 28 31 29 30 35 40 44 45 45 44 42 41 39 37 34 32 30 29 32 38 43 47 51 58 67 73 79 78 85
54 57 64 69 59 44 38 42 41 41 27 31 41 34 29 29 29 30 31 31 33 36 41 41 41 41 40 37 34 32 29 30 34 39 42 47 52 59 65 72 77 84 88 85
58 59 59 65 62 55 40 37 39 37 30 29 46 47 45 39 36 34 37 38 38 40 41 41 41 38 35 34 32 31 33 37 41 46 51 56 60 63 68 72 72 76 78 77
66 65 62 59 59 51 43 44 43 44 25 29 39 37 38 41 39 40 40 39 40 42 41 37 36 35 33 33 35 37 41 46 51 53 55 57 58 60 63 68 72 72 72 72
63 67 69 62 66 60 44 46 40 30 24 31 36 34 37 38 40 41 41 41 41 39 37 35 34 34 37 40 43 47 51 54 57 59 59 60 63 69 71 66 62 58 50 43
69 60 61 57 48 44 40 33 33 25 25 32 33 35 37 38 40 40 40 40 38 36 36 37 38 41 45 48 52 55 59 61 63 63 61 59 58 56 53 49 43 38 36 34
63 60 56 55 48 41 36 35 30 22 24 25 30 33 36 36 38 38 37 36 37 38 40 44 48 51 54 58 62 62 61 60 59 57 56 54 51 48 46 44 42 40 37 34
63 59 59 62 47 39 37 34 27 22 24 26 28 32 34 33 36 36 37 38 40 43 48 53 56 60 63 66 66 64 61 61 58 55 52 49 49 48 47 43 38 33 29 28
62 56 58 61 42 45 43 28 22 23 26 27 28 31 33 35 36 39 41 44 47 52 58 62 65 68 70 71 70 65 62 59 55 54 51 48 47 45 40 36 32 31 29 26

GFSCGP_prec_cthk_030.txt.gz
RH
31 32 29 30 30 36 37 40 44 46 44 47 50 52 53 55 59 49 48 42 45 42 39 39 44 44 51 52 52 54 56 56 53 52 49 52 61 61 64 62 59 52 49 48
33 30 28 28 31 34 37 40 45 43 41 41 44 45 49 52 55 56 52 42 40 43 45 41 43 46 48 50 52 55 56 58 59 56 51 53 57 62 60 64 63 57 52 51
36 32 31 31 32 34 40 43 42 41 39 42 46 41 42 45 50 55 55 51 45 41 43 42 42 42 39 41 45 49 53 58 59 58 57 60 62 63 66 73 69 73 62 55
36 33 34 36 36 38 44 41 44 39 38 45 41 41 34 39 44 49 51 51 50 43 39 39 40 38 38 39 40 41 44 51 55 58 64 61 59 63 68 77 79 73 67 65
32 32 35 37 38 40 45 44 47 49 44 43 38 35 40 36 39 42 44 48 51 47 40 36 37 41 44 44 45 47 48 50 53 60 60 64 69 69 67 66 78 74 71 72
35 33 35 41 38 40 42 44 46 50 49 48 40 36 38 39 39 38 41 42 49 53 52 47 41 46 46 48 54 56 56 61 62 63 64 68 76 78 77 73 72 69 74 80
31 33 35 38 41 39 42 42 50 51 53 51 44 42 37 37 34 34 36 41 46 50 52 56 58 53 55 57 56 62 67 71 72 70 69 73 69 76 83 82 85 88 90 89
32 37 33 33 43 46 40 43 47 57 55 45 46 40 38 34 33 30 28 31 36 44 49 51 52 54 57 64 64 66 65 71 72 68 70 72 71 76 80 78 86 94 93 92
32 33 34 35 43 44 48 44 47 52 55 49 45 39 34 30 27 29 30 29 34 39 43 45 49 51 57 61 62 67 71 74 77 73 74 69 68 65 65 76 82 85 87 88
31 35 33 37 46 50 52 49 49 50 56 51 45 40 36 30 29 26 28 34 33 37 39 40 38 38 43 56 63 61 67 74 79 78 69 60 54 55 68 89 88 89 90 91
32 32 40 36 45 53 53 51 49 53 49 45 47 42 35 34 35 29 29 30 33 35 38 37 38 37 33 36 42 49 56 62 67 71 57 50 49 65 79 78 84 86 86 91
31 36 36 33 43 49 55 52 53 55 53 49 49 38 35 34 37 32 28 33 34 35 36 36 36 40 39 36 32 34 42 49 50 42 42 47 66 70 65 63 62 71 82 83
35 36 38 36 37 45 50 51 52 53 54 46 53 41 37 34 36 34 27 30 31 31 32 35 37 45 39 31 33 33 32 34 39 44 55 62 60 65 67 61 58 62 61 65
32 32 31 37 33 39 48 48 49 50 52 44 43 37 39 38 36 33 33 33 29 29 30 29 34 36 37 39 39 40 40 43 49 50 52 56 55 54 53 49 51 54 58 60
36 36 31 31 36 37 36 42 46 47 43 45 38 42 38 34 34 40 31 27 33 34 34 33 36 41 44 46 45 47 47 52 57 53 49 48 44 40 41 43 46 52 59 65
41 43 41 42 41 41 38 35 38 37 37 36 34 33 36 31 29 31 29 23 31 34 36 41 40 44 48 50 51 48 48 48 47 45 39 35 34 36 36 41 49 55 59 62
46 45 48 45 46 45 51 38 34 32 30 31 36 36 36 31 28 29 32 29 28 37 41 44 47 49 48 47 48 46 43 42 41 38 36 35 34 36 42 47 51 54 58 62
52 49 54 53 60 67 36 36 35 35 36 40 41 38 31 31 36 33 33 34 31 31 40 43 44 45 47 48 45 42 41 39 37 34 33 33 37 42 48 53 58 62 65 71
58 60 59 66 52 41 37 33 33 36 42 44 31 29 30 32 41 35 29 32 33 34 35 36 36 38 43 42 42 41 36 32 31 30 34 38 44 50 54 58 62 64 66 67
63 64 65 63 55 56 37 40 42 39 32 34 31 25 29 39 43 42 39 37 37 38 39 40 42 43 42 40 37 34 33 31 33 37 42 47 52 56 58 59 59 57 60 64
67 65 70 61 60 42 35 37 43 45 29 38 28 23 33 38 36 37 41 44 44 43 42 43 45 43 39 38 36 32 35 39 44 47 50 53 56 57 57 56 58 59 61 62
68 62 65 61 68 55 38 40 46 40 36 30 25 23 34 37 37 40 42 45 45 45 45 45 42 41 39 37 36 39 44 49 51 53 54 57 57 56 56 56 53 50 48 44
77 60 59 51 46 42 40 40 48 42 34 33 23 25 34 35 36 39 42 44 44 44 43 43 41 39 40 41 43 48 53 55 55 57 56 54 51 50 47 45 44 47 48 46
57 65 66 60 49 49 47 45 44 41 35 33 23 23 29 33 35 37 39 40 41 41 40 40 39 41 45 48 52 56 58 58 57 54 54 51 48 47 46 45 45 45 42 38
48 66 65 59 54 52 56 53 42 41 37 31 23 25 27 32 34 35 37 38 39 40 40 41 44 49 53 56 58 58 59 60 58 55 52 50 49 45 44 45 42 39 36 33
47 58 64 60 56 58 56 49 48 44 37 26 23 26 29 31 34 36 38 40 41 42 44 47 51 56 60 60 60 62 62 60 58 55 53 49 46 46 47 45 45 39 35 31

GFSCGP_prec_cthk_033.txt.gz
RH
29 29 31 34 38 38 46 41 42 49 58 42 50 51 63 48 53 44 49 45 42 41 40 40 51 48 51 50 46 48 48 56 64 68 59 56 53 61 80 80 79 67 55 49
35 30 28 34 32 31 36 39 37 46 39 32 42 48 60 53 49 53 49 41 44 40 40 40 41 52 54 51 51 54 54 54 58 55 58 55 56 61 67 72 75 66 58 52
32 37 31 27 28 33 38 40 45 41 48 32 33 41 46 50 45 53 52 53 44 42 41 37 40 46 49 54 53 58 59 61 63 65 63 55 53 62 66 62 68 68 66 67
33 38 28 25 36 34 42 35 50 40 34 43 41 49 46 45 44 45 50 53 53 41 42 42 38 38 38 40 44 47 53 56 58 61 61 59 63 63 67 69 73 76 78 77
37 34 30 30 36 39 45 53 44 46 44 45 39 37 42 38 46 45 42 50 47 49 41 37 36 35 33 35 38 42 47 49 55 54 56 60 64 66 70 68 67 70 75 78
40 35 31 32 37 39 43 42 43 47 48 50 44 37 49 40 38 45 53 47 49 48 50 47 41 37 38 40 39 42 48 49 54 60 64 62 68 71 76 80 81 77 76 76
41 37 32 33 43 39 40 43 49 53 51 48 45 38 39 49 39 39 41 48 56 52 52 55 57 55 57 54 48 51 53 54 58 62 69 67 68 77 77 77 78 82 81 82
43 39 32 30 34 44 42 42 46 72 71 54 49 35 31 38 41 37 33 34 37 53 53 54 56 60 62 61 64 65 65 68 69 74 70 77 69 76 79 73 75 76 85 90
45 38 38 36 37 36 47 49 37 45 49 50 52 40 36 38 33 32 34 35 34 32 41 52 56 59 64 65 66 64 68 70 73 72 81 85 76 75 75 68 63 68 71 78
44 44 42 41 40 39 39 51 50 50 68 59 42 39 42 35 32 32 27 35 34 37 40 43 50 56 63 64 67 64 66 71 74 75 81 90 85 75 72 64 61 65 75 73
43 40 44 45 39 39 39 41 46 50 48 57 51 44 41 40 34 36 37 34 30 33 38 41 42 44 48 53 56 59 63 67 69 70 72 70 74 73 68 59 60 70 64 64
43 42 42 48 42 35 49 48 49 53 57 56 54 49 45 41 38 39 33 35 31 30 35 39 41 45 44 45 48 50 53 53 59 65 64 66 63 54 52 68 70 70 69 70
45 39 48 49 45 40 40 54 56 56 53 62 72 45 46 44 37 36 38 36 34 28 29 33 36 40 42 46 50 52 49 47 50 56 61 60 47 55 62 62 61 60 57 55
38 39 37 44 37 45 41 37 48 51 62 52 54 47 47 47 44 43 43 42 34 31 30 35 38 35 38 42 44 47 51 50 50 50 51 56 58 60 62 59 55 56 54 54
42 46 42 38 39 41 40 40 43 49 50 55 49 48 42 41 46 40 42 46 35 26 31 35 43 43 42 42 46 49 46 46 48 55 61 65 66 61 55 51 44 42 42 46
43 47 43 41 38 40 40 41 41 43 44 44 47 45 41 41 45 40 36 28 31 27 28 37 43 44 47 50 52 52 54 57 63 60 57 54 53 50 44 40 41 42 47 51
51 51 52 47 40 40 44 38 44 41 39 41 42 37 40 38 46 41 35 29 29 32 31 37 39 43 48 50 55 57 59 59 56 55 52 48 45 42 40 38 40 46 48 52
70 60 59 54 57 63 37 37 38 38 37 36 34 32 36 46 45 36 29 32 35 32 31 35 42 45 49 50 57 58 54 52 51 49 46 44 40 36 35 40 45 49 53 57
73 65 64 62 57 42 34 39 41 38 37 38 36 40 45 47 37 30 29 30 38 37 36 36 36 40 42 46 46 44 48 49 47 43 38 36 34 38 43 47 51 55 58 60
70 71 69 61 62 57 36 41 41 37 38 40 41 46 38 34 31 24 31 37 43 43 36 35 37 38 36 37 41 46 46 43 38 37 34 37 41 45 48 50 53 55 55 54
80 75 73 67 62 46 38 45 51 47 31 50 46 38 34 28 24 31 36 39 38 39 42 41 40 39 41 44 46 44 41 38 35 36 40 43 45 48 51 52 52 52 51 48
84 73 72 66 69 63 42 45 41 30 39 46 40 33 28 27 26 30 34 36 37 38 40 42 43 43 45 44 42 40 37 37 41 44 46 48 49 51 52 52 49 46 47 47
71 82 71 59 54 48 46 43 44 38 43 48 40 35 31 28 26 32 34 36 38 41 43 44 43 42 42 41 39 38 40 44 47 49 51 52 52 53 52 49 47 47 46 46
58 58 70 71 59 55 52 48 53 49 44 45 43 40 34 30 27 32 34 36 37 40 40 39 41 42 41 40 40 43 46 48 51 53 54 54 54 52 49 48 45 44 47 43
50 54 57 55 59 63 59 54 54 56 52 45 41 38 35 29 27 30 33 35 38 39 38 39 39 40 40 42 45 48 50 51 54 57 57 54 52 52 51 48 46 45 43 38
50 53 52 50 46 58 63 66 65 57 53 48 42 39 35 27 29 32 34 35 37 37 39 40 42 42 44 47 51 55 57 60 61 59 55 52 53 53 51 52 53 49 44 40

GFSCGP_prec_cthk_036.txt.gz
RH
28 27 25 26 31 30 38 43 46 46 47 43 41 73 67 66 64 57 51 44 38 41 40 42 40 36 42 45 46 48 48 51 58 66 55 58 50 50 51 65 77 71 77 63
34 32 30 29 34 30 31 36 41 42 42 39 33 52 62 64 56 46 48 41 38 37 36 37 39 39 41 39 41 45 49 51 56 56 48 46 44 43 45 59 70 80 92 57
36 35 42 31 31 31 28 29 34 40 48 42 31 29 57 66 60 49 40 40 42 38 34 34 35 38 42 41 39 42 45 45 48 52 46 49 50 46 45 54 55 65 82 64
39 34 42 36 26 28 31 30 39 44 43 36 38 43 46 54 57 56 42 45 42 42 39 34 33 36 40 40 40 41 41 40 43 49 53 57 52 50 53 57 58 61 67 73
36 37 37 33 24 30 35 42 41 45 42 42 44 45 38 41 44 52 50 44 49 44 43 37 31 32 36 36 38 39 43 45 48 49 54 61 59 53 57 66 70 69 66 65
38 38 39 37 27 33 38 41 49 50 37 44 39 44 40 37 37 44 52 62 53 53 45 47 46 42 38 38 36 38 40 44 47 54 55 61 62 62 67 75 73 74 77 77
39 37 43 41 31 35 40 44 47 49 49 47 46 45 39 38 43 47 50 49 66 58 50 48 49 50 48 46 45 44 43 48 52 55 56 65 69 70 71 75 75 74 82 76
43 41 42 40 32 41 41 38 46 60 66 59 64 48 40 34 37 44 39 37 44 54 46 49 47 50 52 51 51 52 53 53 56 58 60 62 72 70 81 81 83 78 80 65
44 42 40 42 32 35 47 42 38 46 60 70 79 56 40 34 34 35 32 33 32 34 45 48 65 51 57 58 55 55 59 59 61 64 67 67 74 80 81 81 91 78 75 66
41 49 43 44 42 36 33 46 56 48 57 67 48 49 45 40 40 33 30 29 36 39 37 41 57 53 61 65 63 57 53 53 62 65 66 69 66 76 83 81 90 90 79 67
39 46 47 47 49 42 39 38 48 60 50 59 61 48 43 44 39 38 35 33 31 32 37 30 34 45 56 63 72 79 56 76 63 71 70 76 71 79 82 80 83 72 67 68
38 43 50 49 47 43 40 42 34 50 57 55 62 45 45 43 45 40 38 35 32 32 37 34 31 34 38 45 58 65 69 66 66 65 71 89 80 81 79 79 61 55 71 68
41 42 54 51 53 53 46 34 54 50 50 54 71 49 48 48 44 40 39 35 34 33 33 34 30 30 33 37 45 53 58 60 62 63 68 80 71 70 81 60 58 65 68 64
50 47 44 53 47 54 48 39 44 56 64 60 58 47 47 46 45 41 40 46 39 35 35 30 34 29 28 30 36 43 49 53 54 59 60 59 65 70 58 60 64 67 64 59
55 52 49 49 48 47 48 46 40 44 64 66 51 59 48 48 42 52 54 46 49 42 38 32 37 41 36 33 34 37 38 42 53 59 59 51 53 58 67 67 64 57 53 47
57 58 57 57 54 45 45 48 45 41 31 46 48 48 40 47 47 44 44 44 39 40 40 34 33 43 44 44 42 39 39 45 50 52 54 63 66 65 59 55 52 44 43 41
58 55 63 63 54 50 45 40 43 40 46 45 42 44 42 45 42 42 41 38 37 38 31 29 33 39 45 46 45 47 47 50 55 60 66 64 60 56 53 50 46 43 40 41
70 60 61 73 67 59 43 39 38 41 42 42 40 39 41 39 38 40 46 53 41 34 31 33 41 36 39 42 44 50 53 54 56 63 57 54 54 53 48 42 38 37 42 46
75 72 69 69 61 46 42 39 38 43 36 36 38 41 40 38 34 41 44 42 39 36 34 33 39 44 41 41 44 46 50 51 49 49 47 48 48 44 38 36 38 42 45 49
87 79 81 70 64 65 49 42 39 40 50 42 47 46 43 42 52 46 41 35 27 26 32 37 43 45 41 39 39 41 42 43 40 41 47 46 40 37 37 41 43 46 48 49
87 88 84 78 73 58 48 39 48 57 40 42 51 45 44 52 50 40 34 26 24 29 37 39 39 40 44 42 40 40 38 39 45 46 41 38 35 38 41 43 44 47 48 49
80 98 88 82 79 72 47 45 48 49 45 52 41 57 50 44 39 33 27 25 28 33 37 38 38 39 40 40 40 40 43 44 42 39 37 37 40 42 44 45 46 49 51 50
79 77 91 86 69 60 49 53 52 50 50 46 54 50 46 42 37 33 30 27 31 36 38 39 40 41 43 44 43 43 42 41 39 38 40 42 45 47 48 51 52 54 54 53
66 80 75 81 72 79 58 61 52 55 55 53 55 56 50 48 41 38 34 27 30 36 40 42 44 44 44 44 43 43 43 42 41 42 44 46 48 49 50 54 54 53 52 51
43 74 79 68 66 66 63 67 65 63 60 61 57 54 46 45 42 43 38 28 32 37 40 43 46 47 47 45 45 46 45 44 45 47 50 52 52 54 56 55 51 51 50 52
45 52 61 60 55 59 63 71 67 61 62 62 61 55 54 51 46 43 37 31 34 38 41 45 49 50 49 48 48 49 49 49 51 54 57 59 60 63 60 55 53 54 56 57

GFSCGP_prec_cthk_039.txt.gz
RH
33 31 28 24 23 28 31 32 36 43 47 58 55 55 45 46 61 56 44 43 44 43 37 40 36 43 46 45 44 47 50 54 58 52 51 52 52 54 59 64 63 59 62 61
36 34 25 24 27 28 33 33 34 40 50 48 54 52 46 47 56 53 41 43 44 43 38 36 36 37 37 37 40 42 44 45 45 45 44 46 47 47 50 53 56 67 73 76
38 30 31 36 35 33 31 32 29 38 46 49 46 62 59 55 58 64 54 44 41 36 36 34 35 34 34 34 34 37 38 41 41 40 43 44 44 45 44 41 46 70 75 76
41 36 36 41 42 36 28 26 27 38 44 47 45 53 59 57 61 64 55 48 44 38 38 34 31 32 31 28 28 29 31 34 36 40 39 39 39 41 43 41 46 57 64 64
40 39 39 40 41 33 25 31 33 35 42 40 37 52 47 53 56 59 58 58 51 45 41 36 29 27 32 32 29 28 28 32 36 39 40 38 38 44 44 46 49 60 69 68
43 42 38 37 37 31 25 33 38 39 43 50 38 49 52 54 53 57 58 61 57 44 42 41 37 39 34 36 40 34 32 37 38 39 43 49 52 58 57 52 56 68 76 80
43 42 39 39 39 37 31 37 49 50 56 51 42 49 47 48 45 45 50 50 51 47 42 39 41 40 40 36 35 38 41 41 44 47 46 46 51 61 67 62 63 64 79 88
47 48 41 38 40 41 31 36 50 51 61 52 50 56 50 51 45 39 43 47 41 42 40 38 39 44 42 38 37 38 42 43 46 49 52 55 53 56 64 67 71 82 90 83
47 43 42 39 39 44 34 41 37 46 56 65 60 52 48 48 45 42 38 41 39 37 39 44 43 42 54 48 43 43 44 51 53 52 57 60 59 59 60 66 81 81 79 78
42 51 44 42 42 44 37 38 51 50 70 67 58 57 55 51 43 43 42 39 37 33 37 40 45 43 44 40 38 47 57 62 63 59 54 55 58 56 62 72 80 86 78 80
43 49 49 48 46 46 40 39 46 49 65 70 64 53 43 51 53 45 41 36 34 34 34 40 44 47 47 42 46 55 60 66 63 70 65 74 70 62 69 77 91 91 94 82
46 50 55 49 50 49 41 43 40 57 53 59 71 61 42 49 48 45 46 38 37 31 30 30 33 39 39 46 55 56 57 57 70 67 60 73 78 90 94 90 96 97 77 72
52 49 55 52 47 48 49 48 44 44 48 52 67 55 52 46 50 45 45 44 42 37 34 31 30 28 27 30 39 46 50 56 72 67 64 85 83 73 69 61 80 80 68 60
71 53 48 47 45 50 51 48 45 47 58 52 54 46 47 48 53 46 46 42 42 40 41 36 34 27 21 23 27 35 41 50 59 63 67 61 53 52 57 66 64 65 63 72
78 69 50 43 46 48 55 54 50 47 44 46 46 53 48 48 51 55 52 49 49 49 47 42 38 35 30 26 24 25 28 34 44 45 42 43 49 55 54 59 62 63 71 67
81 75 62 57 48 44 52 54 52 51 46 48 46 47 46 47 44 49 50 44 47 44 40 39 42 37 39 31 27 28 30 29 32 34 36 41 44 48 54 60 67 63 59 52
97 85 70 61 59 54 58 48 51 50 47 47 48 38 38 44 52 50 50 47 44 43 44 42 44 39 30 28 29 32 37 35 33 33 37 41 46 55 59 55 52 51 49 45
92 97 79 71 68 77 42 44 48 46 48 45 43 42 42 45 44 48 45 49 46 38 36 42 42 35 34 33 37 40 39 40 43 43 44 51 54 57 51 45 46 46 41 38
82 97 94 81 69 65 55 47 45 45 44 42 38 38 40 40 43 44 42 40 43 42 45 45 41 40 35 34 40 45 49 46 46 49 55 51 47 44 43 42 42 39 37 37
74 96 98 96 80 72 53 53 45 42 43 38 40 38 41 42 46 45 46 38 37 38 41 41 36 29 35 41 46 47 47 46 48 48 48 47 45 42 42 41 37 35 38 41
76 77 95 97 95 66 54 52 47 51 45 39 38 39 39 44 43 45 43 46 47 48 44 36 28 31 39 40 41 45 47 46 44 42 40 39 39 44 42 38 37 39 42 43
74 76 87 99 90 81 66 58 50 43 43 47 48 43 43 47 50 51 44 51 48 44 36 29 31 34 38 39 40 43 44 43 43 42 43 46 46 42 39 38 41 42 44 45
74 60 69 75 91 76 69 75 63 60 57 58 56 47 51 53 54 50 51 45 42 37 31 31 33 36 39 40 40 41 43 46 48 49 50 49 47 41 40 41 44 46 48 49
61 54 61 60 69 76 74 70 68 67 68 66 69 56 58 55 52 52 52 46 42 39 36 34 35 38 40 43 44 46 47 47 49 49 49 47 45 45 46 49 50 52 55 58
54 51 51 57 62 80 70 67 75 68 70 62 63 65 57 54 52 48 47 45 46 46 43 40 39 42 43 45 48 48 49 48 48 48 48 49 48 50 53 56 59 64 65 66
42 46 52 56 54 69 67 64 76 75 73 72 72 70 66 58 54 51 53 51 49 46 44 42 43 46 48 50 51 52 53 52 49 50 53 55 56 55 59 67 70 69 67 64

GFSCGP_prec_cthk_042.txt.gz
RH
36 37 35 24 22 22 30 33 35 33 38 46 52 44 45 51 57 59 40 37 40 38 37 31 36 44 44 46 51 58 62 63 61 63 64 65 64 61 61 62 62 61 62 61
38 37 31 25 24 24 30 32 33 34 40 48 55 50 50 46 53 60 52 39 41 43 36 32 30 35 35 39 43 47 48 51 53 51 53 55 53 51 55 58 59 57 63 60
39 39 29 30 28 32 33 33 32 35 37 42 51 54 51 46 52 57 59 46 44 42 38 31 28 29 31 33 34 35 37 37 39 40 43 45 46 46 49 48 49 57 64 63
41 41 34 36 38 38 38 32 35 30 34 42 40 50 49 46 50 57 63 52 45 44 43 34 30 25 26 26 28 30 34 36 33 36 40 43 41 38 41 41 43 51 54 60
40 43 42 39 39 41 37 36 35 32 35 38 38 43 36 46 49 51 60 54 54 47 44 37 28 27 26 25 26 28 33 38 36 35 38 39 38 44 42 43 47 49 53 58
39 41 42 39 40 42 40 38 34 36 38 43 38 41 41 47 46 46 54 52 51 53 50 42 39 38 34 33 33 33 33 38 43 43 41 42 42 45 47 45 44 45 48 55
40 42 43 43 42 41 41 40 45 46 50 48 39 44 38 35 42 44 48 50 46 51 51 47 43 41 40 37 34 35 37 38 41 44 46 46 45 46 50 54 57 58 55 59
37 44 43 41 43 42 40 41 50 51 58 43 43 42 35 36 40 43 51 46 48 46 40 42 40 39 39 39 38 37 38 40 40 40 41 44 49 52 54 62 67 74 75 76
40 39 38 42 43 43 41 46 42 45 53 56 45 39 35 37 38 46 44 47 45 42 38 36 38 39 44 50 48 39 41 40 39 39 44 45 51 55 58 62 68 76 77 83
36 42 39 42 45 43 42 42 48 50 55 59 51 43 39 38 42 47 40 45 44 41 40 37 36 36 42 45 53 51 49 46 47 53 56 60 55 59 62 61 64 74 76 83
39 41 42 46 46 48 46 43 46 45 58 61 57 46 38 39 41 46 42 43 47 43 40 33 34 35 40 44 48 46 58 57 58 64 69 70 77 81 78 79 78 88 90 95
55 46 45 40 42 47 47 45 45 51 54 57 59 42 44 39 41 40 45 42 42 45 41 38 36 37 41 43 46 45 47 51 55 66 76 86 87 85 81 90 93 87 98 97
73 65 56 47 45 44 49 48 47 50 52 54 62 46 35 49 46 44 43 44 45 44 42 41 41 37 33 35 38 40 40 35 39 56 74 82 85 76 82 77 84 78 84 96
76 83 71 59 51 52 52 51 47 48 57 52 52 40 38 42 46 47 43 41 43 41 44 41 40 41 36 35 34 33 31 30 39 49 54 65 67 63 62 66 66 69 67 76
73 91 90 70 61 56 52 53 52 49 49 55 47 46 39 42 44 42 43 46 46 45 43 42 41 39 39 33 31 30 30 26 28 32 35 44 56 50 55 57 60 58 66 70
75 86 94 71 64 59 54 51 52 51 52 52 51 47 41 39 47 51 53 44 45 46 47 44 43 39 37 36 35 28 22 24 30 33 41 50 51 52 54 56 60 67 71 70
69 75 89 81 79 72 68 40 47 53 55 52 56 49 39 39 39 47 51 48 44 47 48 43 40 35 36 36 39 32 28 28 34 42 45 48 50 53 57 59 62 66 67 62
64 62 85 91 84 96 45 49 44 48 51 54 55 51 45 44 35 36 44 44 48 46 44 44 43 38 45 44 42 34 33 35 38 49 54 54 54 56 57 65 66 59 51 49
63 71 74 83 94 83 56 50 48 51 46 47 48 50 49 44 44 37 34 37 39 39 39 37 42 42 44 40 39 38 32 40 46 51 56 58 58 63 66 64 56 51 51 50
65 67 68 84 91 96 75 57 54 57 54 44 47 52 54 48 45 40 43 42 38 40 42 38 37 44 44 41 41 36 35 44 48 48 50 55 58 59 54 50 48 47 45 48
77 83 83 87 90 79 83 74 59 68 56 61 56 53 49 47 44 40 39 40 42 41 42 43 44 46 46 46 43 36 41 45 45 46 47 49 48 45 44 43 42 43 46 43
74 86 82 88 90 86 80 79 74 74 67 70 64 56 50 51 48 43 40 38 44 46 46 44 45 46 49 40 37 39 41 41 41 44 45 42 40 40 41 42 46 47 42 38
68 67 78 76 66 55 63 82 78 77 73 72 68 57 51 54 53 50 46 50 54 53 51 45 49 52 44 37 35 38 39 40 42 43 42 42 42 44 48 50 49 46 44 44
51 68 69 72 59 58 57 65 80 75 73 68 62 56 51 60 58 59 50 51 53 57 56 50 50 50 44 41 40 42 42 44 44 45 47 49 51 53 53 52 51 49 48 48
65 71 69 71 56 52 52 56 77 71 67 70 68 63 60 66 66 67 65 60 55 53 55 52 49 47 46 45 45 46 46 46 49 51 54 56 57 54 54 57 59 60 60 61
72 72 84 75 52 49 47 51 62 67 64 71 69 67 66 70 74 70 69 69 64 60 57 53 52 48 48 46 47 48 50 52 53 55 57 58 60 61 62 64 66 69 71 72

GFSCGP_prec_cthk_045.txt.gz
RH
34 39 40 40 30 25 25 31 31 32 34 38 44 55 50 50 50 54 51 36 34 30 31 33 34 40 44 50 59 60 68 83 91 90 89 90 87 85 77 74 77 81 77 71
40 35 40 39 32 28 29 32 31 31 35 38 43 54 49 47 46 53 53 44 33 32 31 29 29 31 36 40 45 50 56 59 65 69 73 74 76 72 70 71 74 76 69 64
41 38 39 39 33 31 29 31 34 34 34 38 47 49 53 45 46 52 55 51 38 33 32 30 25 26 28 31 37 41 43 50 55 61 65 66 66 63 63 65 67 65 62 60
42 39 41 40 35 32 33 32 37 40 35 39 40 49 41 51 43 47 52 53 45 35 33 31 26 25 22 25 30 34 35 37 43 50 52 54 57 57 61 60 57 60 62 63
42 41 41 44 38 39 35 41 43 43 41 37 38 43 37 44 42 44 47 51 52 46 34 28 26 24 22 21 24 27 31 32 36 41 43 44 46 45 48 49 50 52 56 63
42 42 42 42 39 43 42 43 42 43 45 46 38 40 38 41 38 37 42 43 47 51 42 40 35 36 31 26 25 26 28 32 35 36 38 39 40 42 45 47 48 49 51 54
39 40 41 43 44 42 46 45 50 48 51 47 36 45 38 32 33 33 39 40 41 46 47 46 43 39 36 34 29 29 31 33 37 39 37 39 41 45 49 51 53 53 52 53
38 43 41 42 44 43 45 48 55 52 57 44 43 48 36 30 31 29 33 35 39 41 44 44 44 42 41 36 33 32 32 32 37 41 43 44 44 46 52 52 59 62 63 63
39 38 33 36 40 45 46 52 45 48 54 57 45 38 32 29 29 31 33 38 40 38 41 41 42 42 45 45 42 41 37 36 36 39 42 46 50 51 52 56 56 58 60 69
34 38 33 33 37 43 47 49 53 56 57 63 50 47 38 27 28 34 34 37 37 33 36 36 38 40 41 45 50 59 53 45 41 40 43 47 51 57 64 62 63 63 66 73
38 37 35 33 40 46 49 50 50 51 59 54 50 43 34 27 30 34 38 39 37 34 34 33 31 36 38 42 49 51 62 58 58 62 64 68 71 74 77 80 75 75 81 83
54 46 46 39 41 45 48 51 53 57 55 61 58 38 35 32 38 38 40 40 37 37 38 38 36 34 40 41 41 46 51 53 55 59 64 67 77 83 86 88 83 91 90 93
60 67 60 46 44 47 47 48 51 56 59 50 59 41 33 33 34 36 36 34 36 40 38 38 39 40 39 39 38 40 45 47 44 49 49 53 60 77 78 79 69 77 81 84
65 69 73 77 72 73 67 60 55 56 61 57 48 45 39 36 32 33 39 40 36 39 39 37 39 37 37 38 34 34 34 35 37 39 40 42 46 52 62 72 64 65 77 75
71 76 73 72 71 68 66 64 59 52 50 53 49 50 44 39 38 32 35 40 38 39 37 36 38 39 39 38 37 34 33 33 33 32 33 33 38 46 56 70 66 68 65 72
78 78 81 74 65 66 65 60 59 59 57 56 55 52 48 45 43 39 38 38 39 40 42 39 40 44 42 40 42 41 40 37 34 31 28 36 40 50 59 67 64 64 68 71
69 76 82 79 75 69 57 63 66 62 56 56 57 57 54 50 50 47 43 39 42 43 48 49 45 43 44 38 41 40 44 43 39 33 29 35 46 52 57 60 61 61 62 71
59 67 74 69 65 69 37 48 59 65 58 56 54 55 59 55 49 44 39 39 37 42 47 50 46 44 43 44 45 41 44 42 40 39 35 34 44 51 58 61 61 60 65 71
51 56 61 63 66 49 40 38 49 84 66 62 55 52 52 55 51 44 41 40 38 35 40 45 46 43 43 44 45 45 42 41 41 39 34 38 46 56 58 60 62 64 64 70
58 59 63 65 66 58 25 29 47 68 66 61 62 55 49 49 52 43 43 42 43 41 38 39 40 40 42 40 41 44 44 41 44 42 40 47 53 56 59 64 67 73 72 64
71 71 67 66 74 53 37 37 53 80 74 72 67 65 57 46 40 39 50 46 43 42 43 44 43 43 44 47 48 46 43 47 48 46 49 52 56 59 62 67 65 61 59 59
65 70 69 69 75 65 46 54 63 73 84 76 78 66 59 52 45 43 45 51 47 44 42 43 44 42 49 54 52 50 51 54 51 53 52 53 55 60 64 59 56 55 55 55
67 58 65 58 55 60 65 59 65 68 75 81 79 72 60 56 55 55 52 53 50 46 45 43 47 49 50 56 57 55 60 58 54 52 53 54 54 56 53 52 52 52 55 58
59 55 55 51 39 55 58 67 62 62 69 82 78 76 70 66 63 60 52 58 57 54 53 53 56 60 61 60 62 65 65 60 54 53 56 60 57 54 55 57 59 61 64 65
66 70 59 50 39 61 62 68 59 61 70 82 76 76 76 70 66 61 58 59 62 60 63 65 67 65 67 65 62 61 60 58 57 58 59 62 63 64 65 67 69 70 71 72
72 70 68 63 64 79 72 70 67 62 69 75 79 74 74 72 70 66 70 66 69 70 76 75 75 71 70 69 65 62 59 60 61 61 63 66 69 70 71 72 73 75 78 78

GFSCGP_prec_cthk_048.txt.gz
RH
40 39 38 43 42 37 30 29 31 31 33 34 33 33 32 44 49 52 54 51 38 34 34 32 31 37 41 53 59 75 92 91 98 97 99 92 88 88 86 85 88 86 85 81
42 37 38 43 43 40 34 31 31 31 32 37 37 36 34 40 47 48 53 51 43 37 35 34 33 32 37 42 50 54 66 79 92 97 99 97 89 90 90 92 94 90 88 85
43 39 39 43 45 43 39 33 32 31 36 41 43 38 38 36 43 45 48 51 44 37 35 35 34 29 32 35 40 42 50 59 69 80 85 87 89 86 79 86 85 81 83 80
42 40 40 40 42 41 41 32 28 29 39 45 43 48 34 33 35 41 44 48 45 42 34 32 31 29 25 28 31 36 38 48 56 60 68 66 69 67 68 74 71 72 73 73
43 41 42 43 43 42 41 35 33 39 44 44 41 45 33 38 31 33 38 45 46 45 40 32 28 27 27 23 25 29 34 36 42 46 48 50 54 58 61 62 60 63 65 66
45 44 43 40 43 43 39 40 46 50 50 53 42 45 38 35 31 27 32 38 43 43 44 38 31 30 30 26 24 27 31 33 37 40 42 45 45 46 51 50 52 56 60 64
46 46 46 44 46 47 43 47 58 58 61 57 41 46 36 30 27 26 28 33 39 40 43 42 39 35 36 34 31 30 31 34 38 40 42 43 44 47 48 49 48 50 52 51
44 46 45 45 46 48 48 49 62 62 64 51 48 51 40 33 27 25 28 31 35 35 38 41 39 39 34 33 31 30 29 31 36 41 42 43 46 47 52 50 51 55 59 55
40 40 36 39 41 45 51 53 47 56 61 65 51 45 38 35 28 28 26 29 31 36 36 37 38 38 37 35 35 34 33 32 33 35 40 44 45 47 48 48 49 54 58 58
35 38 36 40 43 47 49 49 56 60 60 64 57 52 43 35 33 30 30 30 33 38 36 36 38 37 36 37 38 39 44 43 36 35 37 40 44 47 51 54 59 62 60 55
31 34 33 34 43 45 48 51 52 55 61 61 57 49 41 37 34 33 31 32 34 36 37 35 34 33 34 37 36 37 44 49 51 50 48 49 51 52 52 56 60 68 71 65
49 47 47 38 36 43 45 47 53 62 56 65 62 48 38 41 43 41 43 34 34 36 37 34 37 34 33 34 34 36 41 42 48 56 58 61 69 68 66 67 73 81 77 80
58 62 66 50 42 49 52 53 56 55 55 55 62 53 41 43 43 41 40 39 35 34 36 35 38 38 35 38 39 39 42 41 47 55 58 55 50 52 55 58 68 79 77 76
59 68 64 77 65 61 64 58 60 65 65 57 49 50 48 45 45 44 42 39 36 40 38 36 38 38 38 40 38 38 36 32 37 37 39 40 41 42 45 52 58 63 77 75
59 65 69 66 66 59 54 58 60 62 64 65 55 52 51 45 45 46 45 41 38 34 39 39 40 36 36 39 40 40 39 38 33 35 35 32 30 32 36 41 49 58 72 76
60 63 69 73 66 65 52 54 56 58 61 58 54 49 50 47 44 47 45 45 43 39 38 38 37 35 35 41 44 45 41 40 40 37 37 35 34 34 33 40 50 57 65 69
68 70 69 69 69 70 63 48 52 51 50 51 56 54 52 49 46 49 48 48 48 46 46 44 44 40 41 39 41 48 44 43 40 40 35 36 37 37 35 39 50 58 62 69
59 67 77 76 68 76 41 43 46 48 43 46 46 44 54 52 49 43 49 48 48 47 44 41 41 47 46 46 45 47 48 48 45 45 42 40 39 38 36 40 50 59 68 74
46 67 70 71 71 48 31 25 29 37 29 38 40 45 57 56 50 38 43 51 49 48 42 39 41 49 51 51 48 47 47 47 46 49 53 48 43 41 40 46 52 61 70 71
54 59 66 68 72 59 24 26 33 39 40 45 48 55 62 65 55 40 44 45 49 50 44 41 42 43 45 49 48 43 45 50 54 55 55 55 50 45 48 51 55 57 61 63
70 70 71 72 72 48 33 35 45 50 51 50 55 54 60 66 63 57 52 42 44 50 53 48 44 45 44 46 46 46 44 48 55 62 60 59 59 53 51 49 57 58 59 64
70 77 74 73 77 59 37 48 56 61 54 52 55 61 64 69 61 58 55 46 42 41 46 49 48 46 45 46 47 49 49 53 62 65 65 67 67 58 54 51 55 62 68 70
72 64 67 63 52 43 42 42 46 64 63 59 63 63 65 75 72 65 60 58 50 46 46 46 49 52 50 51 55 58 59 64 66 70 71 72 74 64 62 62 63 69 68 65
66 66 65 64 48 49 39 33 48 49 61 64 69 65 79 84 83 77 70 63 61 56 56 55 53 55 59 61 66 70 66 72 74 79 78 76 67 64 65 68 70 68 64 64
63 64 63 56 50 48 42 47 41 47 66 74 73 75 83 90 87 83 81 73 67 63 63 65 66 64 65 68 68 72 77 79 77 74 69 67 67 67 67 67 66 67 69 71
66 66 69 62 67 65 62 62 60 64 69 81 82 83 82 93 88 84 84 80 76 72 71 70 71 72 73 77 75 77 77 77 76 72 71 72 74 74 76 75 76 80 83 84

GFSCGP_prec_cthk_051.txt.gz
RH
47 44 40 36 39 44 39 35 31 26 28 30 33 28 30 37 46 47 46 48 51 41 34 31 30 35 41 52 63 85 97 95 96 93 98 97 93 91 91 89 89 88 83 81
48 44 43 43 41 41 39 37 34 28 31 33 33 32 30 34 41 42 44 47 52 46 36 34 32 29 36 42 50 57 70 89 96 95 97 95 95 95 93 87 88 87 84 81
44 43 43 44 44 43 41 40 38 31 33 35 36 36 30 31 36 39 42 44 51 46 38 34 34 30 27 34 39 46 56 68 88 93 94 93 94 96 95 90 89 87 83 84
45 42 43 44 44 44 41 41 40 35 36 33 37 39 33 30 29 34 35 42 47 50 43 35 31 31 27 26 33 36 43 58 68 77 84 82 83 89 92 88 85 82 84 87
45 44 43 45 43 45 43 43 42 34 35 37 38 39 32 30 27 29 31 36 44 47 51 39 28 27 29 23 25 32 35 42 52 60 62 70 68 68 68 70 72 71 77 79
48 46 44 41 42 43 45 43 44 43 43 45 40 41 31 30 26 25 25 27 39 44 50 46 38 27 27 25 21 25 29 32 39 45 51 56 61 60 60 62 62 65 74 70
45 50 50 47 46 47 48 47 49 52 54 46 47 49 36 32 29 25 24 24 35 41 45 48 44 34 31 31 27 25 28 30 33 38 42 47 50 51 51 52 54 56 61 62
40 50 54 51 49 46 48 50 52 55 58 49 51 49 37 33 30 28 23 26 32 36 40 44 44 43 35 31 31 29 27 29 33 36 40 43 46 49 51 52 51 50 53 56
44 42 43 48 50 51 57 57 48 55 60 59 50 44 38 35 34 32 26 24 28 33 36 39 42 41 39 36 31 29 28 27 28 32 36 39 43 45 47 52 53 56 59 60
33 38 39 44 49 52 52 51 57 58 56 56 51 51 44 40 38 34 31 25 26 32 35 38 41 39 38 40 38 37 36 31 30 33 34 35 38 42 47 51 52 54 56 60
31 31 40 41 47 49 53 52 52 53 57 55 57 51 46 42 39 36 33 29 29 33 39 42 39 40 40 42 40 39 40 40 45 43 38 37 39 44 46 46 51 54 58 62
45 38 40 39 39 49 52 53 54 59 56 63 62 51 47 44 45 44 39 34 30 34 40 44 42 39 38 38 39 36 37 38 42 46 49 51 51 50 54 59 60 61 62 62
62 64 62 47 46 49 58 64 60 60 58 56 60 51 48 45 44 45 43 40 32 32 35 44 45 39 38 38 37 38 40 43 45 47 48 51 54 57 56 52 47 51 56 57
67 66 67 58 52 53 56 51 53 55 62 59 56 55 50 49 45 44 44 44 42 37 33 36 43 43 43 44 40 40 44 45 45 44 45 48 48 47 41 43 44 44 46 47
64 65 65 63 59 58 55 51 50 52 51 53 49 50 51 51 46 45 44 45 46 41 38 33 35 39 43 44 42 44 44 43 39 36 36 35 35 37 37 35 36 38 41 43
65 63 66 65 61 58 54 51 51 52 51 51 51 49 44 43 48 44 45 46 47 48 43 39 37 40 43 44 43 41 44 45 45 42 39 39 37 40 39 37 37 38 39 41
63 72 68 62 64 57 52 49 47 42 39 40 42 38 40 38 39 42 43 46 48 49 49 46 42 38 37 41 42 44 46 50 49 45 43 40 41 41 41 40 41 39 41 45
57 71 78 74 68 60 34 37 39 40 34 28 29 34 37 34 37 38 41 44 47 49 50 49 49 46 43 41 43 44 48 48 51 49 45 46 47 42 43 45 42 40 44 49
47 58 71 77 74 47 38 33 30 29 29 35 39 42 44 44 45 43 47 44 43 49 49 52 52 49 46 38 39 47 53 51 51 50 49 50 49 50 46 44 44 43 45 51
59 57 67 77 59 52 31 35 34 33 32 35 39 41 41 43 47 48 51 54 46 45 49 51 52 47 47 44 49 47 49 48 48 46 48 52 58 60 55 53 58 54 48 50
67 70 68 73 67 48 37 39 47 45 39 40 42 39 40 45 52 56 55 55 55 46 43 47 50 50 48 47 48 46 48 49 48 49 52 54 60 66 66 68 68 66 58 56
68 70 70 70 70 61 40 53 55 45 41 41 45 48 47 46 48 58 67 64 58 50 45 44 47 47 51 50 50 50 48 50 52 55 61 66 73 74 73 76 76 77 71 62
75 65 66 61 51 42 49 55 51 47 41 41 42 46 50 53 55 59 74 71 70 61 56 53 50 48 51 50 50 52 54 58 60 62 67 75 81 80 81 82 79 75 73 67
66 63 60 56 47 46 47 53 56 52 45 41 41 48 52 61 64 70 86 81 76 76 72 67 64 61 58 58 59 62 63 67 72 75 75 80 82 82 84 84 80 76 75 76
59 60 60 54 52 52 56 60 58 61 57 53 52 59 67 78 83 90 93 90 91 88 86 79 79 75 70 71 71 72 75 76 77 79 79 78 85 87 86 82 80 79 80 87
62 60 61 57 63 62 60 63 65 62 56 51 57 66 66 74 91 96 92 97 96 96 94 86 83 83 83 83 83 81 83 85 87 85 84 87 91 86 83 84 82 84 86 89

GFSCGP_prec_cthk_054.txt.gz
RH
46 46 39 37 38 42 39 40 38 33 30 28 27 26 29 31 33 38 40 43 44 47 44 31 28 29 36 41 54 60 83 91 92 92 96 96 96 95 93 93 91 89 85 85
52 46 42 43 43 43 39 38 39 37 34 30 25 27 30 31 31 35 39 40 42 46 46 34 30 28 30 37 44 51 59 77 92 92 94 95 94 94 93 93 91 89 87 88
49 43 44 48 48 48 42 38 40 41 38 30 30 29 29 30 30 34 36 35 41 44 42 37 31 30 28 32 37 45 53 64 87 96 95 97 98 97 96 91 89 90 91 90
48 44 46 46 46 47 46 41 42 42 40 32 33 32 29 30 29 30 31 36 37 41 44 42 33 30 29 28 32 35 47 57 64 84 90 95 96 97 94 94 89 92 94 89
62 49 46 45 45 46 45 43 45 44 42 37 34 33 28 27 27 27 27 31 35 39 42 46 38 28 28 26 27 31 36 46 54 61 70 78 81 87 90 93 92 92 86 86
56 57 50 45 43 47 48 46 47 47 43 43 33 34 27 27 29 28 26 30 30 33 42 47 45 36 27 27 25 28 31 36 44 49 56 59 64 69 72 76 77 74 76 80
46 56 54 48 45 48 47 46 51 49 48 43 39 41 30 34 34 29 28 28 29 30 40 45 46 45 33 30 29 28 31 33 36 43 48 49 52 55 60 61 63 62 65 65
39 49 57 54 49 48 47 47 46 50 51 43 48 50 36 35 32 30 27 25 27 31 35 38 42 47 44 35 33 26 29 33 33 37 43 49 49 51 50 51 51 52 53 57
40 44 46 51 56 52 51 52 48 50 55 54 50 48 39 35 34 34 31 30 28 31 34 38 39 43 47 43 31 28 24 29 33 33 37 41 46 48 49 49 48 48 47 48
51 49 44 44 53 60 59 54 56 55 58 58 46 49 46 37 37 40 38 35 32 31 30 36 37 39 46 46 43 34 32 31 32 34 36 39 42 44 47 49 48 47 48 49
43 56 53 48 53 54 57 59 56 56 55 55 52 50 45 44 44 42 43 40 39 35 36 39 38 40 43 44 46 42 38 37 36 33 37 40 42 44 47 48 51 52 55 58
41 42 56 48 48 49 55 53 52 57 60 57 58 52 49 46 43 43 43 40 38 36 37 41 42 44 43 45 46 48 46 44 44 42 40 38 41 42 43 43 45 50 53 57
58 47 37 47 44 49 58 56 56 57 57 59 64 55 49 46 45 44 44 44 39 35 36 39 44 46 46 46 46 45 44 41 45 47 49 48 48 45 44 46 49 53 55 55
65 60 52 38 39 48 52 54 56 57 61 56 56 55 51 45 42 42 43 43 43 40 38 35 39 44 47 50 46 42 44 42 45 49 51 52 49 49 53 57 57 52 48 46
78 74 60 55 53 47 49 50 51 53 53 55 52 49 46 42 37 39 42 45 43 43 45 42 38 39 43 49 49 48 51 49 48 51 51 47 48 50 55 51 50 50 45 44
68 72 74 63 56 58 54 48 45 44 42 45 45 45 44 42 39 34 33 38 45 45 46 47 45 40 38 40 49 50 52 50 51 51 47 46 43 42 42 41 41 45 44 43
66 67 58 56 62 54 48 47 46 47 48 45 42 39 36 34 34 36 35 35 39 44 46 46 49 49 44 41 45 46 46 52 50 50 48 47 45 44 45 45 47 47 50 50
59 75 79 66 70 58 38 38 38 37 34 31 31 32 33 34 38 34 34 36 37 39 44 47 47 48 48 43 42 45 48 49 49 51 52 53 51 48 51 50 51 53 53 52
51 60 69 66 62 46 42 37 35 33 31 30 36 37 37 37 36 38 44 43 44 45 41 38 41 48 48 48 46 43 46 50 51 51 47 53 53 55 56 57 57 57 58 57
57 56 60 60 54 54 40 41 40 29 35 41 41 44 44 44 45 44 40 45 49 50 51 44 39 41 46 49 50 49 45 48 51 53 57 57 57 59 61 60 57 55 62 63
67 65 63 56 68 54 40 36 32 45 53 40 37 37 39 45 49 46 40 42 51 53 52 53 51 45 47 50 51 49 46 45 49 53 56 60 63 63 62 64 64 61 69 72
68 65 63 56 69 70 45 41 45 60 48 42 38 36 36 40 45 44 44 40 45 54 57 56 57 56 52 53 55 51 51 49 52 53 53 56 59 63 63 65 70 79 85 84
76 57 57 52 55 57 61 63 57 55 48 46 44 41 40 40 44 42 39 44 47 50 63 67 64 63 59 55 59 60 56 56 57 57 58 59 63 68 73 78 83 86 81 90
61 64 65 64 61 61 57 56 55 55 54 51 52 49 48 49 49 48 51 58 58 57 71 78 78 75 69 62 61 65 65 67 67 65 66 66 72 77 81 87 89 91 88 88
64 63 63 62 63 62 59 59 58 59 58 57 58 54 52 52 52 51 50 62 69 74 81 88 87 88 84 77 72 74 74 75 75 75 77 78 80 83 90 93 94 93 91 92
64 63 65 64 67 63 58 59 56 55 56 57 58 57 57 56 54 55 57 58 68 78 92 97 93 96 97 89 87 84 85 87 88 88 88 87 88 86 89 89 93 95 94 97

GFSCGP_prec_cthk_057.txt.gz
RH
48 46 47 46 44 43 44 43 41 40 37 33 33 29 31 28 30 31 37 41 43 42 42 44 36 25 28 32 37 51 57 76 85 88 94 98 97 98 96 89 83 86 84 83
55 45 43 44 47 45 43 43 41 41 36 36 33 27 26 27 32 30 37 42 41 42 40 45 38 28 26 30 32 42 52 61 81 92 90 95 95 96 92 88 87 87 86 85
62 50 51 48 51 46 46 45 43 42 40 39 33 29 27 27 30 29 33 36 41 42 42 42 39 36 26 27 29 33 44 59 70 89 93 93 95 97 94 92 90 90 90 88
75 52 56 54 51 52 51 46 45 46 43 40 35 31 29 28 30 32 32 31 32 37 40 43 44 40 30 25 26 29 36 49 60 74 90 91 91 94 92 92 91 90 88 85
67 58 52 54 52 52 48 51 49 48 45 41 37 34 33 32 35 33 31 34 34 34 36 40 47 42 36 28 24 26 29 39 50 62 68 79 84 84 88 89 90 91 89 86
64 65 62 53 52 50 48 51 51 52 47 47 38 37 32 33 32 33 30 30 31 36 35 38 43 46 40 31 27 24 27 31 40 49 54 61 67 73 77 79 85 92 89 91
54 64 62 61 58 52 50 53 55 55 54 48 39 39 33 33 34 34 33 32 36 36 34 36 42 46 43 36 29 26 28 30 35 41 49 53 56 61 65 70 71 72 70 74
56 63 60 63 60 54 50 52 51 55 56 48 39 45 33 38 37 36 34 33 37 35 32 33 38 46 45 44 35 29 27 29 31 36 42 49 54 55 57 58 59 59 59 59
53 43 52 58 60 59 57 51 49 53 57 57 44 46 41 38 37 37 36 33 36 37 35 32 35 42 45 46 42 32 27 27 30 32 38 42 45 47 49 51 52 50 51 52
56 53 44 54 56 58 57 55 53 55 62 63 50 52 53 41 39 43 42 43 41 43 47 39 35 39 44 46 46 38 33 29 28 31 34 37 41 46 47 49 49 50 51 51
57 63 58 57 58 55 58 62 60 55 55 58 58 49 46 50 43 42 44 46 51 46 44 43 37 39 45 48 48 44 37 34 32 30 33 34 39 44 49 52 53 54 56 55
52 63 62 69 57 56 59 59 64 61 67 56 62 58 54 51 44 44 45 48 48 45 43 40 41 41 44 50 55 52 45 40 38 35 33 33 34 37 40 45 50 53 56 60
70 56 59 64 64 59 56 60 61 62 62 73 72 59 56 55 48 48 48 48 48 46 46 43 42 45 46 48 52 52 50 49 45 40 38 36 35 36 38 40 43 46 50 55
72 63 57 58 62 55 57 63 60 62 67 62 68 62 57 56 51 50 50 51 51 48 48 45 45 47 50 49 49 53 54 52 48 47 45 43 41 39 40 43 45 47 51 55
82 68 75 60 63 61 62 64 56 57 60 65 60 62 54 53 49 43 43 39 41 41 50 50 49 50 49 50 52 51 51 53 49 50 50 45 46 50 56 55 55 54 56 55
87 88 72 74 60 58 58 56 52 51 49 48 48 52 48 47 51 41 31 30 30 35 42 53 54 51 50 47 46 53 53 54 56 54 51 53 55 55 54 55 54 58 59 57
76 79 90 86 67 58 54 50 51 47 49 49 53 53 46 45 37 33 31 35 34 34 38 41 49 53 53 54 52 49 52 55 54 54 53 57 57 54 52 51 52 54 54 55
69 73 76 83 77 89 58 51 50 53 50 50 45 40 39 40 40 35 35 43 40 40 37 34 39 47 53 54 54 52 49 51 53 54 54 55 57 56 55 55 53 56 53 51
67 69 72 67 64 56 51 49 42 43 41 38 38 45 44 44 38 40 54 42 37 39 40 40 36 36 38 45 51 51 53 49 53 55 57 55 55 58 58 54 54 56 57 56
60 61 72 75 71 67 57 55 47 39 42 52 51 51 46 43 45 51 49 42 41 38 39 36 38 40 42 43 44 45 46 51 50 54 55 57 58 57 57 57 62 61 61 60
67 62 58 59 62 46 43 50 37 45 59 62 54 49 48 46 45 46 44 42 39 36 32 35 35 39 46 48 52 50 51 51 53 55 57 59 63 64 63 66 68 64 62 63
71 70 65 61 73 63 60 56 47 64 73 68 56 49 45 45 43 46 45 40 40 36 35 34 36 38 40 48 52 51 55 55 53 57 59 59 61 64 63 64 67 77 79 76
79 63 67 56 58 62 61 63 69 68 69 62 51 46 46 43 41 45 48 46 41 39 39 41 41 44 45 49 56 60 60 61 65 68 67 63 62 66 71 75 77 79 80 82
75 84 71 77 61 80 62 66 67 59 55 52 48 46 44 45 43 41 43 43 43 43 43 45 43 49 55 54 59 63 66 67 68 71 73 71 70 72 76 76 78 82 84 89
73 77 70 76 75 72 67 70 64 60 54 51 47 47 48 48 48 47 48 47 47 48 48 51 51 53 60 66 67 69 73 72 74 75 77 80 79 80 84 85 89 92 92 93
73 72 74 76 78 74 78 74 67 57 50 49 48 48 49 50 51 52 54 54 54 50 50 54 53 57 70 82 87 83 87 83 80 78 80 81 85 91 93 87 89 94 96 97

GFSCGP_prec_cthk_060.txt.gz
RH
74 50 47 51 43 38 40 45 47 44 41 41 39 36 32 29 30 36 32 35 37 47 47 42 43 38 29 27 30 35 43 51 63 74 78 84 89 94 95 95 91 96 87 87
75 57 42 47 49 46 49 47 46 47 43 39 38 34 33 30 30 31 33 36 38 49 49 41 41 37 29 25 28 31 38 45 52 71 80 83 90 95 97 97 91 89 82 89
84 62 54 50 46 51 51 49 47 44 44 42 37 38 36 29 27 28 33 31 39 48 48 40 41 41 33 26 26 29 34 41 52 70 84 87 88 92 94 95 90 86 89 88
92 77 68 68 54 54 53 48 46 47 47 44 41 41 36 31 30 27 29 29 32 37 46 42 39 44 38 26 24 26 31 37 49 61 78 86 86 88 90 90 88 89 88 87
93 82 82 72 65 57 54 52 53 52 50 46 42 42 36 34 34 31 32 32 32 34 38 44 38 43 46 32 22 23 29 33 40 50 63 71 77 82 82 85 88 88 89 86
76 80 80 67 58 60 55 55 56 54 53 51 43 44 39 34 33 33 35 35 31 35 37 43 40 41 45 44 26 23 26 31 35 42 51 59 64 69 77 77 82 87 86 86
70 71 65 71 69 60 58 56 59 62 61 55 43 43 37 34 37 36 37 33 31 35 39 42 43 39 42 46 38 28 28 30 34 39 46 54 60 60 65 70 75 78 82 77
77 77 63 65 67 62 62 58 58 70 67 54 42 42 35 34 35 34 35 35 37 39 42 41 41 38 42 46 45 37 32 29 32 35 40 46 53 58 59 62 63 62 65 71
63 67 63 66 69 62 64 67 53 58 62 68 57 44 40 38 39 36 34 35 38 36 37 39 39 38 40 45 47 44 36 31 29 31 35 40 45 48 51 56 57 57 57 59
40 65 57 56 61 65 64 64 65 61 69 74 58 50 45 42 40 40 42 38 41 45 45 48 49 44 39 42 47 48 44 36 33 32 33 36 39 43 44 48 49 51 54 56
39 48 60 54 54 60 64 68 72 69 59 69 68 64 59 53 45 47 48 49 47 47 46 51 56 50 41 41 44 47 48 43 39 34 34 34 36 40 44 45 46 48 50 51
55 49 51 68 58 58 59 62 64 75 75 63 65 61 61 60 51 47 48 51 53 53 53 52 45 45 52 46 47 50 51 50 46 40 38 36 33 37 38 42 44 47 49 51
62 52 59 60 68 71 60 61 62 66 79 95 81 70 61 56 54 54 51 50 54 56 57 53 52 54 50 53 53 53 53 54 52 48 42 37 35 33 32 34 38 42 45 47
58 62 60 59 75 87 82 64 68 71 91 90 89 75 74 67 61 56 51 50 52 51 53 52 49 49 51 58 55 54 55 55 59 57 51 43 39 34 33 36 39 41 42 43
72 79 66 59 64 67 72 70 66 68 79 87 70 71 75 76 68 60 54 50 50 51 53 56 55 53 54 49 47 57 57 54 56 60 59 49 50 48 46 45 44 45 48 49
76 91 78 60 61 64 63 68 85 77 60 62 70 73 68 69 55 55 55 53 51 54 57 55 52 50 54 53 52 51 54 62 56 54 55 57 59 58 57 55 54 57 56 54
65 88 95 83 69 62 61 56 68 74 60 54 59 54 57 55 56 55 49 47 48 43 43 43 43 45 50 52 55 55 55 53 57 61 54 57 59 60 59 60 63 61 59 60
58 74 90 91 93 84 50 45 43 52 50 50 52 58 52 54 54 51 43 46 41 39 39 38 37 36 40 45 47 50 53 56 55 57 59 58 59 59 59 62 64 64 60 60
51 60 87 96 87 84 72 59 53 54 57 58 56 56 56 56 46 52 55 49 46 44 37 33 32 30 32 32 35 42 49 54 56 56 55 59 60 61 64 64 63 67 69 66
45 55 72 78 85 89 62 66 62 55 56 56 57 60 58 51 54 66 73 70 59 46 34 30 28 29 30 30 32 33 38 47 50 52 50 52 54 60 61 65 66 68 69 69
67 64 67 77 82 73 59 59 58 59 73 69 64 61 58 55 53 54 59 55 45 40 33 27 26 26 27 28 32 35 38 39 44 50 51 52 52 55 59 65 69 72 72 71
75 81 71 68 74 74 55 59 66 69 65 68 73 75 60 58 52 48 51 52 42 39 34 33 32 31 29 27 27 30 35 40 44 50 56 58 57 56 61 65 67 70 76 79
96 70 70 55 45 52 57 59 66 69 66 76 76 79 63 59 49 45 40 40 39 38 38 39 38 37 36 33 31 31 36 36 45 49 54 59 66 68 71 72 75 78 80 86
90 82 68 74 54 54 80 84 68 81 76 81 83 76 69 56 51 48 46 44 44 47 48 46 45 43 43 41 37 37 40 46 47 50 52 61 67 72 79 82 82 85 86 89
93 95 75 75 86 81 87 94 74 68 70 68 64 59 58 54 52 49 48 50 51 52 53 51 49 46 46 45 42 42 44 52 58 60 58 60 70 79 84 86 91 90 93 96
84 95 93 93 94 97 97 94 83 69 66 65 58 56 54 52 51 54 55 56 56 55 53 51 49 48 50 50 49 49 52 58 70 79 78 70 72 80 86 89 90 94 94 95

GFSCGP_prec_cthk_063.txt.gz
RH
54 64 59 58 65 57 48 33 35 41 45 52 49 42 40 39 37 36 36 33 34 37 42 40 37 31 31 25 23 27 33 43 55 67 83 86 86 87 89 92 94 92 90 87
68 68 64 61 61 62 52 36 43 39 45 56 49 45 44 40 35 33 33 33 35 39 43 40 36 34 33 27 23 25 29 36 46 57 72 81 84 87 93 96 97 94 95 91
79 79 73 64 58 54 52 42 42 45 51 52 46 46 38 35 36 31 31 31 35 38 41 40 39 35 36 30 22 23 26 33 40 55 73 78 81 87 91 96 98 97 92 90
77 84 81 71 72 55 50 43 43 47 51 49 49 50 43 42 39 33 28 30 34 38 38 39 36 38 36 33 22 21 24 30 36 48 65 70 74 82 85 91 96 93 90 93
73 85 83 83 70 61 62 52 55 54 57 53 48 48 38 41 40 34 31 31 33 36 36 37 35 38 35 37 27 20 24 27 33 40 50 62 67 76 80 84 90 94 92 86
60 78 85 83 77 75 69 70 64 61 62 66 50 49 38 40 36 39 38 36 34 36 35 36 35 38 37 37 37 23 23 28 32 36 42 47 55 60 69 75 82 86 84 84
38 61 74 86 87 80 75 83 78 75 74 68 50 50 39 36 39 39 37 36 36 36 37 38 39 37 37 36 41 29 28 28 31 36 41 46 49 54 59 64 70 75 84 83
39 66 66 73 69 80 75 78 82 77 75 60 46 51 38 35 39 40 42 36 37 36 39 41 44 38 31 36 42 38 34 29 29 32 37 43 48 51 53 54 57 61 66 67
44 47 57 68 67 71 77 75 66 77 82 75 59 53 40 38 42 42 38 40 41 41 43 44 41 42 31 33 39 42 39 34 30 30 34 39 43 46 48 51 52 53 55 58
42 46 47 66 70 75 75 69 81 92 93 93 60 63 58 48 45 42 40 43 45 45 44 43 47 48 44 33 35 42 44 41 32 34 33 35 39 42 46 46 46 48 49 50
52 46 46 55 64 69 73 78 92 91 79 80 78 73 63 55 54 50 48 46 46 48 50 53 57 53 51 43 36 41 47 49 43 35 36 37 36 39 42 46 47 48 49 49
65 63 50 47 57 64 72 71 86 98 89 78 74 79 66 60 57 55 54 54 54 53 52 53 56 64 61 50 45 44 48 49 51 47 38 37 39 39 41 41 45 48 49 50
54 66 62 55 57 65 72 66 79 81 80 95 96 76 78 75 69 61 57 57 57 57 57 55 57 57 62 69 67 52 51 52 54 55 53 43 42 39 40 41 41 45 47 48
39 59 75 72 71 88 85 80 72 77 91 85 88 82 86 80 78 68 64 61 61 59 61 61 59 59 61 63 69 75 74 64 59 57 58 57 51 44 41 40 41 43 45 45
53 56 67 66 66 78 91 87 78 82 80 94 85 90 87 85 79 71 60 65 59 60 59 62 63 63 59 60 62 66 66 65 71 70 63 59 62 58 55 48 42 43 48 48
59 63 73 72 66 71 81 80 77 86 84 80 87 94 92 90 87 77 67 65 65 63 62 61 60 59 59 62 59 61 64 64 63 71 71 67 59 59 56 60 61 59 54 50
76 74 70 80 69 68 68 64 78 81 83 86 95 82 77 85 81 74 66 65 66 66 63 59 53 50 50 50 50 49 54 59 63 65 65 71 73 71 61 59 62 64 66 67
75 69 71 78 76 90 58 57 61 67 80 79 70 71 68 74 76 72 68 61 62 58 54 49 44 37 32 30 31 34 39 44 54 59 61 58 65 72 73 66 64 63 62 66
55 61 71 73 88 79 68 64 52 63 70 65 63 61 65 75 70 69 67 66 59 52 46 40 37 34 30 26 25 25 30 37 39 41 47 54 56 60 69 74 71 66 67 65
40 53 63 70 80 89 79 70 61 57 73 65 58 65 71 68 68 76 68 62 59 53 52 50 41 33 26 25 26 25 24 25 26 33 38 43 45 50 55 56 61 66 68 67
71 65 60 60 78 77 70 73 73 73 86 75 68 67 69 67 73 73 65 60 55 51 50 35 30 28 27 27 26 26 25 25 26 28 29 35 41 46 48 49 51 58 64 68
93 88 86 76 73 73 60 70 75 81 79 80 76 73 70 70 65 58 55 52 49 42 32 27 27 28 29 28 27 26 26 25 25 25 28 31 33 38 41 45 50 56 63 70
96 90 86 75 65 55 57 63 72 73 69 72 74 71 67 62 57 54 53 48 41 36 35 37 36 35 34 32 29 28 28 26 26 26 28 29 33 34 39 41 48 55 66 74
90 90 90 79 81 70 80 92 84 74 72 74 69 70 70 70 65 73 63 51 44 42 43 42 40 38 36 34 33 33 32 32 32 32 32 35 35 36 41 46 49 57 64 72
89 92 91 85 97 92 90 92 96 90 86 73 74 69 68 65 72 71 67 56 51 49 47 46 44 41 39 38 38 38 39 39 40 39 38 40 43 44 51 60 61 61 65 73
93 98 99 98 98 97 99 99 93 93 92 81 70 71 66 66 67 64 57 52 52 51 51 50 49 48 47 45 45 45 45 47 47 47 48 50 53 54 59 73 86 80 75 75

GFSCGP_prec_cthk_066.txt.gz
RH
29 36 40 40 51 62 57 57 60 44 29 35 41 38 42 42 41 36 34 33 34 36 40 41 43 39 40 35 30 21 26 32 42 55 66 85 86 89 91 91 90 90 89 90
39 44 45 47 55 54 57 61 65 44 44 53 44 47 47 46 42 37 35 35 37 42 40 40 42 39 41 38 32 21 22 31 40 50 67 78 85 90 95 95 95 93 93 94
50 49 55 58 60 61 57 63 64 45 40 55 49 48 46 42 39 38 37 34 34 38 37 38 40 38 40 38 32 20 19 27 36 50 70 81 85 88 91 95 96 96 97 95
51 51 62 67 72 69 73 62 59 40 49 59 57 59 46 41 39 41 39 35 31 39 35 39 43 37 40 37 37 20 18 26 33 42 66 73 78 82 84 88 95 99 99 97
43 52 64 71 78 75 72 70 66 51 55 55 59 61 44 40 38 36 37 33 30 31 35 39 41 39 39 42 38 27 17 24 31 36 45 62 67 74 82 89 95 98 97 96
35 41 57 67 76 80 80 76 65 53 56 69 52 62 46 38 33 37 37 35 31 32 36 39 42 41 40 41 42 36 19 25 29 35 40 44 52 64 74 83 92 94 97 97
27 36 50 64 81 81 84 85 78 72 69 69 52 61 45 38 38 41 39 36 33 32 37 40 43 42 42 37 39 41 29 24 27 31 40 44 45 49 54 64 75 86 93 94
34 41 45 64 76 86 82 89 88 94 94 72 52 56 40 36 39 40 40 37 34 35 37 39 42 42 45 38 38 43 36 30 25 29 33 40 44 47 49 52 61 72 78 84
45 48 49 60 75 84 92 94 81 91 82 89 65 53 43 43 40 41 39 40 38 40 38 41 44 49 48 38 35 41 41 35 29 25 29 35 42 45 47 51 53 60 68 71
52 51 44 54 71 75 80 88 97 98 97 94 67 62 64 53 49 44 42 41 42 45 46 47 47 48 47 42 40 42 45 45 39 30 28 31 37 44 48 50 51 52 55 60
64 55 47 55 71 81 84 97 96 92 90 96 84 84 79 64 56 52 51 47 44 46 51 51 51 54 55 51 46 47 48 50 51 44 32 33 36 38 44 48 49 49 51 52
75 74 67 55 60 64 80 89 90 98 91 90 92 97 84 74 63 62 60 59 54 52 53 54 58 60 63 62 59 57 59 55 54 54 49 37 36 39 39 40 46 49 49 50
59 68 68 51 51 63 68 77 84 90 95 96 96 90 90 86 76 65 67 69 65 62 64 65 65 67 70 69 68 70 67 65 66 64 63 57 48 40 39 39 40 43 48 50
49 56 60 74 81 88 89 86 85 95 99 93 86 83 93 94 90 77 71 69 72 71 71 70 67 68 69 69 69 72 80 77 69 66 66 64 61 60 55 46 39 37 41 45
54 55 56 53 66 74 78 94 90 86 88 91 80 78 85 96 93 88 85 77 72 72 70 70 70 68 70 71 70 68 65 65 71 74 69 69 72 72 72 68 63 55 44 41
67 62 59 54 52 60 71 82 90 96 94 85 80 83 89 95 96 88 88 81 78 72 71 71 71 66 61 61 64 62 62 63 62 65 67 72 73 77 78 79 77 73 68 65
70 73 67 62 57 59 67 71 79 83 93 93 96 86 90 95 94 86 84 80 78 79 74 71 67 62 62 58 57 55 57 58 59 59 59 62 67 70 74 76 80 75 72 74
60 64 67 70 58 69 60 61 66 78 88 87 89 92 95 89 93 93 87 75 74 70 69 72 66 62 59 52 48 47 44 44 47 46 51 56 55 60 67 70 69 70 70 72
53 57 62 71 66 50 54 72 71 81 88 78 89 94 93 90 84 88 89 82 75 73 70 62 53 52 48 42 37 34 31 28 28 30 34 37 41 48 51 54 58 61 66 67
53 50 56 68 65 64 63 74 76 68 88 82 75 88 81 74 75 83 85 83 77 75 68 62 53 50 46 35 29 26 26 24 21 21 23 25 28 31 33 41 45 46 52 59
64 64 55 57 63 53 49 65 75 82 94 88 74 83 81 76 69 77 80 80 78 72 64 56 53 50 44 35 32 30 28 24 22 21 22 22 23 24 26 27 30 36 41 41
73 78 77 68 67 60 43 70 76 91 93 91 88 88 89 87 85 88 86 80 72 61 49 45 44 42 41 34 29 25 25 24 24 24 24 23 24 25 26 28 28 29 33 39
97 91 89 81 74 74 67 68 78 84 92 93 93 91 88 87 87 84 75 68 62 53 50 45 41 37 33 31 29 28 27 27 27 27 27 27 26 26 27 28 29 31 34 36
97 96 98 93 90 80 79 85 75 83 88 87 88 83 79 78 78 76 74 71 64 59 58 48 41 38 36 34 33 32 32 32 31 30 30 31 31 30 31 33 34 35 40 42
97 94 96 98 92 92 89 84 92 91 91 88 81 80 80 77 73 68 65 68 60 60 58 53 43 39 38 39 38 37 36 35 34 35 35 36 36 35 36 37 40 43 45 49
99 97 95 96 96 98 98 93 93 97 93 86 80 77 72 68 70 68 65 63 59 67 60 54 46 42 42 41 40 41 40 40 40 41 41 41 42 43 44 46 47 51 54 56

GFSCGP_prec_cthk_069.txt.gz
RH
28 32 31 29 32 33 39 48 52 49 51 56 42 32 25 24 29 32 38 37 38 34 33 38 42 46 46 42 37 31 18 21 27 38 49 62 79 81 84 88 93 94 96 95
37 37 31 37 38 38 34 40 53 47 59 56 43 36 28 28 32 36 38 38 35 34 35 40 43 47 39 44 41 33 19 19 24 34 48 64 81 82 85 87 91 93 94 95
40 33 43 47 47 47 45 43 52 52 64 60 49 36 33 31 37 37 38 40 35 31 35 39 42 45 41 42 40 34 20 17 23 30 54 67 77 82 85 88 93 90 91 96
43 38 48 50 54 54 53 56 57 54 60 59 48 52 36 36 41 41 42 40 36 34 35 38 43 45 41 43 41 38 25 17 22 28 49 61 68 79 84 90 92 96 94 93
40 47 51 49 51 58 58 69 75 68 69 64 50 55 39 41 45 41 40 37 34 31 32 37 42 46 44 42 45 41 30 17 21 28 36 51 61 68 76 84 89 93 99 96
38 38 41 39 47 58 64 79 79 75 73 77 50 52 44 44 44 44 38 38 35 33 34 37 45 51 48 45 45 45 34 22 23 27 33 41 49 55 62 74 83 89 96 97
29 28 32 40 53 60 73 94 92 88 85 72 47 50 39 46 50 48 44 41 37 34 34 37 41 48 53 47 43 43 42 30 25 28 31 39 45 47 52 59 69 86 94 96
39 32 37 40 49 62 72 95 96 91 87 77 56 55 43 49 48 45 41 40 36 35 33 34 38 47 52 48 46 41 44 37 30 27 29 35 41 45 48 54 62 70 86 94
47 44 40 44 53 67 87 94 94 96 93 87 72 52 43 49 48 49 44 38 38 36 38 38 39 48 53 55 51 43 45 45 37 28 27 32 37 42 44 48 55 64 73 80
54 53 41 43 57 76 92 93 98 98 98 95 77 75 77 60 56 56 51 43 40 42 44 45 46 54 57 60 54 53 53 51 50 42 33 30 34 40 43 45 47 52 58 66
65 58 54 49 64 75 95 98 98 96 94 91 89 94 78 74 67 64 59 51 48 45 48 49 53 58 58 59 57 58 59 60 59 58 51 40 35 39 44 47 48 49 52 56
80 79 82 62 51 66 78 89 97 98 98 94 98 95 82 80 75 71 65 60 56 56 53 57 61 63 65 67 67 67 66 65 63 62 61 55 46 42 43 44 48 53 54 55
69 81 87 64 53 66 81 89 92 95 96 91 97 91 91 83 78 80 74 71 68 69 68 65 67 68 71 74 74 71 72 70 67 63 63 64 61 55 52 46 44 47 54 58
64 70 76 76 80 82 86 89 92 96 98 91 90 91 94 92 90 86 85 82 82 78 77 76 73 74 77 78 81 81 81 80 78 76 73 73 73 69 64 60 57 53 50 49
66 64 71 62 58 66 72 85 92 98 97 98 78 81 83 90 95 95 93 84 79 78 78 76 76 77 75 75 81 80 76 76 74 74 76 76 76 74 75 74 73 69 62 58
66 61 65 59 55 51 58 68 80 89 96 96 88 82 85 96 95 95 97 93 86 85 79 72 68 70 70 69 68 71 73 73 71 69 70 72 73 72 75 79 83 82 83 80
72 78 70 66 61 51 48 56 66 78 85 85 96 83 86 92 90 94 96 95 91 86 85 81 75 68 64 58 57 57 59 59 60 60 62 64 66 67 69 73 76 80 83 86
60 65 71 66 56 60 39 48 58 73 77 87 86 88 91 93 96 97 96 97 96 93 89 88 86 83 71 64 59 60 56 48 45 44 45 46 48 49 53 57 63 70 74 76
57 59 62 64 60 47 42 59 65 72 74 80 81 84 91 94 97 98 98 97 95 92 89 83 72 67 62 60 57 52 46 42 39 35 32 30 31 31 32 35 38 42 50 60
55 56 58 68 65 63 50 50 62 64 71 75 76 93 92 94 96 99 98 97 96 92 88 79 67 63 58 56 52 46 40 34 30 26 24 24 24 23 22 22 25 27 28 32
73 73 70 65 65 52 35 41 57 74 76 74 76 86 91 92 91 94 96 95 93 88 83 74 67 61 56 54 51 47 43 34 31 29 27 26 24 23 20 18 19 21 24 27
62 69 71 69 67 58 36 35 54 76 81 90 87 86 87 90 92 95 93 92 91 85 78 70 65 56 50 45 43 42 41 38 35 34 30 27 24 23 21 21 21 23 24 25
69 91 86 77 71 71 69 58 53 73 82 98 94 98 93 93 98 99 96 91 83 75 70 65 60 56 51 43 37 37 36 36 37 36 33 29 27 25 25 24 24 26 27 28
89 98 98 98 86 82 75 70 71 82 83 90 89 98 98 96 97 95 91 84 81 78 73 70 65 56 49 44 37 35 35 35 34 33 32 31 29 29 29 28 29 30 32 33
97 93 93 93 94 92 90 85 83 94 93 91 94 91 90 90 87 87 84 81 75 68 67 67 63 57 55 51 46 42 41 39 38 37 37 36 35 34 33 34 35 35 37 37
97 90 89 91 93 95 92 89 89 93 96 97 94 92 90 90 89 87 81 74 73 69 64 61 60 56 57 54 52 51 50 48 45 44 42 41 40 40 40 40 41 42 42 44

GFSCGP_prec_cthk_072.txt.gz
RH
30 30 29 26 28 28 32 35 36 34 36 45 48 43 37 37 33 27 23 27 28 30 35 39 40 42 47 47 51 42 37 24 24 25 32 43 60 73 86 91 95 98 99 98
38 41 30 31 32 32 34 35 33 31 32 47 48 44 40 45 39 25 25 29 29 34 36 39 39 40 47 46 45 45 36 23 23 26 31 50 66 80 87 92 94 95 98 98
40 34 38 39 40 47 48 46 43 39 38 44 48 41 45 41 35 24 27 30 29 31 35 40 37 39 46 45 44 45 37 25 21 26 31 56 64 76 85 89 93 97 94 94
44 36 38 41 51 49 52 48 48 44 46 52 50 50 49 41 29 26 32 35 33 35 40 39 37 41 46 46 43 45 39 30 19 26 29 51 58 75 81 85 90 93 96 97
39 44 45 47 47 46 47 51 57 57 59 62 57 59 47 44 31 28 38 40 38 38 41 36 35 39 48 50 44 46 43 32 18 27 30 40 57 65 72 79 87 92 95 96
42 38 41 41 40 42 46 57 61 64 68 77 63 61 54 44 31 31 43 43 44 45 41 38 39 41 47 50 45 47 47 37 21 25 31 37 46 54 61 69 78 86 92 97
35 31 31 34 40 39 52 69 78 79 80 80 62 63 55 41 37 40 48 47 45 46 42 37 38 40 44 47 48 46 48 45 27 23 31 36 44 49 53 59 65 71 86 92
43 38 40 41 40 47 57 67 81 82 82 79 67 68 58 52 48 45 49 50 48 46 41 36 35 37 39 49 50 49 46 47 35 26 30 34 40 45 49 51 56 65 75 89
52 48 46 48 49 49 63 78 80 90 95 96 75 62 61 56 49 47 52 53 51 46 42 38 39 40 40 49 53 58 47 48 40 31 28 32 37 42 46 48 51 60 68 80
55 57 52 55 54 59 68 83 91 96 98 91 75 78 88 71 60 52 60 58 52 49 49 45 46 47 50 56 61 63 56 50 47 39 30 30 35 40 43 46 49 53 61 70
55 59 59 67 61 71 77 85 95 97 89 98 95 94 85 78 69 66 66 62 59 58 60 58 56 54 53 60 67 65 60 58 55 53 45 37 33 36 41 45 48 48 50 54
78 78 80 71 64 62 73 82 88 98 98 96 97 98 90 81 77 76 72 69 66 62 67 66 64 60 60 65 73 69 66 66 65 62 61 55 48 39 36 41 46 49 50 51
81 97 90 70 74 76 76 82 90 95 97 99 97 92 93 88 85 82 78 76 72 70 72 70 68 66 66 70 73 73 73 71 69 68 69 68 64 56 50 44 42 45 48 50
74 80 74 76 76 78 73 78 86 98 98 97 94 91 95 93 92 88 81 83 77 78 79 77 76 74 74 75 77 78 79 78 79 80 80 75 73 72 68 63 58 55 50 49
67 70 78 73 72 71 67 67 72 85 91 98 95 93 90 91 95 93 90 80 77 81 80 81 83 82 83 86 88 88 89 89 86 83 79 79 80 78 78 77 77 76 75 69
79 87 82 67 62 58 52 44 51 67 76 85 87 85 78 94 95 97 94 90 83 74 73 74 74 78 84 87 88 87 90 92 88 85 80 77 78 80 79 77 77 78 81 85
83 83 80 66 61 49 40 46 46 59 73 78 84 77 85 89 88 90 94 93 92 90 86 78 75 72 75 72 72 71 71 72 71 73 72 70 67 69 72 73 74 74 74 76
79 77 71 69 56 56 30 39 48 57 70 77 81 86 96 95 98 95 94 93 95 96 95 95 93 86 79 71 68 64 63 62 60 58 56 55 53 52 54 57 58 57 56 60
76 69 70 67 62 46 30 49 62 62 57 70 82 88 94 92 91 99 98 97 96 96 95 92 86 87 84 78 72 67 63 57 54 52 48 46 42 39 38 36 36 35 36 38
68 68 69 77 70 63 35 47 45 49 58 76 80 86 91 92 92 95 97 99 97 98 95 88 80 76 71 65 63 62 58 54 49 43 40 38 34 33 30 27 26 27 26 31
82 79 75 74 73 56 34 41 45 54 59 70 71 76 93 92 98 99 98 98 98 96 93 87 80 78 73 67 61 57 55 52 51 49 46 41 37 34 31 30 30 31 32 32
69 76 78 72 74 63 44 39 39 53 64 78 86 86 90 97 93 96 95 97 97 96 85 80 72 68 67 64 60 55 48 45 45 43 39 37 35 33 32 32 31 29 28 28
75 68 71 77 71 68 64 71 65 59 61 82 92 94 92 97 98 97 98 98 98 93 84 76 74 70 65 59 56 53 49 43 38 37 35 34 32 31 30 30 29 28 28 28
81 87 99 99 94 90 81 78 76 75 65 78 93 93 97 98 98 98 98 97 96 90 87 83 75 68 66 63 58 54 50 43 38 35 35 35 34 34 33 32 31 31 31 31
84 98 98 97 96 95 93 92 85 80 79 82 95 94 95 97 97 97 96 95 94 88 81 74 70 65 62 62 61 58 58 56 52 50 49 44 41 40 40 39 39 38 39 39
98 98 95 96 96 95 94 95 92 87 87 98 97 97 97 98 96 97 97 96 91 82 76 72 69 63 58 56 54 53 53 53 52 48 49 48 47 48 48 47 46 46 45 45

GFSCGP_prec_cthk_075.txt.gz
RH
38 40 40 36 36 35 30 29 29 25 27 28 25 31 33 36 41 34 28 25 25 31 31 32 33 40 46 46 43 46 49 47 39 26 28 32 43 58 71 82 91 93 97 99
45 38 30 32 33 32 33 36 30 29 28 29 27 27 29 34 38 35 33 29 24 26 30 29 32 39 44 46 43 42 46 48 38 23 28 34 58 72 81 88 92 91 96 98
40 34 35 38 41 48 48 45 43 44 39 36 34 29 25 30 36 35 36 33 26 25 25 25 33 39 42 45 43 38 46 46 39 25 29 38 61 68 81 88 92 91 95 99
46 36 38 50 43 48 48 43 43 45 47 43 36 37 32 35 36 34 39 36 27 23 23 28 35 39 42 43 43 43 46 45 40 26 29 38 60 65 81 86 92 97 95 94
46 52 57 50 37 43 44 42 46 51 52 52 49 51 38 37 37 36 35 30 28 27 27 33 39 43 46 47 45 44 48 46 39 27 29 38 51 64 70 77 87 92 96 96
52 43 45 42 42 43 43 42 47 54 57 60 47 51 44 39 38 40 33 28 30 31 32 40 43 42 42 46 46 47 49 52 43 29 30 36 46 55 63 69 76 87 92 97
46 46 45 40 38 38 39 47 60 63 66 54 47 57 49 47 44 47 39 30 37 37 39 44 47 42 41 43 46 49 49 56 50 32 30 35 44 51 57 60 64 73 79 90
48 46 41 46 44 40 51 53 60 68 65 61 58 57 51 64 57 49 42 39 43 43 46 47 47 45 43 43 47 50 53 55 51 36 30 34 41 47 52 56 60 63 66 83
53 51 51 55 53 48 59 62 62 80 72 80 59 55 65 65 61 60 49 43 50 53 49 51 50 48 45 47 52 55 56 61 50 37 32 33 37 42 47 50 53 56 63 69
51 55 52 61 61 61 59 67 85 87 82 78 64 68 80 74 66 63 55 50 62 61 55 51 55 51 49 50 52 58 61 66 52 40 35 34 36 41 43 45 47 53 59 64
56 60 57 62 65 67 73 70 84 94 88 86 90 93 88 84 77 73 67 63 60 67 67 64 59 55 54 53 54 61 66 65 60 51 40 37 34 39 43 44 45 47 53 59
84 80 68 59 63 69 66 72 85 96 93 97 93 79 93 94 84 79 74 70 74 75 73 71 66 64 62 62 62 65 69 66 63 62 57 49 43 40 41 44 46 49 50 50
80 91 92 82 77 77 78 78 95 98 98 94 95 91 96 91 88 88 82 79 80 79 78 76 72 68 68 68 69 68 69 71 72 70 70 68 61 53 47 44 46 50 52 52
69 77 96 86 77 73 73 67 73 92 97 97 97 92 93 96 95 91 82 87 84 85 84 79 78 81 75 75 74 76 74 77 79 76 75 73 74 74 69 61 55 51 51 54
83 79 92 82 76 75 68 63 56 64 75 88 75 83 85 86 91 97 91 80 89 90 87 84 82 82 84 84 83 83 80 81 84 83 84 84 84 82 79 77 75 74 72 68
98 82 91 77 67 62 59 51 48 52 64 68 74 75 75 78 86 94 94 88 85 89 92 90 88 84 86 90 92 89 89 86 87 88 87 88 85 82 82 83 80 78 80 80
96 95 84 71 59 56 47 46 46 46 55 69 76 73 80 90 92 90 93 93 88 84 84 79 79 79 81 83 84 86 85 87 90 87 87 85 81 77 77 77 77 78 77 78
98 86 84 75 59 52 37 36 41 53 56 57 63 77 80 92 98 94 94 96 97 97 94 95 85 77 79 78 76 76 74 74 75 71 65 65 65 63 62 62 60 60 62 63
89 87 77 67 65 50 38 46 47 54 50 58 68 79 90 94 97 97 96 98 98 98 99 97 95 95 89 81 79 76 72 63 60 58 59 57 56 53 50 48 47 47 46 46
78 79 71 74 69 58 42 55 45 44 39 66 68 72 81 93 97 98 98 98 98 97 98 96 93 90 84 82 82 78 71 66 63 62 59 56 53 47 44 43 42 42 39 38
81 78 75 72 70 52 49 50 44 41 46 52 62 70 78 86 95 98 98 97 98 98 97 96 94 92 91 87 79 69 66 63 61 55 54 53 52 49 46 43 39 38 40 40
75 81 79 73 70 59 56 60 48 51 52 52 65 79 87 85 95 98 98 98 98 98 97 89 84 79 77 74 76 75 72 66 59 56 55 54 51 50 47 46 45 45 44 41
70 73 78 67 61 68 72 74 73 67 61 61 72 88 88 90 98 98 98 98 98 98 94 86 79 81 76 73 69 68 66 65 61 57 52 48 43 42 41 39 37 33 32 31
77 79 74 82 97 91 88 85 83 78 73 69 75 88 92 98 98 98 98 98 98 97 93 87 85 78 73 71 68 66 65 63 59 56 54 50 48 45 42 39 38 37 36 36
88 87 94 98 98 98 98 93 89 82 77 77 78 93 97 97 98 98 97 97 97 97 93 86 80 75 70 67 64 64 63 61 58 57 55 52 52 49 47 47 45 42 41 41
84 90 98 99 97 98 98 97 95 89 85 88 87 87 96 97 97 97 97 97 96 91 85 77 72 69 67 64 59 58 56 55 53 51 48 47 47 47 46 46 46 46 46 46

GFSCGP_prec_cthk_078.txt.gz
RH
37 39 41 33 39 32 37 37 30 24 23 24 21 21 23 20 23 27 29 28 27 24 26 31 34 36 38 47 50 48 47 50 53 47 32 25 29 33 50 60 69 76 89 99
55 43 32 35 39 44 39 39 40 41 33 30 26 26 26 20 18 21 29 32 29 26 23 29 32 35 39 45 49 49 50 50 50 49 31 24 26 43 62 72 80 89 95 95
46 49 44 42 38 39 40 44 36 38 39 39 37 27 22 21 20 21 26 32 30 28 23 28 31 33 38 44 46 51 51 48 49 48 33 23 28 52 61 74 87 90 93 93
51 34 38 46 40 42 48 52 47 48 51 35 34 31 27 25 24 21 25 32 31 28 26 25 31 29 34 43 49 54 55 48 51 49 33 22 31 51 61 76 82 88 91 93
43 58 50 49 43 50 52 58 45 42 42 42 35 39 30 28 28 29 31 32 32 35 30 28 23 25 30 44 50 55 54 48 52 47 34 27 33 48 56 64 75 88 92 94
42 43 57 55 55 52 49 44 40 39 45 49 32 39 34 31 35 36 39 35 39 36 34 27 23 27 39 46 52 54 54 50 53 47 33 26 34 46 54 59 65 80 90 96
44 44 49 59 56 50 48 41 35 52 59 45 41 43 34 37 45 44 44 45 43 32 38 30 30 36 45 51 53 54 54 51 52 52 38 28 36 44 51 57 63 68 74 88
43 48 43 50 52 50 51 45 45 56 50 46 48 44 44 48 51 52 53 54 48 38 39 34 42 46 53 53 53 55 58 55 52 56 42 29 34 42 48 53 59 63 68 72
45 47 50 56 57 55 65 61 53 59 52 60 39 40 50 54 59 63 61 55 51 47 45 41 46 52 52 54 53 57 61 55 53 52 44 35 35 41 47 49 52 55 60 66
45 46 49 58 60 58 66 65 68 72 73 60 44 51 60 72 69 68 69 61 56 52 51 49 54 59 58 55 55 58 63 62 60 54 41 37 38 41 46 48 49 50 54 60
46 49 59 58 63 61 69 68 70 79 74 63 61 85 94 87 81 81 78 75 65 57 60 56 61 67 63 59 59 60 65 64 61 58 48 39 40 41 44 47 47 48 53 58
63 67 66 54 56 56 62 64 70 73 74 82 90 78 91 88 85 88 88 83 75 65 66 65 67 71 68 67 65 67 69 67 66 64 59 46 42 42 46 48 49 49 50 54
75 74 70 67 68 64 65 72 82 86 87 80 90 90 90 95 90 93 92 87 81 76 73 75 77 73 70 69 69 70 71 68 70 74 69 60 51 46 47 50 52 53 53 53
94 66 60 60 87 78 79 70 69 71 78 71 71 78 87 93 94 95 91 90 87 82 77 77 79 81 79 78 77 74 75 74 76 81 79 74 68 62 58 56 54 54 56 57
85 95 64 60 79 84 72 66 60 61 57 65 58 63 65 76 82 91 89 93 88 88 87 84 84 85 83 82 83 82 80 80 83 87 87 85 80 75 72 69 67 66 65 65
94 97 75 67 79 78 69 62 54 52 51 52 59 68 68 76 84 92 88 93 95 93 91 88 90 89 89 88 87 87 86 88 90 91 90 91 87 86 87 87 85 81 76 73
97 98 82 74 77 69 60 49 51 49 49 57 64 70 73 80 85 92 91 90 96 96 92 95 94 94 94 94 91 92 93 96 94 95 92 91 92 93 93 92 90 88 86 85
97 97 88 75 65 61 59 43 44 47 51 55 54 70 78 85 89 97 97 96 98 98 97 89 88 88 88 87 86 87 90 91 89 89 90 88 86 86 88 88 85 85 84 83
93 98 90 72 67 56 45 51 48 53 54 56 61 62 78 88 92 98 98 98 98 98 98 97 97 95 87 82 78 76 77 78 80 83 80 80 83 75 66 65 67 65 63 62
83 90 96 74 62 58 65 57 51 49 53 53 56 59 69 81 91 94 97 96 97 98 98 98 96 95 95 94 89 88 84 77 72 70 72 76 69 61 59 59 59 58 54 50
79 83 82 76 62 57 57 48 45 48 65 61 54 56 66 80 90 95 97 98 98 98 98 98 98 95 92 89 88 87 79 77 78 79 79 74 70 63 62 59 58 57 54 52
73 72 70 70 65 62 57 54 54 65 63 56 56 56 68 83 92 94 97 98 98 98 98 97 95 94 90 87 87 84 81 78 74 72 70 63 60 61 62 61 59 57 55 51
83 86 86 72 76 66 67 68 72 75 77 69 61 61 75 86 87 91 97 98 98 98 97 94 89 86 80 77 75 75 76 74 74 74 71 67 65 63 62 60 59 56 54 51
80 77 75 73 69 74 75 74 76 81 80 72 70 72 89 96 92 97 97 97 97 98 97 87 82 80 80 77 75 72 70 70 68 67 63 63 61 59 57 57 55 53 50 48
89 80 82 78 84 96 98 90 88 85 80 79 82 80 96 98 98 97 97 97 97 97 97 94 91 83 79 77 74 73 73 72 69 67 65 64 61 58 57 55 56 53 47 43
92 90 87 89 95 97 98 98 97 94 87 89 88 86 93 98 98 97 97 97 97 97 95 88 82 76 76 75 70 68 65 64 63 61 59 58 56 54 53 52 49 48 48 47

GFSCGP_prec_cthk_081.txt.gz
RH
42 45 44 41 48 44 44 35 35 39 34 32 28 26 21 16 17 19 22 23 23 25 26 28 34 38 44 48 45 48 46 54 54 51 51 43 26 24 24 32 44 53 59 68
45 45 45 46 38 42 42 41 42 42 44 44 39 35 26 22 19 19 18 20 23 29 31 31 35 37 41 44 45 46 50 53 53 54 52 42 29 25 28 44 54 62 72 80
50 53 56 53 49 43 43 39 40 43 39 36 33 38 31 27 23 21 20 17 23 31 34 33 32 35 38 39 43 46 52 52 53 55 50 42 30 27 32 49 56 70 84 87
41 41 50 44 44 49 49 48 51 51 47 41 50 52 41 38 34 25 21 21 22 28 35 34 31 33 37 38 44 48 51 51 55 56 45 41 30 27 35 50 60 75 84 93
35 44 44 47 49 42 49 53 52 49 47 46 37 47 32 36 31 29 28 25 24 30 34 30 32 34 39 40 43 47 56 55 56 56 46 41 32 34 35 48 55 65 81 88
35 39 39 40 52 58 48 56 56 49 44 53 37 40 38 43 48 40 39 39 35 37 38 37 34 34 42 42 41 45 56 58 59 54 48 40 32 33 36 44 50 60 78 90
56 49 46 47 45 53 60 56 49 45 58 54 49 49 41 52 46 48 49 51 53 50 46 43 41 47 44 39 39 45 55 58 61 55 51 42 34 32 37 45 51 59 67 79
38 47 55 48 45 51 54 58 56 60 56 66 66 55 61 51 46 53 58 62 63 64 66 57 52 46 38 37 41 50 56 58 63 56 52 46 35 38 40 45 49 54 60 69
49 46 55 49 45 48 62 60 48 60 52 46 35 33 58 58 58 61 68 65 62 61 57 54 56 45 41 47 53 57 60 61 61 60 53 50 39 36 40 43 47 53 56 63
37 50 56 66 48 48 50 66 83 66 70 62 46 49 87 80 71 67 67 66 66 63 54 57 60 56 52 58 62 64 63 64 64 64 60 51 38 38 43 43 45 48 52 60
66 56 48 57 59 51 62 58 67 68 70 75 69 86 86 81 79 74 71 71 71 69 62 66 68 68 62 64 65 66 66 67 65 67 68 54 40 41 41 46 45 46 51 57
79 79 59 51 54 60 60 64 73 83 62 67 70 75 86 82 85 80 79 78 77 73 65 67 68 70 68 70 69 68 68 69 68 72 70 61 48 40 43 45 49 46 48 53
79 63 72 64 61 61 53 47 61 75 81 75 84 86 86 80 82 86 83 82 83 82 76 71 68 74 72 72 74 73 71 70 70 73 71 70 63 51 45 47 49 50 49 51
77 64 70 69 74 82 85 61 61 71 78 73 73 64 78 77 80 84 81 87 91 90 87 75 72 78 78 79 79 79 72 70 73 75 73 72 68 61 55 53 54 54 54 55
77 76 65 63 61 72 70 93 73 77 73 64 61 55 57 70 74 83 81 90 95 95 91 82 77 83 82 82 84 82 78 76 75 77 79 79 76 71 62 57 58 58 58 59
80 62 83 76 70 65 57 74 64 60 53 50 52 58 77 80 79 79 82 90 95 98 94 90 84 87 89 89 87 87 85 85 84 84 86 86 85 86 80 75 71 68 66 67
91 81 87 74 83 65 70 69 65 57 59 57 66 71 69 80 80 76 80 91 97 97 99 95 95 90 89 90 92 92 90 88 88 93 94 92 90 90 89 89 87 86 85 80
87 80 93 91 79 77 53 60 59 57 62 65 66 68 63 73 83 86 87 96 98 97 98 97 97 97 94 95 96 98 96 95 95 98 98 95 93 93 93 96 97 97 95 94
69 94 94 97 67 64 58 67 66 63 88 75 60 58 62 64 74 84 91 97 97 97 98 98 97 96 98 95 94 94 94 96 94 95 95 93 92 91 92 90 92 96 98 98
70 91 96 91 78 71 80 66 55 48 66 70 57 54 55 61 70 75 91 97 96 97 98 97 98 96 98 98 90 87 88 88 89 90 91 87 85 84 86 89 88 80 76 74
77 84 91 94 72 69 74 61 46 50 82 72 62 62 53 60 70 78 86 95 97 98 97 97 97 97 98 97 98 98 94 91 87 83 83 84 86 82 81 82 77 70 65 63
70 72 76 76 76 75 63 58 59 75 68 58 57 54 54 55 67 82 84 94 97 97 97 98 97 98 97 96 96 96 97 97 96 91 88 88 88 87 83 80 78 75 72 66
86 92 97 92 95 85 71 66 72 71 67 67 67 65 61 59 72 80 84 93 97 98 97 97 97 95 91 88 90 89 89 89 88 86 86 89 85 81 82 82 81 80 77 72
84 78 84 87 85 76 72 74 72 68 70 74 74 74 71 72 84 85 86 95 97 97 98 95 92 89 84 81 80 79 78 76 74 73 73 74 74 72 69 65 67 68 68 66
89 82 77 78 75 75 82 85 82 79 80 79 84 81 78 86 97 97 92 97 97 97 97 97 93 88 84 81 79 78 76 74 73 73 73 72 68 65 62 59 59 58 58 58
84 84 78 76 76 83 95 95 97 94 91 86 88 87 85 87 97 97 98 97 97 97 97 97 96 93 86 84 81 81 79 78 77 77 76 74 71 68 66 64 63 60 57 55

GFSCGP_prec_cthk_084.txt.gz
RH
33 33 35 38 41 41 41 42 39 41 41 46 42 39 34 30 26 25 15 17 21 22 26 28 25 23 30 40 49 45 43 47 50 48 50 46 51 49 32 25 25 31 42 50
35 37 37 40 42 42 44 40 39 37 35 39 39 46 40 35 35 27 27 15 16 21 24 28 27 26 31 43 49 47 45 48 48 50 49 49 51 46 30 22 26 39 50 58
38 38 44 50 46 48 45 46 41 41 41 40 44 41 41 40 33 37 31 21 17 19 24 29 27 27 39 46 52 49 46 48 48 52 52 53 54 48 36 26 30 46 58 68
34 34 36 42 44 42 47 42 45 55 54 55 43 54 43 44 47 47 38 28 27 23 23 31 30 33 42 41 50 52 49 51 49 53 52 53 48 42 32 25 34 52 58 75
25 31 34 34 37 37 37 47 49 53 52 51 46 45 37 35 41 40 39 41 35 33 26 30 38 41 38 40 44 50 49 48 50 52 53 56 47 39 29 29 37 50 58 67
23 24 27 25 29 40 46 47 50 51 54 61 42 47 41 42 53 65 59 54 53 34 30 32 39 43 46 42 44 47 47 48 53 52 55 57 48 37 29 33 41 50 57 65
45 49 48 48 41 35 42 47 56 58 54 55 70 73 48 66 72 70 63 53 56 54 51 51 56 47 44 45 48 47 45 50 53 54 61 60 50 39 32 35 42 51 55 62
41 41 42 60 53 48 46 50 58 62 67 59 63 90 70 61 76 70 57 52 57 59 58 62 58 50 47 47 51 49 46 49 53 58 62 63 50 42 34 37 42 49 54 59
56 50 52 55 54 51 40 45 50 63 54 59 53 55 80 87 77 69 60 61 62 58 66 69 59 51 57 59 55 48 47 49 54 60 64 66 52 47 41 40 43 46 50 55
52 59 38 49 56 54 48 45 69 88 81 64 45 58 90 87 90 80 68 62 61 61 65 77 69 64 63 67 60 49 47 55 62 65 68 67 58 52 45 44 44 49 50 52
65 61 47 49 73 62 53 48 41 59 71 80 89 94 97 91 89 84 74 68 67 71 68 68 70 69 69 68 59 68 61 68 68 71 70 71 64 55 47 46 48 47 48 49
61 73 73 59 52 57 56 56 63 78 64 71 72 77 89 85 86 77 78 73 70 75 74 71 70 73 72 67 72 79 78 74 75 73 70 74 72 61 48 49 49 49 47 48
55 61 73 60 58 54 63 61 75 71 75 77 91 80 80 78 77 81 77 81 80 81 80 77 68 74 75 78 80 74 75 75 78 75 74 77 73 70 60 50 51 51 50 47
65 66 77 75 79 84 86 81 79 64 76 72 69 79 71 77 77 84 79 81 86 87 86 80 74 73 74 79 80 79 80 79 77 73 74 76 74 72 70 62 53 52 52 51
74 70 68 70 63 73 80 92 80 77 86 69 65 65 72 74 81 85 80 80 86 88 92 90 82 73 77 81 82 85 87 83 82 78 78 82 76 76 74 69 63 55 54 55
79 73 61 64 52 61 76 76 77 78 94 83 74 63 82 80 86 86 82 80 89 90 96 91 92 85 81 84 86 88 89 89 88 84 81 83 82 80 78 77 74 69 63 62
74 94 90 58 64 61 67 54 57 64 74 70 70 84 76 77 81 76 81 85 90 93 94 94 97 94 85 86 91 90 93 90 92 90 86 86 87 84 83 80 79 81 76 71
62 79 88 76 78 76 45 53 52 62 78 80 82 75 71 70 70 73 80 90 90 92 90 96 98 97 96 88 92 93 95 95 94 93 91 91 92 91 90 92 93 93 92 92
64 75 92 91 87 79 68 62 53 68 95 78 76 65 59 59 62 70 74 90 91 91 93 96 96 98 97 96 96 95 99 97 98 99 97 96 97 92 92 95 96 96 95 96
60 70 93 86 96 96 99 78 59 56 90 88 79 66 61 58 60 68 75 79 89 90 92 93 97 97 98 97 97 95 96 99 97 97 99 95 94 94 93 94 95 96 96 96
58 76 83 91 96 98 93 82 58 54 87 84 75 69 61 61 60 62 71 78 82 87 90 91 94 96 97 98 96 96 97 95 98 93 96 97 98 91 97 93 91 88 88 87
65 82 83 89 97 97 81 66 72 80 76 69 65 62 63 59 57 62 71 77 81 88 89 93 93 95 96 97 97 96 96 98 96 98 97 97 97 97 96 96 95 92 82 81
96 95 98 96 98 93 87 75 75 72 68 63 65 67 67 66 66 65 71 80 84 88 89 92 97 96 96 97 96 97 99 96 97 97 97 96 98 97 96 95 94 91 88 84
93 89 96 97 94 87 78 73 69 71 69 69 71 74 74 78 78 78 78 80 85 90 91 92 96 95 93 91 91 92 91 89 89 88 89 92 91 89 88 90 89 91 93 92
91 88 90 89 84 83 78 77 76 77 73 75 78 79 79 83 88 88 89 92 90 95 97 94 96 95 95 93 90 89 86 84 80 77 75 74 75 73 70 68 65 65 65 64
90 89 87 84 81 77 75 86 85 86 91 91 87 85 89 88 85 97 97 97 97 94 97 96 96 96 95 91 90 90 88 87 86 85 84 83 82 79 78 76 72 72 70 68

GFSCGP_prec_cthk_087.txt.gz
RH
32 33 30 29 30 32 35 35 35 32 35 44 40 38 38 42 40 36 33 31 30 25 24 26 29 32 26 24 25 29 38 39 44 50 48 48 49 49 50 51 42 27 23 32
33 33 28 33 34 35 39 40 37 32 35 36 34 34 36 42 37 37 33 29 28 27 21 23 31 29 27 25 29 31 39 41 43 49 52 51 48 48 50 47 40 27 26 37
32 27 31 38 43 45 36 42 38 40 40 39 42 35 38 35 33 35 36 37 34 33 21 18 29 29 28 29 29 34 42 47 45 52 54 48 50 50 51 46 37 22 28 44
31 30 35 40 42 48 39 39 37 39 43 52 49 56 41 35 34 40 47 47 39 35 29 16 28 30 29 31 33 42 48 51 48 54 49 46 50 50 50 46 31 26 34 50
28 28 31 31 29 34 30 32 34 37 45 51 45 52 37 39 38 40 56 59 45 43 37 23 29 30 35 40 41 42 47 47 48 49 45 50 53 55 52 44 33 30 39 48
23 25 30 34 34 35 31 34 38 38 44 57 48 64 62 60 47 50 62 79 64 53 44 36 40 41 45 43 41 44 42 43 46 49 47 55 58 58 57 41 32 35 44 50
34 35 37 38 38 36 42 49 59 48 53 54 52 64 69 78 84 81 78 82 81 68 56 46 39 47 39 46 46 40 41 41 48 48 49 57 60 62 59 42 33 38 44 51
28 27 32 36 40 44 50 52 65 63 60 58 54 63 72 89 93 85 90 88 79 72 65 60 53 43 40 41 55 44 48 48 50 51 54 59 61 67 62 45 39 40 45 50
50 34 32 42 43 47 47 57 48 58 57 66 52 47 77 85 89 92 84 79 67 63 63 63 58 54 49 51 51 53 51 57 55 56 56 60 65 70 64 48 42 40 44 49
55 54 38 55 57 54 46 50 64 75 87 83 61 83 97 92 84 89 89 78 68 66 67 69 69 71 70 62 79 76 67 63 60 58 60 61 65 75 61 54 46 42 44 49
42 59 45 47 62 59 51 49 54 58 68 75 79 79 85 84 80 84 88 83 78 69 66 70 78 83 81 74 90 92 90 86 67 59 62 63 69 74 67 57 47 45 46 49
36 48 56 45 45 54 53 73 73 77 71 68 79 86 86 84 85 85 86 84 84 80 73 73 80 84 84 83 84 90 88 94 64 62 70 70 74 79 73 61 48 49 50 48
38 48 59 35 35 48 75 81 90 88 84 96 94 83 80 74 85 89 87 84 87 87 82 77 74 79 83 83 83 82 87 89 86 82 77 76 83 82 76 68 57 52 52 52
45 49 53 69 52 67 93 86 84 88 98 94 90 75 80 76 90 95 91 86 87 87 92 85 80 76 73 75 81 83 83 88 90 82 81 81 85 84 80 77 69 64 54 52
57 63 68 59 50 61 76 84 78 80 89 96 90 85 81 81 92 97 93 88 84 86 87 89 90 85 81 76 83 86 85 87 88 87 87 89 86 86 84 83 77 74 64 54
50 57 68 70 54 60 67 61 64 72 89 81 83 97 93 83 93 93 88 82 85 87 88 89 91 91 87 79 79 86 89 90 89 89 92 91 89 88 84 83 82 77 75 70
41 56 65 65 75 69 70 59 63 61 87 78 83 96 93 93 88 87 84 79 81 87 90 89 92 94 95 87 80 85 87 91 92 92 93 93 92 92 92 91 86 83 80 78
57 76 76 78 83 86 45 59 69 88 95 95 96 97 95 83 77 75 75 80 78 85 88 90 91 91 92 97 88 83 89 94 94 95 97 96 94 95 94 93 87 86 84 82
79 83 85 89 96 65 57 91 98 89 96 88 86 86 82 74 65 64 72 74 72 78 85 87 92 94 95 97 97 92 91 93 95 99 97 97 94 98 96 94 92 87 87 87
68 82 82 92 97 94 96 95 87 97 96 94 87 80 75 64 58 62 60 68 72 71 80 86 89 91 93 97 99 99 96 93 97 97 99 96 98 97 97 95 95 96 97 95
73 77 81 90 92 93 98 95 93 91 90 89 82 79 71 67 61 58 58 66 72 73 78 85 89 92 93 97 97 97 97 96 91 91 95 98 96 98 98 98 97 96 95 96
74 83 86 89 96 97 93 91 91 93 85 80 74 72 69 64 61 62 62 64 73 75 77 81 91 92 92 96 97 97 97 97 97 94 98 96 97 97 97 96 97 98 97 97
98 99 97 95 98 98 98 91 90 88 80 69 63 68 66 68 68 66 67 70 73 76 80 84 88 93 94 97 97 96 97 95 96 97 97 97 98 97 96 97 97 98 96 98
92 91 98 96 97 94 92 87 80 79 76 72 68 67 66 66 70 76 76 77 78 79 80 84 89 90 91 96 97 96 95 94 95 97 96 96 97 96 96 97 98 97 96 97
90 91 98 98 94 90 87 86 82 80 78 74 73 73 72 71 76 80 82 86 87 87 86 88 96 96 95 98 96 95 95 93 91 92 93 93 94 96 96 95 93 92 91 91
85 83 84 92 89 86 83 79 83 84 84 84 86 82 78 78 79 83 91 94 94 96 96 93 95 97 97 97 97 96 95 94 93 93 91 90 88 90 87 84 82 82 81 80

GFSCGP_prec_cthk_090.txt.gz
RH
33 35 33 26 26 27 30 32 32 26 26 29 27 25 20 27 33 34 33 38 37 37 39 38 37 33 31 26 22 21 26 29 31 54 63 74 62 52 48 48 48 50 47 36
33 34 29 33 35 34 33 34 31 23 25 29 27 23 24 27 31 32 31 37 36 34 37 37 33 31 33 30 27 28 26 30 34 49 57 57 60 55 50 45 51 52 47 36
33 26 31 34 36 35 36 35 33 32 32 29 34 27 25 32 36 36 36 41 46 45 35 29 29 24 28 32 35 34 30 29 33 44 58 58 63 60 50 48 52 54 47 32
35 28 31 33 33 31 36 37 39 38 38 33 32 43 30 38 42 44 38 47 48 47 43 34 36 27 25 36 36 31 30 29 35 43 60 56 55 54 48 50 52 53 42 32
27 25 28 28 25 30 32 38 37 34 35 37 26 46 30 47 77 74 70 64 65 60 62 52 44 30 30 40 34 32 29 32 36 49 60 58 59 53 52 54 57 51 36 29
21 23 25 25 30 31 33 36 39 38 41 47 28 40 44 71 79 76 86 78 78 73 66 64 56 39 32 41 39 40 38 36 46 61 59 57 56 51 52 56 57 50 36 31
30 27 27 29 30 35 38 45 59 57 54 50 34 45 49 68 78 86 83 96 86 86 78 72 62 45 38 46 47 50 55 51 64 64 57 54 54 51 53 58 56 47 35 32
32 29 22 29 35 33 39 52 66 70 61 40 41 46 61 71 75 77 93 95 91 87 83 77 71 54 49 47 49 54 76 68 60 55 52 57 55 55 57 57 58 46 35 40
41 39 29 32 35 37 42 55 57 68 55 66 49 55 77 83 81 82 95 96 94 96 90 84 78 65 58 60 68 63 66 73 61 54 55 58 56 54 59 61 62 52 41 44
34 36 37 30 36 47 52 58 73 78 77 75 53 56 77 75 77 79 93 96 96 91 80 82 78 75 72 70 68 64 65 74 69 64 64 59 51 53 60 62 67 55 44 47
30 38 35 28 43 54 60 65 76 72 74 77 74 64 61 71 78 90 93 94 92 86 79 78 75 78 78 73 66 67 71 84 86 86 76 63 55 57 62 69 69 59 47 51
33 36 42 30 28 33 60 80 87 97 87 84 74 63 60 75 80 86 92 93 92 89 80 76 74 84 84 84 82 82 86 86 96 92 91 73 63 62 67 73 72 61 51 54
29 36 41 22 19 29 49 75 84 87 93 96 97 76 75 78 86 89 93 89 86 87 84 78 75 75 84 94 99 96 95 95 90 89 97 79 70 72 75 78 78 75 60 58
34 39 43 55 42 38 42 53 72 86 90 89 87 82 83 88 91 89 88 89 85 85 83 81 80 79 79 92 98 94 99 97 92 97 89 76 72 79 79 84 85 80 69 62
42 45 48 48 47 47 47 46 60 72 72 96 82 96 96 95 91 89 84 81 82 80 79 82 84 84 81 82 88 92 90 95 91 90 89 95 90 85 87 87 89 86 78 71
45 47 47 32 32 42 56 48 53 60 59 72 83 93 92 96 95 88 86 83 81 77 81 82 85 87 86 80 77 79 81 87 90 93 93 96 96 94 90 89 88 85 84 78
43 55 58 48 51 67 73 57 45 54 69 82 91 92 95 93 96 91 86 85 78 78 80 84 85 84 86 89 82 79 79 86 94 93 97 93 95 96 97 93 92 90 87 83
42 52 64 72 69 88 71 89 78 90 89 96 95 94 92 88 86 85 79 77 76 75 75 82 84 87 86 85 89 88 83 89 94 99 95 97 93 93 94 93 91 90 89 85
66 83 97 83 86 74 73 96 98 97 98 98 95 96 90 88 79 75 70 69 69 72 71 74 80 83 85 85 88 94 91 83 90 93 98 93 94 92 89 93 94 93 91 93
71 80 90 85 96 97 94 93 96 98 97 96 95 91 88 84 75 65 60 59 64 65 68 73 74 81 86 89 94 96 96 93 89 90 95 93 93 97 99 94 95 97 96 93
80 84 82 86 94 90 97 94 98 97 98 97 92 86 84 77 70 64 62 61 64 65 70 73 74 78 84 87 90 94 97 98 95 96 92 93 93 98 96 97 99 97 98 97
96 96 96 96 97 97 94 91 95 98 97 93 87 84 81 76 71 69 65 65 63 68 72 74 73 75 82 87 90 93 94 94 97 97 98 97 93 91 97 97 96 98 97 98
96 98 98 97 97 98 98 99 97 98 94 89 82 74 71 69 73 72 72 69 69 68 72 73 75 78 80 89 92 94 94 94 95 96 98 97 97 97 97 89 92 98 98 97
92 97 97 97 97 96 98 98 97 94 88 75 71 71 70 70 69 70 73 73 73 74 74 77 77 82 85 91 91 91 95 96 97 97 97 97 97 97 97 96 96 98 97 96
85 92 95 97 93 91 88 91 88 85 80 78 76 70 69 68 69 72 74 76 80 78 78 82 84 82 85 92 95 95 96 96 97 97 97 97 97 97 97 97 97 97 96 96
82 81 85 87 86 87 84 83 84 81 80 79 75 76 75 72 74 75 80 82 86 86 85 86 86 88 88 95 96 96 96 97 96 96 95 95 94 94 94 95 95 94 94 95

GFSCGP_prec_cthk_096.txt.gz
RH
46 43 41 39 38 37 38 40 40 35 32 33 30 27 24 21 18 16 15 18 19 22 26 26 23 22 24 29 34 36 38 38 41 40 47 52 54 51 50 56 66 49 50 54
48 45 39 36 34 35 35 37 38 36 34 37 32 25 21 17 15 17 22 24 27 30 34 36 35 29 27 31 34 37 38 39 37 40 42 51 50 50 48 53 67 73 58 58
50 41 38 39 40 42 43 45 42 41 38 36 32 26 17 14 19 23 27 28 31 37 38 40 43 42 35 34 35 37 38 40 39 37 36 41 45 43 48 52 61 88 82 67
45 39 37 42 41 44 47 42 41 39 41 41 31 35 18 22 23 27 27 29 35 37 41 46 52 52 45 39 35 37 38 43 42 44 39 37 33 40 39 44 64 92 94 68
45 39 41 40 38 42 44 39 40 39 39 42 37 36 26 28 30 33 34 41 47 49 53 57 67 66 50 48 47 40 43 44 44 40 46 44 35 36 34 57 65 77 81 69
41 44 44 38 37 41 41 40 38 41 42 45 33 37 31 27 35 37 43 49 52 62 68 74 81 76 60 56 54 48 48 42 40 42 50 50 41 37 45 58 67 76 68 76
40 41 40 42 40 39 38 43 49 50 56 46 38 43 33 30 36 41 48 55 60 67 76 79 83 78 67 66 60 54 49 43 40 43 53 52 49 44 54 58 73 73 71 68
51 46 46 45 41 41 46 51 57 56 56 46 37 45 38 37 43 47 49 53 63 74 83 84 87 89 78 76 69 63 54 46 44 49 55 59 55 53 62 69 74 75 67 61
54 51 45 43 46 52 55 54 52 52 49 53 45 40 36 46 53 57 55 57 72 78 83 87 90 91 89 84 76 71 59 51 54 58 59 57 58 62 63 67 85 81 63 57
51 47 50 46 45 44 46 50 61 64 68 61 49 49 54 58 63 60 58 65 76 82 86 88 92 97 95 89 81 78 66 58 63 72 72 66 67 69 66 75 91 75 63 55
51 44 42 37 41 38 35 40 55 64 73 78 70 61 70 74 68 62 66 70 77 86 87 88 89 94 95 91 87 76 70 69 77 80 79 75 73 72 76 86 79 77 63 58
41 50 48 34 30 34 30 48 46 57 72 79 86 73 71 72 67 60 67 73 82 90 87 88 85 89 90 91 89 84 77 81 81 85 82 75 69 82 77 91 90 81 62 64
38 43 34 32 34 36 37 35 38 42 48 56 71 57 64 67 66 60 71 76 89 91 85 82 84 87 86 88 92 92 89 90 92 88 87 84 81 84 85 93 88 78 68 70
38 40 31 25 23 32 33 33 31 36 52 44 36 38 38 51 53 61 76 84 89 95 85 81 82 89 88 87 94 91 96 96 95 95 93 94 95 97 97 98 91 80 74 74
32 35 37 35 35 35 35 26 20 28 29 46 20 24 21 33 47 64 81 85 90 97 90 85 82 89 93 92 91 90 91 96 98 92 88 95 96 94 99 97 92 83 77 77
33 39 37 37 31 31 29 27 33 38 44 48 35 34 30 40 55 72 82 91 92 95 92 87 82 87 91 94 93 89 87 84 92 93 92 96 98 98 98 98 93 78 80 81
29 35 37 35 36 32 27 33 52 57 64 78 79 62 47 51 62 79 87 92 97 95 89 82 79 81 89 92 92 93 89 86 85 92 92 97 98 97 97 94 99 86 85 86
38 40 43 45 38 43 46 61 63 77 84 88 74 74 72 65 83 81 92 97 96 89 86 77 75 77 82 89 92 90 91 89 86 87 95 90 97 97 97 98 97 95 88 87
49 54 62 68 75 60 65 67 80 88 85 97 87 90 87 79 75 91 91 93 87 81 74 74 75 73 75 79 85 87 91 93 92 88 86 85 98 97 96 97 98 98 94 89
68 67 67 76 87 86 75 80 83 90 93 97 97 98 91 95 96 92 90 78 70 70 66 69 72 73 74 72 75 83 88 92 92 95 91 94 92 91 97 98 99 98 96 98
76 75 76 82 84 82 90 90 88 93 97 97 97 98 96 97 97 93 82 72 68 67 69 72 72 71 72 72 72 76 83 86 91 95 95 93 94 87 97 98 98 98 97 95
84 86 88 87 96 96 93 92 93 97 97 97 97 98 98 96 90 84 78 73 72 71 70 71 72 73 74 74 73 72 73 83 86 90 92 93 93 92 89 88 95 98 95 98
89 89 91 93 96 96 97 97 97 97 97 97 97 98 94 89 85 85 84 80 80 78 77 76 75 75 74 74 74 75 76 76 81 85 86 87 88 91 91 90 90 86 91 94
85 87 94 97 97 97 97 97 97 97 97 97 97 92 86 81 79 78 78 78 76 75 75 74 75 78 76 75 75 76 76 78 80 81 84 87 88 89 89 92 93 91 90 91
83 87 91 96 97 97 97 97 97 97 97 95 92 86 82 78 78 77 75 73 72 72 72 73 74 75 76 77 78 78 79 79 81 84 86 88 89 89 89 90 91 90 93 95
75 81 85 91 90 92 97 97 97 97 97 96 91 86 79 75 73 72 71 70 71 72 73 73 76 76 76 76 75 76 78 80 82 83 85 88 91 94 93 93 93 92 93 95

GFSCGP_prec_cthk_102.txt.gz
RH
69 72 50 60 60 59 59 53 49 46 44 41 37 33 30 32 31 30 28 29 31 30 28 27 25 23 21 20 20 20 17 16 15 17 19 25 30 34 40 63 66 56 51 51
75 67 65 65 63 62 61 55 49 49 45 39 37 36 34 32 31 29 28 32 34 30 29 26 24 23 25 25 25 23 22 21 22 22 23 27 34 32 33 45 56 61 62 56
79 71 67 65 65 65 63 57 51 46 47 44 41 37 33 31 31 32 33 33 33 34 32 29 25 24 25 26 29 30 32 28 26 29 26 26 35 40 37 35 42 46 62 62
80 71 66 70 65 62 58 53 48 50 50 45 45 37 35 31 32 31 35 38 40 36 32 30 29 28 30 31 34 38 38 38 37 35 37 34 37 44 40 41 38 43 59 63
73 76 79 83 66 62 56 58 55 53 57 52 46 43 33 33 33 37 40 41 40 35 33 32 32 32 34 36 39 43 45 47 50 50 48 42 37 45 51 55 50 47 51 58
88 88 86 80 79 73 64 58 57 59 54 55 43 42 35 38 35 41 45 44 40 38 36 36 35 35 37 40 46 51 55 57 62 62 51 45 41 44 55 58 59 52 50 56
87 83 70 63 64 68 75 65 71 70 66 52 44 38 36 46 44 45 48 45 43 41 41 38 37 37 38 43 50 61 66 63 62 56 51 47 42 45 56 63 68 65 57 60
76 76 67 64 62 64 59 61 69 68 54 47 50 41 56 55 53 52 48 49 48 45 41 38 36 39 41 45 54 69 74 65 67 64 57 51 45 47 60 71 74 73 63 59
68 71 64 62 63 63 65 64 56 59 56 56 48 53 65 66 60 57 55 54 48 43 40 39 37 38 44 47 62 72 80 76 74 66 59 57 60 65 72 69 76 79 75 65
68 73 67 60 63 63 66 63 68 65 64 57 44 45 52 76 65 57 55 49 49 47 46 43 38 40 46 52 69 79 90 83 80 74 69 72 77 69 67 72 76 77 73 64
67 67 68 64 63 60 59 65 68 68 70 64 56 53 72 68 60 57 55 52 50 48 48 46 41 42 51 57 73 82 91 87 83 81 76 75 73 70 68 69 74 80 71 63
69 62 59 61 61 56 53 57 56 59 59 59 65 58 69 64 61 57 56 51 50 50 46 42 36 43 55 63 76 82 89 92 90 86 83 79 75 73 81 81 78 84 82 77
67 63 69 64 61 57 56 56 53 52 48 50 53 51 65 60 52 43 44 37 34 36 37 38 38 46 61 65 75 84 93 93 96 90 91 91 90 88 89 89 92 89 89 83
63 58 53 50 54 55 58 56 50 48 51 39 36 28 45 34 23 30 43 36 32 32 39 45 51 54 64 71 76 81 90 97 98 95 93 96 94 95 98 91 97 97 94 86
59 54 48 49 51 46 41 36 32 28 21 27 17 18 18 31 40 42 44 44 36 38 51 58 61 63 75 76 77 85 92 96 95 94 97 94 98 90 98 95 96 98 91 85
56 58 47 39 36 32 26 22 22 21 19 22 23 27 49 46 54 56 56 53 46 46 62 68 70 77 86 76 78 90 93 96 97 97 98 98 97 96 96 95 94 94 97 95
42 40 30 23 24 23 21 24 25 25 28 42 48 52 49 58 68 65 65 65 57 58 68 76 86 89 87 81 83 91 95 96 98 98 94 95 99 98 97 94 97 99 96 94
26 24 25 27 28 42 52 45 48 50 53 58 59 59 64 77 81 75 75 70 64 74 88 85 94 90 86 83 85 91 95 97 98 98 96 95 98 98 98 99 97 98 99 98
28 35 43 51 48 44 58 61 65 69 67 68 68 70 84 89 88 86 80 70 93 97 96 95 91 90 87 86 86 86 90 95 97 98 98 97 94 97 98 98 96 96 97 98
46 47 55 55 59 60 74 69 72 80 79 78 78 86 87 90 87 94 97 97 97 97 95 90 89 90 89 85 83 79 81 89 94 96 97 98 96 98 96 97 97 99 99 99
61 61 59 61 67 75 76 77 83 86 89 91 88 89 93 94 94 96 96 97 97 93 90 91 90 87 84 83 81 77 77 78 85 90 94 95 95 96 95 95 97 98 98 98
63 67 68 64 73 81 78 79 87 94 95 95 96 97 98 97 97 97 97 97 94 90 90 90 88 83 81 79 78 77 75 75 75 77 84 89 90 89 91 94 97 97 97 98
74 74 77 78 80 83 84 88 92 95 96 97 97 97 97 97 97 97 97 97 97 93 88 86 83 81 79 77 75 73 73 72 71 70 71 73 77 83 88 86 88 94 96 96
73 76 78 81 82 86 87 92 96 97 97 97 97 97 97 97 97 97 97 97 95 92 88 83 79 75 73 72 71 69 68 68 69 69 69 70 70 71 73 78 84 85 88 90
72 76 79 86 87 88 90 94 96 97 97 97 97 97 95 90 88 88 86 83 78 74 69 67 66 64 63 63 63 62 60 60 61 62 63 65 67 69 70 71 72 75 81 84
67 74 75 84 88 93 94 97 97 97 97 98 97 92 88 85 82 79 76 73 71 68 67 64 60 58 57 53 49 47 49 48 50 51 51 52 56 60 64 67 69 71 74 75

GFSCGP_prec_cthk_105.txt.gz
RH
39 47 39 43 56 64 61 66 65 51 49 51 42 37 41 41 38 35 34 35 34 39 46 42 38 32 31 30 24 21 19 18 17 17 18 20 22 27 36 45 57 65 70 72
46 55 36 51 61 72 70 64 62 64 57 52 49 43 42 40 38 39 39 38 41 48 45 42 34 30 29 26 25 23 22 21 20 18 18 18 20 19 31 40 39 50 55 69
48 38 44 48 76 82 78 77 62 70 70 56 49 43 44 44 42 41 40 42 52 49 42 36 31 30 30 27 26 26 27 27 28 27 25 24 23 21 21 33 38 38 44 51
54 43 56 53 67 80 89 76 69 73 66 56 49 51 46 43 44 42 47 51 50 49 39 35 31 30 30 30 28 29 31 33 36 37 35 34 32 30 26 29 47 35 37 53
55 61 61 56 54 72 81 77 78 75 64 56 55 54 45 44 44 49 56 58 57 45 39 34 33 31 32 33 31 31 34 37 41 43 43 42 39 39 41 33 49 45 42 44
76 83 75 69 75 83 89 86 76 71 66 69 63 59 49 48 44 55 63 67 56 45 41 37 35 33 33 37 36 35 37 42 44 48 50 50 51 50 52 49 52 52 47 44
83 79 85 81 86 84 89 94 90 87 82 74 56 57 53 53 48 58 76 68 52 46 41 39 36 34 35 35 35 38 38 42 47 53 55 56 58 57 54 48 48 62 57 49
90 88 79 80 78 85 81 85 80 84 79 68 59 60 75 70 69 76 71 56 51 48 44 40 37 36 33 34 37 39 40 43 52 60 62 59 60 56 48 45 43 58 63 53
77 71 65 65 70 72 85 76 64 72 70 66 74 73 74 78 74 69 69 61 55 50 46 40 40 40 37 33 38 38 42 47 59 66 69 67 65 59 53 48 45 58 63 61
79 80 65 64 59 64 69 72 72 75 80 63 58 64 70 83 75 70 65 59 53 51 43 41 42 41 39 31 37 41 45 50 64 77 76 72 67 64 63 68 56 61 66 71
73 72 73 65 59 63 64 84 76 83 74 71 65 74 87 86 82 80 74 63 59 54 44 42 40 38 34 32 39 43 46 51 65 78 81 76 73 70 80 84 82 73 78 80
73 77 75 64 66 64 65 60 72 87 72 83 69 74 86 81 78 76 69 62 60 54 43 38 35 32 36 37 41 46 47 53 68 78 85 83 79 77 76 77 82 79 76 82
70 75 69 63 64 60 58 58 59 59 56 53 64 69 82 72 67 59 47 56 50 45 35 30 33 36 41 43 46 48 48 56 67 78 87 88 83 87 83 79 78 82 86 81
71 68 67 67 65 60 61 58 55 56 61 52 49 44 66 54 48 58 60 55 45 42 37 34 39 46 49 51 52 51 52 59 70 80 86 85 89 94 95 89 88 88 87 84
76 73 63 58 54 51 51 55 55 51 48 48 41 40 38 53 61 54 44 49 48 47 44 43 46 52 56 56 56 59 57 66 78 84 89 93 97 98 97 95 98 97 95 93
66 65 62 59 54 48 44 40 33 30 27 25 25 25 50 50 48 52 49 54 53 52 51 50 53 60 62 62 62 62 65 76 85 91 95 95 97 98 96 97 98 95 97 99
62 62 52 43 41 31 25 27 23 22 22 29 36 50 50 51 49 54 60 62 60 61 57 57 61 69 70 73 70 72 76 85 92 95 97 96 96 98 97 96 95 93 99 98
50 44 36 33 26 28 48 45 40 38 40 47 45 45 47 55 58 65 73 72 68 63 62 67 72 81 82 83 83 83 86 92 96 96 97 97 96 97 98 99 99 99 94 95
34 33 37 43 35 52 46 46 51 53 59 57 58 59 60 69 74 83 81 78 75 73 76 92 96 91 95 97 94 94 92 91 95 97 97 97 97 97 97 98 98 96 92 93
30 36 43 46 56 58 74 55 56 63 68 72 75 75 77 84 91 86 89 96 95 97 97 96 97 97 97 97 96 93 90 88 91 94 97 97 97 97 97 97 96 96 94 95
47 49 51 53 54 79 66 58 65 78 83 83 86 84 84 90 91 88 94 97 97 97 97 97 97 97 97 97 92 92 86 83 84 89 91 94 95 93 95 97 97 96 96 97
53 53 52 53 65 78 68 66 74 82 85 89 90 94 95 95 90 92 95 96 97 97 97 97 97 97 95 93 91 90 84 79 77 75 75 81 84 86 90 88 91 97 97 97
67 72 86 72 85 73 71 77 81 86 90 97 95 95 96 95 95 96 97 97 97 97 97 97 98 93 87 83 80 77 75 73 72 70 70 70 69 73 76 79 85 85 89 94
61 64 70 70 72 74 77 81 90 94 94 93 94 96 96 96 97 97 97 97 97 96 95 89 85 79 75 71 68 65 63 60 58 59 59 60 61 61 62 64 67 74 79 86
62 68 73 77 78 76 80 86 91 92 95 96 96 96 96 97 95 93 92 88 86 82 77 73 69 65 60 57 55 52 50 48 46 46 46 47 48 50 52 53 55 58 62 67
63 75 74 80 77 81 82 89 91 94 94 96 95 92 92 88 86 83 81 80 77 73 67 62 58 54 51 45 39 43 42 40 38 37 37 37 37 37 38 40 42 44 47 49

GFSCGP_prec_cthk_108.txt.gz
RH
32 37 35 30 29 36 40 44 49 38 38 59 63 64 49 48 46 43 38 41 44 45 47 52 54 52 42 35 31 28 27 25 24 23 24 25 25 26 27 28 34 45 52 51
35 28 28 32 35 42 48 54 51 55 44 53 67 68 63 51 47 46 44 43 46 50 54 59 59 51 40 34 28 26 25 22 22 22 20 18 16 15 16 17 26 33 32 44
39 35 40 42 45 46 42 51 48 57 65 62 66 71 64 50 48 46 46 44 49 55 61 64 61 49 39 35 29 27 26 25 24 25 24 24 23 21 17 14 17 24 31 32
45 44 48 44 44 53 55 56 60 57 75 83 77 87 63 50 48 46 46 48 59 67 69 66 54 45 38 34 32 31 30 27 26 26 28 29 30 30 29 28 22 22 33 39
42 54 55 50 46 58 65 70 70 79 81 82 67 83 45 50 57 55 54 61 73 76 72 62 50 41 36 33 32 31 30 29 27 29 32 34 36 37 35 34 32 30 31 48
58 68 64 61 59 63 74 81 85 90 90 92 61 75 63 70 60 56 59 74 79 76 72 54 46 39 35 32 32 32 29 30 32 36 39 42 43 41 38 38 41 36 35 43
67 60 62 62 62 64 72 89 94 95 95 70 63 75 72 72 74 57 78 84 82 77 58 53 45 44 41 36 31 29 30 33 39 40 45 46 45 44 44 42 44 47 40 52
72 67 63 66 64 68 72 84 83 93 90 74 71 93 87 86 80 83 83 90 85 70 56 48 46 41 39 34 31 29 27 35 40 41 43 48 48 49 46 52 55 50 45 52
73 70 66 64 63 68 79 84 72 82 84 96 82 79 80 91 88 90 92 91 83 62 57 53 50 48 41 38 37 34 29 37 41 42 43 48 51 56 59 64 62 54 46 41
85 74 73 72 68 63 63 73 98 95 93 91 66 77 91 87 85 86 88 84 80 73 61 51 49 46 42 38 36 32 36 38 40 41 43 45 53 61 71 71 71 60 56 47
85 70 73 77 68 62 68 66 91 98 74 86 75 96 98 97 95 87 81 76 71 65 62 56 51 48 42 40 36 36 37 38 40 42 44 44 54 66 73 75 78 78 73 74
78 74 75 71 64 60 60 69 86 98 95 95 91 83 94 96 88 77 69 69 70 71 66 57 52 43 37 35 39 40 43 41 43 45 44 44 51 69 78 76 76 83 82 85
74 75 74 80 72 56 55 61 65 69 68 66 70 68 86 83 75 73 67 67 64 62 55 48 45 42 40 40 41 45 45 45 48 47 47 50 52 64 80 82 80 81 83 88
75 71 72 80 79 63 58 58 60 60 67 59 60 68 79 67 60 68 70 67 61 50 49 47 45 46 45 46 50 47 50 51 52 52 52 56 59 68 76 84 84 85 88 87
74 76 70 69 56 56 61 53 50 47 51 59 57 52 66 65 69 69 61 57 53 48 47 45 45 46 45 50 53 56 57 55 54 58 59 62 65 77 82 89 91 86 90 92
79 83 77 71 60 55 53 47 48 48 47 45 45 47 67 68 65 61 51 45 44 48 46 50 50 51 54 53 58 60 59 59 63 62 63 68 73 86 88 90 89 91 93 92
78 77 72 67 62 56 53 49 41 40 34 38 37 58 60 50 49 52 50 48 52 59 60 57 59 59 61 61 69 69 69 67 66 66 71 76 83 91 93 94 97 96 97 98
72 69 61 57 51 45 55 47 41 37 47 47 46 51 54 54 51 55 58 60 66 72 69 65 66 68 71 71 77 79 80 82 78 77 80 87 92 95 95 96 97 97 98 98
53 52 49 50 40 55 55 49 48 42 53 48 50 50 54 58 61 67 73 82 79 81 73 77 82 87 88 89 88 87 91 88 87 88 93 95 97 97 97 97 98 98 97 98
47 49 54 46 49 56 76 59 52 49 61 62 68 67 71 75 77 82 84 82 91 90 89 93 97 98 93 97 97 97 98 96 95 95 94 96 97 97 97 97 97 97 97 98
55 45 44 49 48 71 65 59 55 62 69 74 77 78 81 81 84 88 86 87 95 97 98 98 98 97 97 97 97 97 97 96 94 91 90 91 90 90 93 95 95 96 97 98
44 45 45 50 59 66 66 61 62 68 72 77 81 84 87 92 91 91 89 93 96 97 97 97 97 96 97 97 97 96 92 88 84 82 79 78 78 80 81 83 84 88 93 96
65 64 74 68 77 72 66 64 67 74 80 90 90 91 94 93 88 88 95 96 97 97 97 97 97 96 94 89 82 75 70 63 60 59 59 59 56 54 55 57 63 69 73 76
51 56 69 72 67 64 64 69 75 81 88 88 90 94 94 96 96 96 96 97 97 97 96 92 85 77 70 66 59 56 57 52 46 41 42 41 40 40 40 40 40 42 44 49
50 54 60 66 70 69 69 74 83 87 87 89 90 93 94 95 96 96 94 90 88 84 79 73 68 60 52 46 44 42 40 36 34 32 29 30 29 30 30 30 30 29 30 27
58 64 63 73 65 71 72 77 85 87 91 94 92 90 89 84 83 82 81 80 74 62 57 54 50 44 38 30 25 24 25 26 25 26 26 24 25 25 25 25 26 27 28 27

GFSCGP_prec_cthk_111.txt.gz
RH
26 33 36 26 30 33 34 38 38 29 33 44 35 39 38 32 51 58 50 49 48 50 53 50 45 45 47 49 50 41 34 33 29 27 25 24 22 23 24 25 32 38 46 55
32 30 26 29 35 40 42 42 38 33 32 45 40 39 35 29 26 58 60 55 51 56 59 59 56 56 55 55 50 39 34 32 28 25 24 23 22 20 20 18 19 21 27 35
33 27 31 37 40 46 42 50 47 44 40 39 47 41 35 22 32 56 62 55 54 58 60 66 61 61 61 57 50 39 36 32 28 25 23 22 22 21 20 18 17 14 15 19
39 38 38 41 42 53 44 52 58 56 62 63 62 75 37 33 44 49 62 61 62 69 72 55 56 61 63 58 44 41 38 32 29 27 24 25 26 24 23 22 20 19 19 20
36 39 44 47 46 55 54 55 59 63 70 73 57 87 42 50 43 50 65 72 77 79 71 59 59 64 61 56 42 39 37 32 29 28 29 29 29 30 27 26 26 26 26 26
41 49 55 53 54 56 59 61 62 68 79 80 62 76 49 56 56 64 84 81 79 80 78 68 62 68 66 56 38 34 31 29 27 27 30 30 30 31 33 31 30 30 30 29
54 54 57 64 64 61 63 68 84 80 83 72 55 70 67 63 69 72 86 94 87 81 78 81 74 75 66 54 41 36 32 30 26 26 29 32 34 34 38 38 34 33 31 32
64 66 56 61 61 64 65 69 85 86 82 79 72 84 74 82 95 95 97 95 93 91 88 83 77 68 51 46 44 41 40 37 32 28 28 33 35 35 40 40 40 42 43 42
72 67 63 61 64 67 73 79 74 84 77 82 65 66 79 88 97 95 96 93 87 88 83 77 69 54 47 46 43 38 32 29 29 30 31 35 36 37 39 41 46 47 49 51
76 82 66 69 71 66 65 70 89 93 90 87 65 80 98 98 99 98 96 90 90 89 83 78 67 62 60 55 50 42 36 36 36 35 35 37 38 37 37 44 47 52 54 61
83 82 76 72 70 67 69 79 85 89 94 96 84 96 98 98 97 97 95 91 90 85 84 80 74 66 60 50 46 42 40 40 39 38 38 40 41 40 40 44 50 53 57 64
86 86 84 74 66 68 69 71 80 96 92 98 98 98 98 94 93 96 86 81 83 84 84 74 64 54 50 47 44 45 45 43 43 43 42 42 43 46 44 46 48 55 61 67
92 98 91 77 69 67 69 66 75 79 88 85 86 91 91 94 86 79 84 81 77 74 66 58 52 49 47 44 44 46 48 50 51 48 45 45 50 50 49 49 49 57 62 70
82 82 77 76 77 72 70 65 65 74 85 76 71 82 86 77 82 78 74 73 66 61 56 50 47 47 48 46 49 49 51 54 51 52 51 52 53 53 54 52 55 58 64 74
87 87 78 71 72 62 66 63 64 67 65 70 64 76 81 77 75 75 74 68 61 57 53 48 46 47 49 49 49 53 53 54 57 58 58 60 60 58 55 56 60 63 74 79
87 92 80 78 72 58 59 59 54 53 55 56 64 76 75 73 72 71 68 63 57 54 54 55 55 53 51 48 51 52 56 61 64 63 67 66 66 64 62 63 66 73 80 86
84 87 83 89 75 70 62 61 61 63 67 65 67 73 71 64 62 62 59 57 53 53 54 54 54 51 52 54 58 61 62 69 69 69 71 72 72 71 69 68 75 84 88 91
85 86 83 78 66 74 70 65 64 67 65 60 53 52 52 52 51 50 47 46 49 51 53 61 55 57 63 67 70 70 74 76 80 80 81 81 80 79 79 80 85 92 94 93
80 79 75 77 73 79 69 67 63 58 56 48 50 53 52 53 51 52 56 60 64 68 70 74 76 78 83 82 88 87 89 90 92 91 93 91 89 92 95 96 95 97 97 96
69 66 71 67 74 72 68 53 58 52 53 47 53 59 66 66 69 77 77 76 73 80 84 90 94 96 96 97 97 97 97 97 97 96 94 94 92 91 90 94 95 97 97 97
68 69 70 73 69 70 65 59 60 62 53 54 62 70 71 76 79 80 81 84 83 92 95 96 96 97 97 97 97 97 96 96 95 92 88 82 80 79 78 81 82 84 86 91
71 73 67 53 62 71 63 64 64 61 59 63 71 79 80 82 87 89 88 86 91 96 96 97 97 97 97 97 95 91 86 79 77 73 70 63 56 52 49 52 56 57 59 63
70 61 62 59 67 70 68 67 61 59 69 78 81 84 87 90 91 86 90 96 96 97 97 97 97 93 86 81 76 69 63 57 53 50 46 42 37 37 37 30 26 27 30 37
64 59 66 68 67 69 64 62 62 69 80 85 85 87 92 93 94 96 96 96 97 97 95 88 79 73 68 61 56 53 42 33 29 25 23 23 23 23 24 23 22 23 21 17
56 54 59 67 71 65 62 64 70 79 84 87 88 92 95 95 97 96 95 94 89 83 79 72 59 48 39 32 26 25 23 23 23 23 21 21 22 23 23 24 24 24 24 21
60 55 54 61 56 61 65 68 73 83 88 89 90 91 91 89 89 88 85 81 74 64 53 45 36 27 23 22 21 20 20 20 21 22 22 22 23 24 24 23 24 24 24 23

GFSCGP_prec_cthk_114.txt.gz
RH
34 39 38 27 28 27 29 33 33 31 32 33 36 27 25 23 26 22 18 24 50 57 64 55 46 39 37 39 41 41 44 45 44 38 34 31 29 29 27 30 34 40 42 47
38 40 31 32 33 35 38 42 38 28 31 38 37 32 27 21 25 23 19 22 67 79 77 68 63 54 47 44 44 44 45 49 47 37 34 33 30 26 24 24 25 25 28 36
36 31 31 36 39 40 41 42 40 40 41 41 48 39 25 23 23 26 26 24 56 67 82 77 69 63 60 55 56 53 49 50 48 38 34 32 30 27 24 23 23 22 21 20
42 38 35 36 40 42 46 48 51 53 54 54 55 61 23 25 27 34 40 39 52 66 80 75 75 71 64 63 57 57 54 56 47 36 33 32 30 26 25 23 22 20 21 20
37 37 40 47 43 47 50 53 56 59 62 65 52 70 28 31 38 50 59 58 62 70 90 89 79 72 67 62 57 57 53 51 42 34 28 28 29 27 25 24 24 24 23 25
40 38 41 44 51 56 59 61 63 65 68 71 48 60 41 46 56 72 79 82 76 74 81 82 83 79 69 63 58 57 58 56 44 38 32 30 30 28 26 25 25 26 27 28
41 40 43 49 59 61 66 74 82 77 73 63 50 60 54 77 78 80 84 89 95 90 93 87 81 78 70 65 62 65 67 58 46 31 30 34 32 32 30 27 26 28 30 34
58 52 47 49 56 66 72 72 82 84 76 69 55 67 78 79 84 89 93 98 92 98 96 91 84 77 75 71 66 62 51 41 35 37 31 28 32 33 33 33 33 32 36 37
64 61 54 58 63 67 76 79 74 85 81 80 60 68 80 88 92 97 98 98 99 98 98 93 82 81 77 71 64 58 48 41 38 37 37 34 33 34 33 36 35 35 37 38
64 68 64 64 69 69 76 76 88 89 90 86 68 83 87 90 98 97 98 97 97 98 97 96 91 82 72 67 59 57 52 48 46 49 46 45 40 34 36 38 39 38 35 37
75 80 71 69 73 73 85 81 84 86 90 88 85 86 91 95 96 96 98 96 96 95 88 82 79 77 76 68 59 51 45 42 39 39 40 42 43 42 42 40 41 39 37 36
81 83 81 69 76 72 73 74 82 94 89 93 88 96 89 92 96 88 86 91 89 85 81 71 61 57 58 60 57 51 48 44 42 43 45 47 48 45 42 42 43 41 40 41
72 83 84 95 83 75 74 72 74 82 94 93 90 88 90 91 89 83 80 78 77 75 75 72 68 59 55 53 50 49 47 45 44 47 49 50 50 47 46 45 43 42 44 47
69 81 88 90 83 77 74 72 75 83 96 83 75 85 87 88 85 83 80 76 72 70 69 68 65 58 57 56 52 50 50 48 48 51 51 54 55 54 52 52 48 48 50 52
63 76 84 82 77 76 72 62 65 77 79 80 68 81 85 84 82 82 81 77 72 67 63 62 56 53 55 55 54 53 51 53 55 55 58 59 61 60 61 57 54 54 56 56
69 89 92 93 81 71 64 63 59 63 68 77 73 80 78 80 80 81 78 71 61 57 54 49 51 52 56 55 57 57 58 59 60 60 61 64 67 72 70 65 63 63 62 62
83 92 96 95 91 89 79 61 69 69 71 74 75 70 74 81 77 69 63 61 59 55 54 57 60 63 60 59 62 65 68 67 64 66 67 69 71 70 71 72 72 71 69 73
84 91 93 93 90 96 78 74 70 75 80 77 76 77 72 69 63 57 54 52 51 52 58 62 63 65 66 67 72 76 74 73 74 73 74 73 77 79 81 81 79 79 80 83
81 90 98 91 86 85 80 75 76 73 75 68 65 63 60 55 52 54 53 55 60 65 67 69 73 76 82 83 84 85 85 85 85 86 85 83 82 83 82 81 82 81 84 90
86 83 87 88 82 89 80 73 67 61 66 60 53 47 48 53 60 67 69 71 74 76 76 84 87 91 94 95 96 96 96 97 96 93 87 82 78 74 72 69 68 73 79 84
81 85 80 83 84 83 73 69 65 62 58 53 50 53 56 63 68 72 77 80 79 81 85 89 93 95 95 96 97 96 92 87 79 76 65 57 51 45 42 42 47 47 49 52
81 81 83 82 85 81 68 60 59 58 56 55 55 58 72 79 78 82 83 87 85 88 93 93 93 93 94 94 88 83 76 67 58 51 46 39 35 35 36 35 34 30 27 28
81 76 81 82 74 63 57 60 62 55 53 60 66 73 76 82 86 87 85 87 90 93 93 93 90 86 82 75 67 60 52 47 40 32 26 23 20 19 17 16 16 15 17 21
84 74 76 67 58 54 65 68 62 56 61 72 75 75 79 83 88 86 89 92 92 92 88 79 70 66 60 53 47 34 28 25 20 19 19 19 20 21 22 21 20 20 18 18
77 72 65 65 68 64 67 60 58 63 70 78 80 81 84 87 90 91 91 90 88 81 73 65 59 48 34 25 20 19 19 19 20 21 23 25 26 26 26 25 26 24 21 18
75 66 57 56 61 62 58 60 62 68 75 81 83 86 89 90 91 90 88 84 78 71 61 43 28 22 19 20 21 22 21 22 26 27 26 26 26 26 24 23 22 24 22 20

GFSCGP_prec_cthk_117.txt.gz
RH
35 38 39 30 34 34 33 35 38 34 32 33 29 25 22 27 26 23 20 22 22 24 24 30 39 46 48 50 47 41 40 39 38 38 39 38 39 36 38 35 35 38 43 46
40 44 34 34 37 40 38 40 40 40 37 37 34 28 25 28 26 23 21 25 28 32 34 34 40 52 66 60 56 53 49 46 44 41 43 47 45 39 35 35 34 32 31 31
42 37 33 40 42 43 41 45 44 43 45 42 43 33 23 25 26 25 26 29 34 40 47 46 50 63 82 79 71 64 59 56 53 50 50 47 46 43 37 35 33 32 30 28
45 38 35 39 44 43 49 42 47 48 49 56 51 54 28 31 37 40 44 46 50 56 65 66 64 63 75 84 78 71 63 56 52 53 52 50 46 32 33 32 29 28 28 28
40 37 41 41 36 42 45 49 53 53 58 61 59 62 40 42 49 54 57 61 67 70 80 87 86 77 70 81 84 74 67 59 55 51 50 48 47 36 30 28 27 25 25 27
43 42 45 46 48 49 53 57 60 67 68 71 53 56 51 58 59 60 64 69 75 81 89 95 93 86 77 76 78 75 68 62 55 56 56 58 42 44 32 27 26 23 22 23
43 45 43 47 55 59 60 66 85 78 75 67 56 64 66 65 64 64 69 75 83 92 93 97 97 88 91 89 81 71 69 65 61 56 54 52 49 39 40 36 28 26 22 23
53 50 48 46 48 58 64 69 79 80 76 71 66 67 72 69 71 71 76 83 88 94 98 97 95 91 85 84 79 73 74 70 65 58 50 43 42 39 45 37 36 33 32 29
58 56 49 54 57 63 73 78 73 87 87 88 69 78 78 79 79 82 85 89 90 95 97 98 96 98 94 88 81 72 71 67 59 53 48 47 47 46 46 45 40 38 41 41
56 65 58 62 65 71 69 76 88 91 89 90 72 75 80 83 87 89 95 98 98 96 92 89 89 86 89 87 75 69 67 62 54 55 52 46 47 49 47 51 51 41 39 37
64 72 67 71 71 75 78 84 84 84 89 89 89 77 75 82 88 92 94 93 92 90 91 91 87 87 79 71 79 82 76 66 64 55 50 49 42 41 39 39 43 52 44 39
65 84 86 82 80 76 73 68 86 87 89 87 88 77 75 78 84 89 87 85 82 79 75 74 75 72 71 68 56 55 51 50 51 50 49 46 42 42 40 41 42 42 45 44
75 86 89 85 80 75 80 77 84 85 84 87 92 76 82 81 83 84 84 83 79 72 68 63 62 65 63 62 57 53 53 55 53 51 49 48 46 45 45 46 46 46 44 42
78 89 87 82 76 66 75 87 85 86 94 82 84 81 86 88 79 81 83 82 77 71 64 56 54 52 49 47 54 56 58 61 61 56 54 53 53 52 49 49 51 52 50 52
77 92 92 81 71 70 80 93 91 87 76 87 76 86 83 82 79 85 87 85 80 72 61 54 48 48 51 58 60 61 62 61 58 56 61 63 62 60 59 59 58 59 59 57
81 86 86 75 68 69 77 79 61 65 78 83 85 91 86 82 82 87 89 88 81 68 61 54 53 58 61 63 63 63 66 66 66 68 68 70 66 65 69 67 67 67 66 63
89 89 88 74 75 91 95 69 69 74 79 83 87 80 85 84 82 85 85 83 74 65 57 56 61 66 66 70 72 73 72 72 70 72 73 73 72 72 71 68 70 71 71 70
91 87 88 86 88 95 77 79 79 79 79 76 75 76 75 81 85 85 77 69 63 55 57 63 69 68 72 75 81 80 77 77 78 79 77 74 74 71 70 68 67 67 68 67
77 82 88 92 89 82 78 79 81 76 80 79 81 83 84 85 75 69 62 53 54 60 64 68 68 73 76 81 83 84 86 86 86 83 81 78 75 70 65 58 53 50 49 50
79 84 93 95 93 90 75 76 76 77 77 75 72 70 69 66 63 55 54 59 63 68 72 73 76 80 86 89 91 94 96 95 89 79 71 63 55 45 38 33 32 33 37 41
93 97 92 92 90 81 75 75 74 74 66 66 65 63 57 52 53 58 64 65 68 74 77 78 82 87 89 91 92 85 82 79 74 58 47 40 31 29 30 33 36 35 35 33
83 91 93 88 91 81 74 77 77 71 69 57 54 53 54 57 64 74 77 76 78 82 83 87 88 91 92 89 85 78 66 51 43 41 35 34 31 23 17 14 14 14 16 15
83 79 82 82 79 78 78 76 69 61 57 54 50 55 63 71 75 80 83 81 80 83 88 90 89 85 81 73 61 51 50 44 33 24 19 19 18 18 18 17 17 15 15 18
80 79 87 85 82 83 81 65 61 60 54 52 60 67 71 74 80 86 86 83 87 91 86 83 81 75 63 52 48 32 30 26 22 21 22 22 22 23 24 23 21 18 16 17
84 84 84 82 82 76 65 52 63 63 55 59 69 71 74 79 84 86 86 89 91 87 78 70 64 52 42 35 22 20 21 22 23 23 24 25 26 25 24 23 21 19 19 19
82 84 79 70 60 63 59 64 60 56 60 67 73 76 80 82 86 90 92 91 84 74 66 59 45 27 22 21 21 22 22 23 23 24 25 25 24 23 22 21 21 21 21 19

GFSCGP_prec_cthk_123.txt.gz
RH
34 36 32 29 31 30 31 34 37 35 32 37 34 36 33 34 37 35 34 34 35 35 36 34 33 33 34 34 35 36 37 41 44 45 45 48 49 50 49 43 39 35 32 35
37 41 34 35 38 38 38 40 38 37 35 38 38 37 40 43 45 44 42 41 42 42 41 40 39 38 38 38 38 40 40 43 45 48 52 57 56 56 50 45 42 41 40 37
37 33 33 37 40 40 42 41 40 42 41 39 40 40 47 47 49 48 46 46 46 46 46 46 45 44 43 44 44 44 46 46 47 52 53 57 64 63 59 60 50 46 45 43
42 38 39 39 38 39 45 38 40 43 44 46 44 49 46 52 50 49 50 50 51 49 50 50 50 50 50 48 51 50 52 53 58 57 57 56 61 59 68 62 56 52 53 51
38 39 41 43 39 41 42 41 43 46 51 52 51 53 50 50 49 55 53 53 53 53 54 52 54 54 56 57 59 60 67 66 66 69 69 70 64 65 69 67 61 57 59 57
40 40 39 39 41 43 46 50 52 54 55 57 46 48 46 49 50 54 56 56 56 57 57 58 58 59 60 63 65 74 81 85 76 76 85 83 86 84 69 67 62 64 60 56
46 43 41 41 45 49 49 55 59 64 68 56 51 56 41 50 53 55 57 60 60 62 63 62 62 63 64 65 66 74 81 93 89 82 79 82 85 84 80 76 72 60 56 48
49 43 44 42 41 46 53 53 58 63 66 56 59 56 46 53 57 58 62 66 67 66 67 65 64 65 64 69 69 72 76 79 77 83 88 92 92 85 83 75 68 63 52 48
49 48 47 48 49 51 61 63 59 71 76 80 60 53 57 58 62 62 68 71 71 73 72 69 66 58 57 60 59 61 69 77 78 82 78 74 71 68 66 71 65 59 54 48
49 54 53 57 58 60 59 63 78 87 83 80 59 56 52 61 64 64 69 74 76 79 75 68 61 57 54 51 52 55 63 62 68 76 80 82 77 72 66 63 68 69 59 49
57 59 63 66 62 57 66 71 74 79 88 77 66 53 54 57 54 67 72 76 77 78 73 67 62 57 54 51 47 47 51 63 70 68 64 70 80 77 75 73 74 66 61 52
61 65 67 61 62 60 65 67 73 90 94 94 95 57 55 54 60 78 77 79 80 78 75 68 64 62 58 52 46 47 49 52 57 76 75 70 69 69 67 69 68 62 58 55
70 81 77 73 80 83 80 80 82 90 94 82 94 60 59 59 77 83 83 85 83 81 79 74 71 66 59 54 50 53 56 56 58 57 64 79 81 72 66 65 65 64 63 61
72 76 78 79 88 86 92 81 80 85 90 84 72 62 63 63 76 91 86 87 86 84 83 79 77 69 61 54 53 55 58 61 63 62 61 62 69 74 71 72 71 70 69 67
65 68 71 66 69 78 79 73 77 83 80 89 56 62 60 63 85 94 91 90 87 88 86 85 80 69 59 53 56 59 61 64 67 69 67 65 64 64 62 65 65 66 68 66
68 72 77 69 68 78 81 75 78 78 71 73 72 64 63 77 89 91 91 89 93 89 89 86 78 64 55 56 61 60 65 68 69 71 71 71 73 71 63 59 54 53 51 47
71 75 78 72 71 87 92 61 67 68 63 60 66 54 66 73 77 89 92 93 93 88 90 86 72 60 59 63 61 64 69 74 74 71 68 64 63 61 58 52 44 38 34 32
68 80 95 81 90 95 56 58 60 64 54 60 62 61 59 69 85 91 94 92 93 91 89 80 64 61 64 66 70 77 82 83 81 75 73 67 60 52 44 43 39 33 29 26
63 76 80 87 86 80 70 62 62 60 49 55 53 57 66 77 90 91 91 88 92 92 78 68 60 63 70 74 81 87 90 88 84 77 72 56 48 46 44 30 25 28 30 31
63 69 77 97 94 83 58 57 55 52 49 45 49 59 74 84 88 84 91 88 84 74 63 58 65 70 77 81 89 90 84 75 62 49 42 42 45 35 29 34 33 29 25 19
78 78 90 97 95 80 58 56 58 62 51 50 61 72 80 83 84 85 80 77 72 60 59 70 78 79 84 85 85 82 79 65 54 49 41 32 35 41 33 19 15 14 15 17
87 90 86 89 92 81 55 57 59 56 57 64 73 76 78 78 76 75 73 64 60 63 74 82 82 86 90 90 81 68 48 47 45 46 44 34 21 19 18 17 16 16 15 14
91 83 82 79 70 65 64 64 59 60 66 73 77 77 75 74 70 62 60 61 72 79 85 85 87 91 91 82 53 41 51 39 36 33 29 23 22 20 19 18 17 18 18 17
86 79 77 80 72 70 72 69 69 71 72 73 73 69 67 64 63 68 71 76 80 84 87 85 90 88 74 58 47 41 41 38 29 26 24 23 22 21 21 22 25 29 28 27
86 82 83 78 73 74 73 73 75 79 78 74 71 71 63 64 70 72 77 82 87 89 86 90 84 71 63 43 41 35 30 25 24 24 23 23 24 24 25 25 30 29 28 27
82 78 75 72 72 74 77 75 79 78 81 78 69 62 65 70 74 79 84 87 87 88 88 85 73 48 44 38 29 26 24 24 23 22 23 25 26 26 26 26 23 21 21 26

GFSCGP_prec_cthk_126.txt.gz
RH
34 32 27 27 29 27 26 25 24 27 30 33 28 28 28 31 34 37 35 36 38 37 37 37 37 38 38 37 38 39 39 39 40 37 40 45 50 54 53 51 50 49 46 40
38 33 29 33 32 31 31 30 31 32 34 34 30 29 34 37 39 39 38 39 41 40 39 40 39 39 39 38 38 37 36 37 38 42 47 45 48 51 54 57 57 55 52 46
29 33 29 33 32 32 35 35 33 35 35 32 35 27 41 42 40 40 41 41 40 40 41 40 39 41 42 41 40 39 38 39 42 45 46 53 50 51 53 55 58 61 58 54
32 30 33 34 34 35 33 35 35 36 37 35 42 28 35 45 44 40 40 42 42 41 41 43 43 45 48 46 45 46 46 48 47 48 49 51 50 63 52 56 58 61 61 58
31 38 38 39 35 36 33 36 39 38 40 42 36 44 31 41 42 42 41 44 46 47 47 46 47 48 49 50 51 52 56 54 54 59 63 62 63 68 74 62 62 62 55 57
35 38 37 38 39 39 39 40 43 43 43 41 34 38 26 41 38 42 43 47 48 50 50 50 51 53 54 54 54 54 57 59 62 65 75 78 76 70 76 74 74 70 70 68
39 42 42 40 42 43 42 44 46 44 51 39 43 40 32 40 40 44 46 47 52 53 53 53 54 56 54 52 52 54 56 58 62 67 75 81 84 82 83 83 91 89 83 79
42 45 41 40 38 41 44 45 44 43 40 43 50 43 40 41 45 47 48 51 56 57 58 58 57 53 51 47 44 45 47 54 58 65 67 67 66 71 80 85 87 90 92 90
38 37 41 41 40 42 52 51 44 52 52 61 41 38 48 51 51 50 51 54 60 62 62 59 55 50 47 47 45 41 40 41 48 57 68 69 73 78 79 79 70 69 88 89
40 41 44 49 48 50 51 53 64 65 67 65 44 41 46 57 54 54 55 59 65 65 64 62 55 53 52 51 47 43 42 42 44 49 55 57 68 73 77 82 75 74 73 75
46 46 59 59 56 56 59 61 60 61 65 66 54 46 54 55 51 56 55 62 73 72 71 66 59 56 54 53 50 47 44 46 48 49 50 65 68 60 63 77 80 79 81 81
52 57 57 62 58 59 63 62 62 78 74 73 76 55 55 53 56 56 56 67 77 78 76 71 66 61 58 56 53 51 49 50 51 53 52 53 66 75 75 74 80 77 77 81
66 70 71 67 72 73 62 61 62 73 74 76 89 66 65 60 60 59 61 63 80 84 82 78 73 68 65 62 59 55 53 53 55 57 58 59 60 65 84 85 83 82 83 79
76 71 77 71 72 85 92 85 82 83 94 79 70 67 59 71 64 60 60 66 83 89 87 81 77 74 74 69 64 55 56 57 58 59 61 61 61 62 60 68 76 74 73 69
83 75 72 65 66 70 79 77 76 78 81 87 65 69 47 62 61 63 62 75 91 93 87 83 83 82 79 72 62 57 57 59 61 64 68 68 66 63 60 60 58 58 56 55
73 67 65 59 61 62 61 55 53 63 63 70 67 52 54 54 62 59 67 79 84 88 89 90 89 86 80 71 61 59 63 64 62 64 65 65 63 59 57 54 49 47 44 40
85 83 82 73 64 69 78 51 52 47 57 59 60 47 50 57 57 61 69 73 81 86 96 95 91 89 81 68 61 65 64 65 66 66 64 61 57 54 52 46 40 35 31 28
76 76 77 72 70 84 51 53 45 48 48 47 53 48 50 57 61 68 72 76 83 93 95 94 90 89 75 64 65 65 71 78 76 71 66 60 56 48 42 39 39 36 30 27
71 73 85 85 65 53 56 50 52 56 42 50 55 51 56 57 59 62 65 77 91 97 96 95 92 80 64 60 67 73 77 81 78 70 61 52 48 49 46 36 32 26 32 31
56 60 72 68 74 68 44 46 54 59 59 46 43 44 53 57 61 59 75 88 95 95 97 93 79 60 60 69 73 79 79 75 63 51 44 47 44 36 32 34 35 29 26 21
72 76 76 65 74 60 47 58 69 83 56 49 46 47 53 62 68 76 86 92 96 96 89 80 63 59 73 76 80 78 76 58 50 48 38 35 36 44 40 27 21 18 17 17
64 76 81 88 85 84 69 79 77 70 60 52 51 55 59 67 79 87 91 92 88 85 75 63 64 75 82 82 79 76 65 52 44 47 45 41 29 26 23 22 24 23 24 24
63 57 66 84 79 79 73 70 69 64 59 58 57 59 63 75 81 81 81 82 78 69 65 69 82 87 86 86 80 62 53 47 36 32 29 26 23 22 27 29 30 28 28 28
54 60 69 75 74 73 74 77 72 68 67 61 59 62 69 75 78 76 72 68 68 72 80 85 88 86 88 86 62 48 52 46 44 38 33 31 27 30 32 31 30 30 30 29
72 73 77 80 78 73 74 76 72 68 65 65 67 74 78 79 72 68 70 74 78 82 86 90 88 89 86 65 48 50 45 37 31 30 30 30 32 33 32 27 30 33 31 29
82 84 86 80 74 70 70 70 72 74 72 75 80 82 84 74 73 72 75 79 84 90 92 90 90 87 68 54 44 41 32 28 28 29 30 29 32 32 33 33 35 25 25 27

GFSCGP_prec_cthk_129.txt.gz
RH
28 31 28 24 28 28 28 26 23 22 23 28 29 28 26 29 32 35 37 36 36 35 35 35 36 35 34 33 34 33 31 30 30 30 33 38 40 42 50 53 52 52 52 54
33 31 24 26 31 32 29 27 26 27 28 30 28 27 27 33 34 33 35 35 37 36 36 35 36 36 36 35 35 35 35 33 33 34 36 37 39 44 43 49 54 51 51 54
33 29 29 29 34 33 30 29 28 30 31 32 28 28 29 36 38 37 36 37 36 35 35 35 37 38 39 39 40 40 39 39 39 38 40 40 43 43 47 46 43 51 55 52
34 32 32 33 33 31 29 30 35 35 30 30 34 34 29 38 45 39 37 39 38 36 36 37 40 40 40 40 41 41 42 43 44 43 45 45 47 48 50 52 49 52 48 56
33 35 35 33 29 29 32 37 34 33 34 33 31 33 28 31 44 44 39 38 38 40 42 41 40 41 42 42 42 42 43 43 44 45 47 50 54 59 58 59 64 71 68 59
35 39 37 32 33 34 37 37 35 37 36 41 34 32 25 31 41 44 40 39 39 43 43 42 43 44 44 43 42 40 40 40 42 46 49 51 56 64 70 71 74 77 81 78
43 40 34 33 38 37 39 40 45 48 53 48 39 36 30 38 38 40 41 41 42 44 47 46 47 47 43 39 36 34 34 34 36 40 46 51 53 55 63 74 81 82 82 84
41 41 38 36 34 40 42 41 41 41 38 33 42 40 40 39 41 41 42 43 44 47 48 49 49 47 42 40 37 38 37 36 36 35 35 43 51 60 65 66 67 69 72 76
44 42 43 41 37 37 44 50 42 46 41 45 38 32 43 42 46 48 45 45 46 51 52 52 51 46 42 40 41 40 40 39 38 38 38 37 42 50 55 65 76 82 82 76
43 49 46 46 42 39 41 50 56 54 53 53 35 38 45 55 55 54 50 46 49 54 57 57 56 48 46 46 45 42 42 41 41 41 41 42 43 46 53 62 63 70 83 84
48 42 53 53 46 42 45 50 54 58 55 55 48 43 55 62 55 54 52 49 52 58 62 63 61 56 54 52 51 49 48 46 46 46 47 48 49 51 51 55 69 71 75 82
48 49 46 55 53 48 50 57 57 71 60 59 59 49 58 56 59 58 54 55 59 62 64 66 65 63 65 62 58 55 53 53 51 51 53 53 54 56 57 59 64 83 83 78
52 58 58 53 54 66 65 55 65 68 65 63 72 62 59 60 63 66 64 61 61 58 64 65 66 70 69 69 66 64 61 56 54 56 55 56 58 60 59 58 62 68 89 91
60 60 61 61 58 77 87 70 68 62 78 74 73 67 62 72 74 72 66 62 60 58 64 68 71 76 79 73 70 69 66 59 57 59 60 59 60 61 60 60 60 61 67 79
75 73 67 66 65 81 84 87 80 78 78 95 76 75 69 70 69 72 72 65 63 58 66 74 76 82 82 79 76 74 69 61 61 62 62 62 63 61 60 59 57 56 51 49
78 89 81 76 73 65 64 61 55 63 65 71 73 69 62 63 63 62 75 62 59 63 68 72 77 81 82 82 82 80 71 64 65 64 63 61 59 57 54 51 50 48 53 47
80 79 82 81 69 68 69 42 56 53 48 54 58 54 51 55 59 64 78 58 57 63 67 72 82 84 83 87 85 81 68 67 67 66 62 59 54 50 46 47 47 45 42 41
98 97 96 90 80 94 60 51 49 56 55 52 58 56 54 56 61 61 57 63 62 63 70 78 91 91 90 89 86 78 70 70 64 65 63 57 56 52 53 50 42 43 43 39
82 82 88 92 76 66 58 47 60 57 52 51 60 52 51 58 56 57 59 59 62 62 72 79 90 93 92 90 83 71 64 65 69 64 55 47 43 52 50 46 40 39 38 41
66 69 83 82 86 80 52 51 61 66 67 50 47 43 48 56 57 58 56 56 58 66 75 85 97 93 94 86 69 63 69 70 67 63 47 45 41 37 37 37 40 39 40 34
79 76 76 74 81 67 41 46 66 74 43 46 50 55 60 59 56 56 59 64 68 77 86 96 97 93 89 76 61 70 73 64 60 43 40 38 44 46 53 41 33 33 30 29
82 81 75 74 78 75 47 54 61 54 60 63 65 67 61 57 57 58 66 73 80 90 96 98 94 89 77 63 67 71 68 64 57 51 39 47 35 36 37 37 35 32 31 30
62 55 60 72 74 82 79 78 77 68 70 76 72 67 60 58 59 60 67 78 89 93 94 93 88 76 65 72 80 76 72 60 45 40 32 29 30 32 34 33 33 33 32 30
63 67 64 67 49 61 66 68 74 73 72 69 64 65 61 58 59 65 72 81 84 85 85 83 73 69 79 86 83 76 60 53 43 40 40 37 34 34 34 34 34 32 31 30
81 80 73 74 63 64 61 72 75 76 74 70 68 66 65 65 67 69 76 79 80 80 80 80 79 85 89 86 82 69 52 48 44 39 33 33 34 34 32 26 31 33 23 24
68 74 80 73 84 93 88 83 78 78 77 75 74 73 74 76 77 80 84 82 81 81 83 85 88 91 90 84 73 47 52 47 36 33 32 30 31 32 35 37 34 30 27 27